<?xml version="1.0" encoding="UTF-8" standalone="no" ?>
<gpx xmlns="http://www.topografix.com/GPX/1/1" xmlns:xsi="http://www.w3.org/2001/XMLSchema-instance" xsi:schemaLocation="http://www.topografix.com/GPX/1/1 http://www.topografix.com/GPX/1/1/gpx.xsd" version="1.1" creator="VisuGPX - https://www.visugpx.com">
  <metadata>
    <name>Bourg de Sirod,Crans,Sirod</name>
  </metadata>
  <trk>
    <name><![CDATA[Bourg de Sirod,Crans,Sirod_1]]></name>
    <trkseg>
      <trkpt lat="46.7283" lon="5.96025">
        <ele>586.3</ele>
        <time>2021-02-15T12:28:20Z</time>
      </trkpt>
      <trkpt lat="46.72826" lon="5.96023">
        <ele>578.7</ele>
        <time>2021-02-15T12:28:34Z</time>
      </trkpt>
      <trkpt lat="46.72823" lon="5.96018">
        <ele>579.3</ele>
        <time>2021-02-15T12:28:38Z</time>
      </trkpt>
      <trkpt lat="46.72819" lon="5.96013">
        <ele>579.9</ele>
        <time>2021-02-15T12:28:42Z</time>
      </trkpt>
      <trkpt lat="46.72816" lon="5.96008">
        <ele>581.5</ele>
        <time>2021-02-15T12:28:47Z</time>
      </trkpt>
      <trkpt lat="46.72811" lon="5.96006">
        <ele>583.7</ele>
        <time>2021-02-15T12:28:52Z</time>
      </trkpt>
      <trkpt lat="46.72807" lon="5.96003">
        <ele>585.7</ele>
        <time>2021-02-15T12:28:57Z</time>
      </trkpt>
      <trkpt lat="46.72803" lon="5.96">
        <ele>587.9</ele>
        <time>2021-02-15T12:29:02Z</time>
      </trkpt>
      <trkpt lat="46.72798" lon="5.95998">
        <ele>589</ele>
        <time>2021-02-15T12:29:06Z</time>
      </trkpt>
      <trkpt lat="46.72794" lon="5.95997">
        <ele>590.5</ele>
        <time>2021-02-15T12:29:10Z</time>
      </trkpt>
      <trkpt lat="46.72789" lon="5.95996">
        <ele>592.9</ele>
        <time>2021-02-15T12:29:15Z</time>
      </trkpt>
      <trkpt lat="46.72787" lon="5.9599">
        <ele>595.1</ele>
        <time>2021-02-15T12:29:20Z</time>
      </trkpt>
      <trkpt lat="46.72787" lon="5.95982">
        <ele>595.2</ele>
        <time>2021-02-15T12:29:24Z</time>
      </trkpt>
      <trkpt lat="46.72787" lon="5.95975">
        <ele>594.3</ele>
        <time>2021-02-15T12:29:27Z</time>
      </trkpt>
      <trkpt lat="46.72789" lon="5.95968">
        <ele>593.1</ele>
        <time>2021-02-15T12:29:30Z</time>
      </trkpt>
      <trkpt lat="46.72789" lon="5.9596">
        <ele>591.2</ele>
        <time>2021-02-15T12:29:34Z</time>
      </trkpt>
      <trkpt lat="46.72785" lon="5.95955">
        <ele>588.7</ele>
        <time>2021-02-15T12:29:40Z</time>
      </trkpt>
      <trkpt lat="46.7278" lon="5.95953">
        <ele>587.3</ele>
        <time>2021-02-15T12:29:46Z</time>
      </trkpt>
      <trkpt lat="46.72776" lon="5.95951">
        <ele>586.8</ele>
        <time>2021-02-15T12:29:52Z</time>
      </trkpt>
      <trkpt lat="46.72772" lon="5.95948">
        <ele>586</ele>
        <time>2021-02-15T12:29:57Z</time>
      </trkpt>
      <trkpt lat="46.72767" lon="5.95946">
        <ele>584.8</ele>
        <time>2021-02-15T12:30:02Z</time>
      </trkpt>
      <trkpt lat="46.72762" lon="5.95944">
        <ele>584.1</ele>
        <time>2021-02-15T12:30:07Z</time>
      </trkpt>
      <trkpt lat="46.72758" lon="5.95942">
        <ele>583.8</ele>
        <time>2021-02-15T12:30:11Z</time>
      </trkpt>
      <trkpt lat="46.72753" lon="5.95939">
        <ele>584.2</ele>
        <time>2021-02-15T12:30:15Z</time>
      </trkpt>
      <trkpt lat="46.72749" lon="5.95937">
        <ele>584.8</ele>
        <time>2021-02-15T12:30:19Z</time>
      </trkpt>
      <trkpt lat="46.72744" lon="5.95934">
        <ele>585.4</ele>
        <time>2021-02-15T12:30:23Z</time>
      </trkpt>
      <trkpt lat="46.72739" lon="5.95931">
        <ele>586.2</ele>
        <time>2021-02-15T12:30:28Z</time>
      </trkpt>
      <trkpt lat="46.72734" lon="5.95928">
        <ele>587.1</ele>
        <time>2021-02-15T12:30:33Z</time>
      </trkpt>
      <trkpt lat="46.7273" lon="5.95925">
        <ele>587.8</ele>
        <time>2021-02-15T12:30:38Z</time>
      </trkpt>
      <trkpt lat="46.72725" lon="5.95922">
        <ele>588.1</ele>
        <time>2021-02-15T12:30:43Z</time>
      </trkpt>
      <trkpt lat="46.7272" lon="5.9592">
        <ele>588</ele>
        <time>2021-02-15T12:30:47Z</time>
      </trkpt>
      <trkpt lat="46.72715" lon="5.95917">
        <ele>588</ele>
        <time>2021-02-15T12:30:52Z</time>
      </trkpt>
      <trkpt lat="46.7271" lon="5.95913">
        <ele>587.8</ele>
        <time>2021-02-15T12:30:56Z</time>
      </trkpt>
      <trkpt lat="46.72706" lon="5.9591">
        <ele>587.4</ele>
        <time>2021-02-15T12:31:00Z</time>
      </trkpt>
      <trkpt lat="46.72701" lon="5.95907">
        <ele>586.6</ele>
        <time>2021-02-15T12:31:05Z</time>
      </trkpt>
      <trkpt lat="46.72696" lon="5.95904">
        <ele>586</ele>
        <time>2021-02-15T12:31:10Z</time>
      </trkpt>
      <trkpt lat="46.72692" lon="5.95901">
        <ele>585.4</ele>
        <time>2021-02-15T12:31:14Z</time>
      </trkpt>
      <trkpt lat="46.72688" lon="5.95898">
        <ele>585</ele>
        <time>2021-02-15T12:31:18Z</time>
      </trkpt>
      <trkpt lat="46.72683" lon="5.95894">
        <ele>584.6</ele>
        <time>2021-02-15T12:31:23Z</time>
      </trkpt>
      <trkpt lat="46.72678" lon="5.9589">
        <ele>584.3</ele>
        <time>2021-02-15T12:31:28Z</time>
      </trkpt>
      <trkpt lat="46.72673" lon="5.95887">
        <ele>584</ele>
        <time>2021-02-15T12:31:32Z</time>
      </trkpt>
      <trkpt lat="46.72669" lon="5.95884">
        <ele>583.4</ele>
        <time>2021-02-15T12:31:36Z</time>
      </trkpt>
      <trkpt lat="46.72664" lon="5.95881">
        <ele>583.1</ele>
        <time>2021-02-15T12:31:40Z</time>
      </trkpt>
      <trkpt lat="46.72659" lon="5.95879">
        <ele>582.7</ele>
        <time>2021-02-15T12:31:44Z</time>
      </trkpt>
      <trkpt lat="46.72654" lon="5.95879">
        <ele>582.3</ele>
        <time>2021-02-15T12:31:48Z</time>
      </trkpt>
      <trkpt lat="46.7265" lon="5.95876">
        <ele>581.8</ele>
        <time>2021-02-15T12:31:53Z</time>
      </trkpt>
      <trkpt lat="46.72645" lon="5.95873">
        <ele>581.6</ele>
        <time>2021-02-15T12:31:57Z</time>
      </trkpt>
      <trkpt lat="46.7264" lon="5.95871">
        <ele>581.5</ele>
        <time>2021-02-15T12:32:01Z</time>
      </trkpt>
      <trkpt lat="46.72635" lon="5.95869">
        <ele>581.9</ele>
        <time>2021-02-15T12:32:05Z</time>
      </trkpt>
      <trkpt lat="46.7263" lon="5.95867">
        <ele>581.9</ele>
        <time>2021-02-15T12:32:10Z</time>
      </trkpt>
      <trkpt lat="46.72626" lon="5.95864">
        <ele>581.8</ele>
        <time>2021-02-15T12:32:14Z</time>
      </trkpt>
      <trkpt lat="46.72621" lon="5.95861">
        <ele>581.3</ele>
        <time>2021-02-15T12:32:19Z</time>
      </trkpt>
      <trkpt lat="46.72616" lon="5.95858">
        <ele>581.1</ele>
        <time>2021-02-15T12:32:23Z</time>
      </trkpt>
      <trkpt lat="46.72611" lon="5.95856">
        <ele>581</ele>
        <time>2021-02-15T12:32:27Z</time>
      </trkpt>
      <trkpt lat="46.72607" lon="5.95855">
        <ele>581.3</ele>
        <time>2021-02-15T12:32:34Z</time>
      </trkpt>
      <trkpt lat="46.72609" lon="5.9585">
        <ele>585</ele>
        <time>2021-02-15T12:33:07Z</time>
      </trkpt>
      <trkpt lat="46.72605" lon="5.95847">
        <ele>586.4</ele>
        <time>2021-02-15T12:33:27Z</time>
      </trkpt>
      <trkpt lat="46.726" lon="5.95846">
        <ele>586.8</ele>
        <time>2021-02-15T12:33:30Z</time>
      </trkpt>
      <trkpt lat="46.72595" lon="5.95845">
        <ele>587.1</ele>
        <time>2021-02-15T12:33:33Z</time>
      </trkpt>
      <trkpt lat="46.7259" lon="5.95844">
        <ele>587.3</ele>
        <time>2021-02-15T12:33:37Z</time>
      </trkpt>
      <trkpt lat="46.72585" lon="5.95844">
        <ele>587.6</ele>
        <time>2021-02-15T12:33:41Z</time>
      </trkpt>
      <trkpt lat="46.72581" lon="5.9584">
        <ele>588.4</ele>
        <time>2021-02-15T12:33:46Z</time>
      </trkpt>
      <trkpt lat="46.72576" lon="5.95837">
        <ele>588.9</ele>
        <time>2021-02-15T12:33:51Z</time>
      </trkpt>
      <trkpt lat="46.72572" lon="5.95834">
        <ele>589.7</ele>
        <time>2021-02-15T12:33:56Z</time>
      </trkpt>
      <trkpt lat="46.72567" lon="5.95832">
        <ele>589.9</ele>
        <time>2021-02-15T12:34:00Z</time>
      </trkpt>
      <trkpt lat="46.72562" lon="5.95829">
        <ele>589.9</ele>
        <time>2021-02-15T12:34:05Z</time>
      </trkpt>
      <trkpt lat="46.72557" lon="5.95825">
        <ele>589.8</ele>
        <time>2021-02-15T12:34:09Z</time>
      </trkpt>
      <trkpt lat="46.72553" lon="5.95821">
        <ele>589.6</ele>
        <time>2021-02-15T12:34:14Z</time>
      </trkpt>
      <trkpt lat="46.72548" lon="5.95818">
        <ele>590</ele>
        <time>2021-02-15T12:34:22Z</time>
      </trkpt>
      <trkpt lat="46.72545" lon="5.95812">
        <ele>590.8</ele>
        <time>2021-02-15T12:34:29Z</time>
      </trkpt>
      <trkpt lat="46.72541" lon="5.95808">
        <ele>591.3</ele>
        <time>2021-02-15T12:34:34Z</time>
      </trkpt>
      <trkpt lat="46.72538" lon="5.95803">
        <ele>591.5</ele>
        <time>2021-02-15T12:34:37Z</time>
      </trkpt>
      <trkpt lat="46.72535" lon="5.95797">
        <ele>591.8</ele>
        <time>2021-02-15T12:34:42Z</time>
      </trkpt>
      <trkpt lat="46.7253" lon="5.95794">
        <ele>590.2</ele>
        <time>2021-02-15T12:34:48Z</time>
      </trkpt>
      <trkpt lat="46.72526" lon="5.95791">
        <ele>586.7</ele>
        <time>2021-02-15T12:34:57Z</time>
      </trkpt>
      <trkpt lat="46.72522" lon="5.95786">
        <ele>583.8</ele>
        <time>2021-02-15T12:35:09Z</time>
      </trkpt>
      <trkpt lat="46.72524" lon="5.9578">
        <ele>581.2</ele>
        <time>2021-02-15T12:35:19Z</time>
      </trkpt>
      <trkpt lat="46.72523" lon="5.95773">
        <ele>580.4</ele>
        <time>2021-02-15T12:35:27Z</time>
      </trkpt>
      <trkpt lat="46.72526" lon="5.95767">
        <ele>578.7</ele>
        <time>2021-02-15T12:35:36Z</time>
      </trkpt>
      <trkpt lat="46.72529" lon="5.95763">
        <ele>576.7</ele>
        <time>2021-02-15T12:35:48Z</time>
      </trkpt>
      <trkpt lat="46.72531" lon="5.95756">
        <ele>575.1</ele>
        <time>2021-02-15T12:35:55Z</time>
      </trkpt>
      <trkpt lat="46.72535" lon="5.95752">
        <ele>573.6</ele>
        <time>2021-02-15T12:36:02Z</time>
      </trkpt>
      <trkpt lat="46.72539" lon="5.95749">
        <ele>572.1</ele>
        <time>2021-02-15T12:36:09Z</time>
      </trkpt>
      <trkpt lat="46.72543" lon="5.95744">
        <ele>568.4</ele>
        <time>2021-02-15T12:36:24Z</time>
      </trkpt>
      <trkpt lat="46.72543" lon="5.95737">
        <ele>567.1</ele>
        <time>2021-02-15T12:36:52Z</time>
      </trkpt>
      <trkpt lat="46.72543" lon="5.9573">
        <ele>567.2</ele>
        <time>2021-02-15T12:36:56Z</time>
      </trkpt>
      <trkpt lat="46.72542" lon="5.95724">
        <ele>568.2</ele>
        <time>2021-02-15T12:37:04Z</time>
      </trkpt>
      <trkpt lat="46.72538" lon="5.95717">
        <ele>570.7</ele>
        <time>2021-02-15T12:37:08Z</time>
      </trkpt>
      <trkpt lat="46.72534" lon="5.95712">
        <ele>573.3</ele>
        <time>2021-02-15T12:37:12Z</time>
      </trkpt>
      <trkpt lat="46.72531" lon="5.95707">
        <ele>577.1</ele>
        <time>2021-02-15T12:37:21Z</time>
      </trkpt>
      <trkpt lat="46.7253" lon="5.95701">
        <ele>578.4</ele>
        <time>2021-02-15T12:37:29Z</time>
      </trkpt>
      <trkpt lat="46.72526" lon="5.957">
        <ele>577</ele>
        <time>2021-02-15T12:37:42Z</time>
      </trkpt>
      <trkpt lat="46.72521" lon="5.957">
        <ele>574</ele>
        <time>2021-02-15T12:37:52Z</time>
      </trkpt>
      <trkpt lat="46.72518" lon="5.95696">
        <ele>569.1</ele>
        <time>2021-02-15T12:38:16Z</time>
      </trkpt>
      <trkpt lat="46.72515" lon="5.95701">
        <ele>565.4</ele>
        <time>2021-02-15T12:38:25Z</time>
      </trkpt>
      <trkpt lat="46.7251" lon="5.95701">
        <ele>563.2</ele>
        <time>2021-02-15T12:38:31Z</time>
      </trkpt>
      <trkpt lat="46.72506" lon="5.95697">
        <ele>560.8</ele>
        <time>2021-02-15T12:38:36Z</time>
      </trkpt>
      <trkpt lat="46.72504" lon="5.95691">
        <ele>558.3</ele>
        <time>2021-02-15T12:38:41Z</time>
      </trkpt>
      <trkpt lat="46.72501" lon="5.95686">
        <ele>554.4</ele>
        <time>2021-02-15T12:38:48Z</time>
      </trkpt>
      <trkpt lat="46.72498" lon="5.9568">
        <ele>551.2</ele>
        <time>2021-02-15T12:38:54Z</time>
      </trkpt>
      <trkpt lat="46.72495" lon="5.95674">
        <ele>548.6</ele>
        <time>2021-02-15T12:39:00Z</time>
      </trkpt>
      <trkpt lat="46.72492" lon="5.95668">
        <ele>546.5</ele>
        <time>2021-02-15T12:39:06Z</time>
      </trkpt>
      <trkpt lat="46.72488" lon="5.95664">
        <ele>544.9</ele>
        <time>2021-02-15T12:39:11Z</time>
      </trkpt>
      <trkpt lat="46.72484" lon="5.95659">
        <ele>543.3</ele>
        <time>2021-02-15T12:39:17Z</time>
      </trkpt>
      <trkpt lat="46.72483" lon="5.95653">
        <ele>541.7</ele>
        <time>2021-02-15T12:39:22Z</time>
      </trkpt>
      <trkpt lat="46.7248" lon="5.95647">
        <ele>539.6</ele>
        <time>2021-02-15T12:39:28Z</time>
      </trkpt>
      <trkpt lat="46.72477" lon="5.95641">
        <ele>537.9</ele>
        <time>2021-02-15T12:39:34Z</time>
      </trkpt>
      <trkpt lat="46.72474" lon="5.95635">
        <ele>537.1</ele>
        <time>2021-02-15T12:39:39Z</time>
      </trkpt>
      <trkpt lat="46.72471" lon="5.95629">
        <ele>536.1</ele>
        <time>2021-02-15T12:39:44Z</time>
      </trkpt>
      <trkpt lat="46.72468" lon="5.95623">
        <ele>534.5</ele>
        <time>2021-02-15T12:39:51Z</time>
      </trkpt>
      <trkpt lat="46.72464" lon="5.95622">
        <ele>533.9</ele>
        <time>2021-02-15T12:39:55Z</time>
      </trkpt>
      <trkpt lat="46.72459" lon="5.95622">
        <ele>532.9</ele>
        <time>2021-02-15T12:40:00Z</time>
      </trkpt>
      <trkpt lat="46.72454" lon="5.9562">
        <ele>531.2</ele>
        <time>2021-02-15T12:40:08Z</time>
      </trkpt>
      <trkpt lat="46.7245" lon="5.95625">
        <ele>533.1</ele>
        <time>2021-02-15T12:40:35Z</time>
      </trkpt>
      <trkpt lat="46.72449" lon="5.95631">
        <ele>534.2</ele>
        <time>2021-02-15T12:40:45Z</time>
      </trkpt>
      <trkpt lat="46.72446" lon="5.95637">
        <ele>534.7</ele>
        <time>2021-02-15T12:40:56Z</time>
      </trkpt>
      <trkpt lat="46.72441" lon="5.95642">
        <ele>534.7</ele>
        <time>2021-02-15T12:41:01Z</time>
      </trkpt>
      <trkpt lat="46.72437" lon="5.95645">
        <ele>534.6</ele>
        <time>2021-02-15T12:41:08Z</time>
      </trkpt>
      <trkpt lat="46.72434" lon="5.9565">
        <ele>534.4</ele>
        <time>2021-02-15T12:41:14Z</time>
      </trkpt>
      <trkpt lat="46.72431" lon="5.95656">
        <ele>535.2</ele>
        <time>2021-02-15T12:41:26Z</time>
      </trkpt>
      <trkpt lat="46.72428" lon="5.95661">
        <ele>536.5</ele>
        <time>2021-02-15T12:42:00Z</time>
      </trkpt>
      <trkpt lat="46.72432" lon="5.95659">
        <ele>538.3</ele>
        <time>2021-02-15T12:42:24Z</time>
      </trkpt>
      <trkpt lat="46.72427" lon="5.95666">
        <ele>538.9</ele>
        <time>2021-02-15T12:43:07Z</time>
      </trkpt>
      <trkpt lat="46.72425" lon="5.95673">
        <ele>541.2</ele>
        <time>2021-02-15T12:43:09Z</time>
      </trkpt>
      <trkpt lat="46.72428" lon="5.95679">
        <ele>549</ele>
        <time>2021-02-15T12:43:18Z</time>
      </trkpt>
      <trkpt lat="46.72422" lon="5.95675">
        <ele>550.2</ele>
        <time>2021-02-15T12:43:25Z</time>
      </trkpt>
      <trkpt lat="46.72415" lon="5.95672">
        <ele>549.8</ele>
        <time>2021-02-15T12:43:27Z</time>
      </trkpt>
      <trkpt lat="46.7242" lon="5.95661">
        <ele>546.1</ele>
        <time>2021-02-15T12:43:29Z</time>
      </trkpt>
      <trkpt lat="46.72423" lon="5.95656">
        <ele>544.3</ele>
        <time>2021-02-15T12:43:31Z</time>
      </trkpt>
      <trkpt lat="46.72419" lon="5.95659">
        <ele>539.4</ele>
        <time>2021-02-15T12:43:38Z</time>
      </trkpt>
      <trkpt lat="46.72415" lon="5.95665">
        <ele>537.5</ele>
        <time>2021-02-15T12:43:42Z</time>
      </trkpt>
      <trkpt lat="46.72411" lon="5.95669">
        <ele>535.3</ele>
        <time>2021-02-15T12:43:47Z</time>
      </trkpt>
      <trkpt lat="46.72406" lon="5.95672">
        <ele>533.5</ele>
        <time>2021-02-15T12:43:53Z</time>
      </trkpt>
      <trkpt lat="46.72402" lon="5.95672">
        <ele>532.3</ele>
        <time>2021-02-15T12:43:58Z</time>
      </trkpt>
      <trkpt lat="46.72397" lon="5.95674">
        <ele>531.2</ele>
        <time>2021-02-15T12:44:02Z</time>
      </trkpt>
      <trkpt lat="46.72391" lon="5.95676">
        <ele>530.3</ele>
        <time>2021-02-15T12:44:06Z</time>
      </trkpt>
      <trkpt lat="46.72387" lon="5.95677">
        <ele>529.9</ele>
        <time>2021-02-15T12:44:10Z</time>
      </trkpt>
      <trkpt lat="46.72382" lon="5.95677">
        <ele>529.4</ele>
        <time>2021-02-15T12:44:14Z</time>
      </trkpt>
      <trkpt lat="46.72377" lon="5.95676">
        <ele>529.8</ele>
        <time>2021-02-15T12:44:18Z</time>
      </trkpt>
      <trkpt lat="46.72371" lon="5.95675">
        <ele>531.3</ele>
        <time>2021-02-15T12:44:23Z</time>
      </trkpt>
      <trkpt lat="46.72366" lon="5.95673">
        <ele>532.8</ele>
        <time>2021-02-15T12:44:27Z</time>
      </trkpt>
      <trkpt lat="46.72363" lon="5.95668">
        <ele>534</ele>
        <time>2021-02-15T12:44:31Z</time>
      </trkpt>
      <trkpt lat="46.72359" lon="5.95665">
        <ele>535.2</ele>
        <time>2021-02-15T12:44:35Z</time>
      </trkpt>
      <trkpt lat="46.72354" lon="5.95661">
        <ele>536.5</ele>
        <time>2021-02-15T12:44:40Z</time>
      </trkpt>
      <trkpt lat="46.72349" lon="5.95659">
        <ele>536.5</ele>
        <time>2021-02-15T12:44:43Z</time>
      </trkpt>
      <trkpt lat="46.72345" lon="5.95657">
        <ele>536.4</ele>
        <time>2021-02-15T12:44:46Z</time>
      </trkpt>
      <trkpt lat="46.72341" lon="5.95653">
        <ele>536.2</ele>
        <time>2021-02-15T12:44:50Z</time>
      </trkpt>
      <trkpt lat="46.72337" lon="5.95648">
        <ele>536.2</ele>
        <time>2021-02-15T12:44:55Z</time>
      </trkpt>
      <trkpt lat="46.72334" lon="5.95642">
        <ele>536.9</ele>
        <time>2021-02-15T12:45:00Z</time>
      </trkpt>
      <trkpt lat="46.72331" lon="5.95638">
        <ele>537.7</ele>
        <time>2021-02-15T12:45:04Z</time>
      </trkpt>
      <trkpt lat="46.72328" lon="5.95632">
        <ele>538.4</ele>
        <time>2021-02-15T12:45:09Z</time>
      </trkpt>
      <trkpt lat="46.72326" lon="5.95625">
        <ele>539.4</ele>
        <time>2021-02-15T12:45:14Z</time>
      </trkpt>
      <trkpt lat="46.72326" lon="5.95618">
        <ele>542.1</ele>
        <time>2021-02-15T12:45:23Z</time>
      </trkpt>
      <trkpt lat="46.72322" lon="5.95616">
        <ele>543.2</ele>
        <time>2021-02-15T12:45:29Z</time>
      </trkpt>
      <trkpt lat="46.72317" lon="5.95615">
        <ele>544.2</ele>
        <time>2021-02-15T12:45:36Z</time>
      </trkpt>
      <trkpt lat="46.72312" lon="5.95614">
        <ele>543.2</ele>
        <time>2021-02-15T12:45:40Z</time>
      </trkpt>
      <trkpt lat="46.72307" lon="5.95613">
        <ele>541.1</ele>
        <time>2021-02-15T12:45:44Z</time>
      </trkpt>
      <trkpt lat="46.72303" lon="5.95612">
        <ele>538.1</ele>
        <time>2021-02-15T12:45:48Z</time>
      </trkpt>
      <trkpt lat="46.72298" lon="5.95608">
        <ele>535</ele>
        <time>2021-02-15T12:45:54Z</time>
      </trkpt>
      <trkpt lat="46.72294" lon="5.95604">
        <ele>534.6</ele>
        <time>2021-02-15T12:45:59Z</time>
      </trkpt>
      <trkpt lat="46.72291" lon="5.95598">
        <ele>537</ele>
        <time>2021-02-15T12:46:04Z</time>
      </trkpt>
      <trkpt lat="46.7229" lon="5.95591">
        <ele>542.6</ele>
        <time>2021-02-15T12:46:13Z</time>
      </trkpt>
      <trkpt lat="46.72286" lon="5.95586">
        <ele>545.7</ele>
        <time>2021-02-15T12:46:17Z</time>
      </trkpt>
      <trkpt lat="46.72283" lon="5.95583">
        <ele>549.7</ele>
        <time>2021-02-15T12:46:22Z</time>
      </trkpt>
      <trkpt lat="46.72287" lon="5.95584">
        <ele>559</ele>
        <time>2021-02-15T12:47:11Z</time>
      </trkpt>
      <trkpt lat="46.72291" lon="5.95579">
        <ele>562.2</ele>
        <time>2021-02-15T12:47:17Z</time>
      </trkpt>
      <trkpt lat="46.72295" lon="5.95583">
        <ele>564.8</ele>
        <time>2021-02-15T12:47:26Z</time>
      </trkpt>
      <trkpt lat="46.72296" lon="5.95589">
        <ele>564.2</ele>
        <time>2021-02-15T12:47:34Z</time>
      </trkpt>
      <trkpt lat="46.72297" lon="5.95597">
        <ele>562.1</ele>
        <time>2021-02-15T12:47:40Z</time>
      </trkpt>
      <trkpt lat="46.72299" lon="5.95604">
        <ele>560.2</ele>
        <time>2021-02-15T12:47:47Z</time>
      </trkpt>
      <trkpt lat="46.723" lon="5.95611">
        <ele>559.4</ele>
        <time>2021-02-15T12:47:50Z</time>
      </trkpt>
      <trkpt lat="46.72301" lon="5.95618">
        <ele>558.7</ele>
        <time>2021-02-15T12:47:54Z</time>
      </trkpt>
      <trkpt lat="46.72303" lon="5.95625">
        <ele>558.6</ele>
        <time>2021-02-15T12:47:59Z</time>
      </trkpt>
      <trkpt lat="46.72307" lon="5.9563">
        <ele>559.2</ele>
        <time>2021-02-15T12:48:04Z</time>
      </trkpt>
      <trkpt lat="46.72311" lon="5.95634">
        <ele>561</ele>
        <time>2021-02-15T12:48:09Z</time>
      </trkpt>
      <trkpt lat="46.72313" lon="5.95641">
        <ele>563.3</ele>
        <time>2021-02-15T12:48:15Z</time>
      </trkpt>
      <trkpt lat="46.72316" lon="5.95647">
        <ele>565.3</ele>
        <time>2021-02-15T12:48:22Z</time>
      </trkpt>
      <trkpt lat="46.7232" lon="5.95653">
        <ele>565.3</ele>
        <time>2021-02-15T12:48:29Z</time>
      </trkpt>
      <trkpt lat="46.72323" lon="5.95657">
        <ele>565.2</ele>
        <time>2021-02-15T12:48:38Z</time>
      </trkpt>
      <trkpt lat="46.72323" lon="5.95664">
        <ele>566.6</ele>
        <time>2021-02-15T12:48:45Z</time>
      </trkpt>
      <trkpt lat="46.72324" lon="5.95671">
        <ele>568</ele>
        <time>2021-02-15T12:48:50Z</time>
      </trkpt>
      <trkpt lat="46.72323" lon="5.95678">
        <ele>569.9</ele>
        <time>2021-02-15T12:48:56Z</time>
      </trkpt>
      <trkpt lat="46.72325" lon="5.95685">
        <ele>571.2</ele>
        <time>2021-02-15T12:49:02Z</time>
      </trkpt>
      <trkpt lat="46.72325" lon="5.95693">
        <ele>571.9</ele>
        <time>2021-02-15T12:49:07Z</time>
      </trkpt>
      <trkpt lat="46.72327" lon="5.95699">
        <ele>572.3</ele>
        <time>2021-02-15T12:49:11Z</time>
      </trkpt>
      <trkpt lat="46.72329" lon="5.95706">
        <ele>572.8</ele>
        <time>2021-02-15T12:49:16Z</time>
      </trkpt>
      <trkpt lat="46.72333" lon="5.9571">
        <ele>573.2</ele>
        <time>2021-02-15T12:49:21Z</time>
      </trkpt>
      <trkpt lat="46.72337" lon="5.95711">
        <ele>573.2</ele>
        <time>2021-02-15T12:49:25Z</time>
      </trkpt>
      <trkpt lat="46.72341" lon="5.95715">
        <ele>571.2</ele>
        <time>2021-02-15T12:49:31Z</time>
      </trkpt>
      <trkpt lat="46.72345" lon="5.95717">
        <ele>569.1</ele>
        <time>2021-02-15T12:49:36Z</time>
      </trkpt>
      <trkpt lat="46.72349" lon="5.95723">
        <ele>565.9</ele>
        <time>2021-02-15T12:49:43Z</time>
      </trkpt>
      <trkpt lat="46.72351" lon="5.95729">
        <ele>562.4</ele>
        <time>2021-02-15T12:49:48Z</time>
      </trkpt>
      <trkpt lat="46.72353" lon="5.95735">
        <ele>555.9</ele>
        <time>2021-02-15T12:49:55Z</time>
      </trkpt>
      <trkpt lat="46.72357" lon="5.95741">
        <ele>552</ele>
        <time>2021-02-15T12:50:01Z</time>
      </trkpt>
      <trkpt lat="46.72359" lon="5.95747">
        <ele>549.1</ele>
        <time>2021-02-15T12:50:07Z</time>
      </trkpt>
      <trkpt lat="46.72361" lon="5.95754">
        <ele>547.9</ele>
        <time>2021-02-15T12:50:13Z</time>
      </trkpt>
      <trkpt lat="46.72364" lon="5.95759">
        <ele>547.9</ele>
        <time>2021-02-15T12:50:18Z</time>
      </trkpt>
      <trkpt lat="46.72368" lon="5.95763">
        <ele>548.8</ele>
        <time>2021-02-15T12:50:24Z</time>
      </trkpt>
      <trkpt lat="46.72372" lon="5.95769">
        <ele>551.4</ele>
        <time>2021-02-15T12:50:32Z</time>
      </trkpt>
      <trkpt lat="46.72375" lon="5.95774">
        <ele>555.1</ele>
        <time>2021-02-15T12:50:38Z</time>
      </trkpt>
      <trkpt lat="46.72377" lon="5.9578">
        <ele>558.1</ele>
        <time>2021-02-15T12:50:44Z</time>
      </trkpt>
      <trkpt lat="46.72381" lon="5.95784">
        <ele>560.1</ele>
        <time>2021-02-15T12:50:49Z</time>
      </trkpt>
      <trkpt lat="46.72384" lon="5.95789">
        <ele>561.9</ele>
        <time>2021-02-15T12:50:55Z</time>
      </trkpt>
      <trkpt lat="46.72387" lon="5.95794">
        <ele>563.2</ele>
        <time>2021-02-15T12:51:00Z</time>
      </trkpt>
      <trkpt lat="46.72392" lon="5.95799">
        <ele>564.4</ele>
        <time>2021-02-15T12:51:05Z</time>
      </trkpt>
      <trkpt lat="46.72396" lon="5.95804">
        <ele>565</ele>
        <time>2021-02-15T12:51:10Z</time>
      </trkpt>
      <trkpt lat="46.72398" lon="5.95811">
        <ele>565.7</ele>
        <time>2021-02-15T12:51:16Z</time>
      </trkpt>
      <trkpt lat="46.72402" lon="5.95816">
        <ele>566.5</ele>
        <time>2021-02-15T12:51:21Z</time>
      </trkpt>
      <trkpt lat="46.72405" lon="5.95822">
        <ele>567.3</ele>
        <time>2021-02-15T12:51:26Z</time>
      </trkpt>
      <trkpt lat="46.72409" lon="5.95826">
        <ele>568</ele>
        <time>2021-02-15T12:51:32Z</time>
      </trkpt>
      <trkpt lat="46.72411" lon="5.95832">
        <ele>567.9</ele>
        <time>2021-02-15T12:51:39Z</time>
      </trkpt>
      <trkpt lat="46.72414" lon="5.95839">
        <ele>568.2</ele>
        <time>2021-02-15T12:51:46Z</time>
      </trkpt>
      <trkpt lat="46.72415" lon="5.95846">
        <ele>568.6</ele>
        <time>2021-02-15T12:51:52Z</time>
      </trkpt>
      <trkpt lat="46.72416" lon="5.95853">
        <ele>569.1</ele>
        <time>2021-02-15T12:51:57Z</time>
      </trkpt>
      <trkpt lat="46.72419" lon="5.95858">
        <ele>569.6</ele>
        <time>2021-02-15T12:52:02Z</time>
      </trkpt>
      <trkpt lat="46.72422" lon="5.95864">
        <ele>569.5</ele>
        <time>2021-02-15T12:52:07Z</time>
      </trkpt>
      <trkpt lat="46.72425" lon="5.9587">
        <ele>569.5</ele>
        <time>2021-02-15T12:52:12Z</time>
      </trkpt>
      <trkpt lat="46.72425" lon="5.95878">
        <ele>569.6</ele>
        <time>2021-02-15T12:52:18Z</time>
      </trkpt>
      <trkpt lat="46.72424" lon="5.95885">
        <ele>569.5</ele>
        <time>2021-02-15T12:52:22Z</time>
      </trkpt>
      <trkpt lat="46.72423" lon="5.95892">
        <ele>568.9</ele>
        <time>2021-02-15T12:52:26Z</time>
      </trkpt>
      <trkpt lat="46.72422" lon="5.95898">
        <ele>568.6</ele>
        <time>2021-02-15T12:52:32Z</time>
      </trkpt>
      <trkpt lat="46.7242" lon="5.95905">
        <ele>568.4</ele>
        <time>2021-02-15T12:52:37Z</time>
      </trkpt>
      <trkpt lat="46.72421" lon="5.95911">
        <ele>568</ele>
        <time>2021-02-15T12:52:41Z</time>
      </trkpt>
      <trkpt lat="46.72422" lon="5.95918">
        <ele>567.1</ele>
        <time>2021-02-15T12:52:46Z</time>
      </trkpt>
      <trkpt lat="46.72421" lon="5.95926">
        <ele>566.3</ele>
        <time>2021-02-15T12:52:53Z</time>
      </trkpt>
      <trkpt lat="46.72418" lon="5.95932">
        <ele>565.1</ele>
        <time>2021-02-15T12:52:59Z</time>
      </trkpt>
      <trkpt lat="46.72417" lon="5.95938">
        <ele>564.3</ele>
        <time>2021-02-15T12:53:04Z</time>
      </trkpt>
      <trkpt lat="46.72409" lon="5.95941">
        <ele>564</ele>
        <time>2021-02-15T12:53:29Z</time>
      </trkpt>
      <trkpt lat="46.72403" lon="5.95943">
        <ele>564.4</ele>
        <time>2021-02-15T12:53:32Z</time>
      </trkpt>
      <trkpt lat="46.72399" lon="5.95945">
        <ele>564.8</ele>
        <time>2021-02-15T12:53:36Z</time>
      </trkpt>
      <trkpt lat="46.72395" lon="5.95949">
        <ele>565</ele>
        <time>2021-02-15T12:53:40Z</time>
      </trkpt>
      <trkpt lat="46.72392" lon="5.95955">
        <ele>564.8</ele>
        <time>2021-02-15T12:53:45Z</time>
      </trkpt>
      <trkpt lat="46.72389" lon="5.95961">
        <ele>564.2</ele>
        <time>2021-02-15T12:53:50Z</time>
      </trkpt>
      <trkpt lat="46.72386" lon="5.95966">
        <ele>563.8</ele>
        <time>2021-02-15T12:53:54Z</time>
      </trkpt>
      <trkpt lat="46.72384" lon="5.95973">
        <ele>563.8</ele>
        <time>2021-02-15T12:53:59Z</time>
      </trkpt>
      <trkpt lat="46.7238" lon="5.95977">
        <ele>563.3</ele>
        <time>2021-02-15T12:54:04Z</time>
      </trkpt>
      <trkpt lat="46.72379" lon="5.95991">
        <ele>565.9</ele>
        <time>2021-02-15T12:54:12Z</time>
      </trkpt>
      <trkpt lat="46.72378" lon="5.95998">
        <ele>567.3</ele>
        <time>2021-02-15T12:54:14Z</time>
      </trkpt>
      <trkpt lat="46.72376" lon="5.96004">
        <ele>571.6</ele>
        <time>2021-02-15T12:54:22Z</time>
      </trkpt>
      <trkpt lat="46.72371" lon="5.96006">
        <ele>572.5</ele>
        <time>2021-02-15T12:54:27Z</time>
      </trkpt>
      <trkpt lat="46.72366" lon="5.96009">
        <ele>572.8</ele>
        <time>2021-02-15T12:54:33Z</time>
      </trkpt>
      <trkpt lat="46.72362" lon="5.96013">
        <ele>572.7</ele>
        <time>2021-02-15T12:54:38Z</time>
      </trkpt>
      <trkpt lat="46.72358" lon="5.96017">
        <ele>572.5</ele>
        <time>2021-02-15T12:54:44Z</time>
      </trkpt>
      <trkpt lat="46.72354" lon="5.96021">
        <ele>573</ele>
        <time>2021-02-15T12:54:52Z</time>
      </trkpt>
      <trkpt lat="46.72349" lon="5.96023">
        <ele>573.3</ele>
        <time>2021-02-15T12:55:00Z</time>
      </trkpt>
      <trkpt lat="46.72345" lon="5.96024">
        <ele>573.1</ele>
        <time>2021-02-15T12:55:07Z</time>
      </trkpt>
      <trkpt lat="46.7234" lon="5.96027">
        <ele>572.9</ele>
        <time>2021-02-15T12:55:15Z</time>
      </trkpt>
      <trkpt lat="46.72335" lon="5.96028">
        <ele>572.8</ele>
        <time>2021-02-15T12:55:21Z</time>
      </trkpt>
      <trkpt lat="46.72331" lon="5.96031">
        <ele>572.7</ele>
        <time>2021-02-15T12:55:26Z</time>
      </trkpt>
      <trkpt lat="46.72326" lon="5.96032">
        <ele>572.5</ele>
        <time>2021-02-15T12:55:31Z</time>
      </trkpt>
      <trkpt lat="46.72321" lon="5.96035">
        <ele>572.3</ele>
        <time>2021-02-15T12:55:36Z</time>
      </trkpt>
      <trkpt lat="46.72316" lon="5.96033">
        <ele>571.4</ele>
        <time>2021-02-15T12:55:41Z</time>
      </trkpt>
      <trkpt lat="46.72312" lon="5.96028">
        <ele>569.9</ele>
        <time>2021-02-15T12:55:46Z</time>
      </trkpt>
      <trkpt lat="46.72306" lon="5.96026">
        <ele>567.8</ele>
        <time>2021-02-15T12:55:51Z</time>
      </trkpt>
      <trkpt lat="46.72302" lon="5.96024">
        <ele>566</ele>
        <time>2021-02-15T12:55:55Z</time>
      </trkpt>
      <trkpt lat="46.72298" lon="5.96018">
        <ele>564.3</ele>
        <time>2021-02-15T12:56:00Z</time>
      </trkpt>
      <trkpt lat="46.72294" lon="5.96022">
        <ele>564.6</ele>
        <time>2021-02-15T12:56:02Z</time>
      </trkpt>
      <trkpt lat="46.72288" lon="5.96026">
        <ele>564.6</ele>
        <time>2021-02-15T12:56:05Z</time>
      </trkpt>
      <trkpt lat="46.72283" lon="5.96023">
        <ele>564.5</ele>
        <time>2021-02-15T12:56:10Z</time>
      </trkpt>
      <trkpt lat="46.7228" lon="5.96018">
        <ele>564.5</ele>
        <time>2021-02-15T12:56:16Z</time>
      </trkpt>
      <trkpt lat="46.72274" lon="5.96016">
        <ele>564.5</ele>
        <time>2021-02-15T12:56:23Z</time>
      </trkpt>
      <trkpt lat="46.72269" lon="5.96016">
        <ele>564.3</ele>
        <time>2021-02-15T12:56:27Z</time>
      </trkpt>
      <trkpt lat="46.72264" lon="5.96018">
        <ele>564.1</ele>
        <time>2021-02-15T12:56:32Z</time>
      </trkpt>
      <trkpt lat="46.7226" lon="5.96022">
        <ele>564.1</ele>
        <time>2021-02-15T12:56:36Z</time>
      </trkpt>
      <trkpt lat="46.72256" lon="5.96026">
        <ele>563.8</ele>
        <time>2021-02-15T12:56:42Z</time>
      </trkpt>
      <trkpt lat="46.72252" lon="5.96031">
        <ele>563.9</ele>
        <time>2021-02-15T12:56:56Z</time>
      </trkpt>
      <trkpt lat="46.72251" lon="5.96038">
        <ele>564.4</ele>
        <time>2021-02-15T12:57:00Z</time>
      </trkpt>
      <trkpt lat="46.7225" lon="5.96044">
        <ele>564.6</ele>
        <time>2021-02-15T12:57:03Z</time>
      </trkpt>
      <trkpt lat="46.72249" lon="5.96059">
        <ele>572.3</ele>
        <time>2021-02-15T12:57:05Z</time>
      </trkpt>
      <trkpt lat="46.7225" lon="5.96068">
        <ele>576.1</ele>
        <time>2021-02-15T12:57:07Z</time>
      </trkpt>
      <trkpt lat="46.72253" lon="5.96074">
        <ele>582.5</ele>
        <time>2021-02-15T12:57:10Z</time>
      </trkpt>
      <trkpt lat="46.72257" lon="5.96079">
        <ele>587.5</ele>
        <time>2021-02-15T12:57:14Z</time>
      </trkpt>
      <trkpt lat="46.72261" lon="5.96081">
        <ele>590.4</ele>
        <time>2021-02-15T12:57:18Z</time>
      </trkpt>
      <trkpt lat="46.72266" lon="5.96084">
        <ele>592.7</ele>
        <time>2021-02-15T12:57:24Z</time>
      </trkpt>
      <trkpt lat="46.7227" lon="5.96087">
        <ele>593.7</ele>
        <time>2021-02-15T12:57:30Z</time>
      </trkpt>
      <trkpt lat="46.72276" lon="5.96089">
        <ele>594.3</ele>
        <time>2021-02-15T12:57:35Z</time>
      </trkpt>
      <trkpt lat="46.72281" lon="5.9609">
        <ele>594.9</ele>
        <time>2021-02-15T12:57:39Z</time>
      </trkpt>
      <trkpt lat="46.72286" lon="5.96093">
        <ele>595.2</ele>
        <time>2021-02-15T12:57:43Z</time>
      </trkpt>
      <trkpt lat="46.7229" lon="5.96097">
        <ele>595.4</ele>
        <time>2021-02-15T12:57:47Z</time>
      </trkpt>
      <trkpt lat="46.72293" lon="5.96103">
        <ele>596</ele>
        <time>2021-02-15T12:57:52Z</time>
      </trkpt>
      <trkpt lat="46.72296" lon="5.96108">
        <ele>596.7</ele>
        <time>2021-02-15T12:57:57Z</time>
      </trkpt>
      <trkpt lat="46.72298" lon="5.96116">
        <ele>597.5</ele>
        <time>2021-02-15T12:58:03Z</time>
      </trkpt>
      <trkpt lat="46.723" lon="5.96122">
        <ele>598</ele>
        <time>2021-02-15T12:58:09Z</time>
      </trkpt>
      <trkpt lat="46.72302" lon="5.96128">
        <ele>598.6</ele>
        <time>2021-02-15T12:58:15Z</time>
      </trkpt>
      <trkpt lat="46.72303" lon="5.96136">
        <ele>598.4</ele>
        <time>2021-02-15T12:58:20Z</time>
      </trkpt>
      <trkpt lat="46.72303" lon="5.96143">
        <ele>597.9</ele>
        <time>2021-02-15T12:58:26Z</time>
      </trkpt>
      <trkpt lat="46.72303" lon="5.9615">
        <ele>597.6</ele>
        <time>2021-02-15T12:58:34Z</time>
      </trkpt>
      <trkpt lat="46.72298" lon="5.96159">
        <ele>596.9</ele>
        <time>2021-02-15T12:58:40Z</time>
      </trkpt>
      <trkpt lat="46.72296" lon="5.96165">
        <ele>596.3</ele>
        <time>2021-02-15T12:58:43Z</time>
      </trkpt>
      <trkpt lat="46.72292" lon="5.96177">
        <ele>594.6</ele>
        <time>2021-02-15T12:58:55Z</time>
      </trkpt>
      <trkpt lat="46.7229" lon="5.96183">
        <ele>594.7</ele>
        <time>2021-02-15T12:58:57Z</time>
      </trkpt>
      <trkpt lat="46.72289" lon="5.9619">
        <ele>594.8</ele>
        <time>2021-02-15T12:59:02Z</time>
      </trkpt>
      <trkpt lat="46.72289" lon="5.96198">
        <ele>595.1</ele>
        <time>2021-02-15T12:59:10Z</time>
      </trkpt>
      <trkpt lat="46.7229" lon="5.96204">
        <ele>595</ele>
        <time>2021-02-15T12:59:17Z</time>
      </trkpt>
      <trkpt lat="46.72289" lon="5.96211">
        <ele>594.5</ele>
        <time>2021-02-15T12:59:24Z</time>
      </trkpt>
      <trkpt lat="46.72289" lon="5.96218">
        <ele>593.4</ele>
        <time>2021-02-15T12:59:31Z</time>
      </trkpt>
      <trkpt lat="46.72291" lon="5.96226">
        <ele>593.5</ele>
        <time>2021-02-15T12:59:36Z</time>
      </trkpt>
      <trkpt lat="46.72291" lon="5.96233">
        <ele>593.2</ele>
        <time>2021-02-15T12:59:41Z</time>
      </trkpt>
      <trkpt lat="46.72293" lon="5.96241">
        <ele>592.5</ele>
        <time>2021-02-15T12:59:46Z</time>
      </trkpt>
      <trkpt lat="46.72296" lon="5.96245">
        <ele>593.3</ele>
        <time>2021-02-15T12:59:49Z</time>
      </trkpt>
      <trkpt lat="46.72301" lon="5.96247">
        <ele>594.3</ele>
        <time>2021-02-15T12:59:52Z</time>
      </trkpt>
      <trkpt lat="46.72306" lon="5.96246">
        <ele>594.1</ele>
        <time>2021-02-15T13:00:02Z</time>
      </trkpt>
      <trkpt lat="46.72315" lon="5.96243">
        <ele>595.1</ele>
        <time>2021-02-15T13:00:06Z</time>
      </trkpt>
      <trkpt lat="46.7232" lon="5.96242">
        <ele>595.7</ele>
        <time>2021-02-15T13:00:08Z</time>
      </trkpt>
      <trkpt lat="46.72325" lon="5.96243">
        <ele>596.8</ele>
        <time>2021-02-15T13:00:11Z</time>
      </trkpt>
      <trkpt lat="46.7233" lon="5.96245">
        <ele>597.8</ele>
        <time>2021-02-15T13:00:16Z</time>
      </trkpt>
      <trkpt lat="46.72332" lon="5.96251">
        <ele>597.7</ele>
        <time>2021-02-15T13:00:23Z</time>
      </trkpt>
      <trkpt lat="46.72332" lon="5.96258">
        <ele>593.9</ele>
        <time>2021-02-15T13:00:29Z</time>
      </trkpt>
      <trkpt lat="46.72333" lon="5.96264">
        <ele>589.3</ele>
        <time>2021-02-15T13:00:34Z</time>
      </trkpt>
      <trkpt lat="46.72335" lon="5.9627">
        <ele>584.2</ele>
        <time>2021-02-15T13:00:39Z</time>
      </trkpt>
      <trkpt lat="46.72339" lon="5.96274">
        <ele>578.1</ele>
        <time>2021-02-15T13:00:45Z</time>
      </trkpt>
      <trkpt lat="46.72343" lon="5.96278">
        <ele>574.3</ele>
        <time>2021-02-15T13:00:50Z</time>
      </trkpt>
      <trkpt lat="46.72347" lon="5.96283">
        <ele>571.8</ele>
        <time>2021-02-15T13:01:00Z</time>
      </trkpt>
      <trkpt lat="46.72356" lon="5.96282">
        <ele>577.7</ele>
        <time>2021-02-15T13:01:02Z</time>
      </trkpt>
      <trkpt lat="46.72361" lon="5.96282">
        <ele>581.6</ele>
        <time>2021-02-15T13:01:05Z</time>
      </trkpt>
      <trkpt lat="46.72356" lon="5.96285">
        <ele>587.2</ele>
        <time>2021-02-15T13:01:18Z</time>
      </trkpt>
      <trkpt lat="46.72353" lon="5.96289">
        <ele>588.1</ele>
        <time>2021-02-15T13:01:37Z</time>
      </trkpt>
      <trkpt lat="46.72352" lon="5.96283">
        <ele>589</ele>
        <time>2021-02-15T13:02:02Z</time>
      </trkpt>
      <trkpt lat="46.72347" lon="5.96286">
        <ele>589.3</ele>
        <time>2021-02-15T13:02:12Z</time>
      </trkpt>
      <trkpt lat="46.72344" lon="5.96292">
        <ele>589.2</ele>
        <time>2021-02-15T13:02:16Z</time>
      </trkpt>
      <trkpt lat="46.72345" lon="5.96299">
        <ele>588.1</ele>
        <time>2021-02-15T13:02:24Z</time>
      </trkpt>
      <trkpt lat="46.72348" lon="5.96294">
        <ele>584.4</ele>
        <time>2021-02-15T13:02:55Z</time>
      </trkpt>
      <trkpt lat="46.72345" lon="5.96289">
        <ele>583.1</ele>
        <time>2021-02-15T13:03:03Z</time>
      </trkpt>
      <trkpt lat="46.72343" lon="5.96282">
        <ele>582.5</ele>
        <time>2021-02-15T13:03:07Z</time>
      </trkpt>
      <trkpt lat="46.72341" lon="5.96275">
        <ele>582.8</ele>
        <time>2021-02-15T13:03:12Z</time>
      </trkpt>
      <trkpt lat="46.72341" lon="5.96268">
        <ele>584.1</ele>
        <time>2021-02-15T13:03:21Z</time>
      </trkpt>
      <trkpt lat="46.72344" lon="5.96256">
        <ele>585.6</ele>
        <time>2021-02-15T13:03:40Z</time>
      </trkpt>
      <trkpt lat="46.72344" lon="5.96239">
        <ele>585.5</ele>
        <time>2021-02-15T13:03:42Z</time>
      </trkpt>
      <trkpt lat="46.72351" lon="5.96241">
        <ele>585</ele>
        <time>2021-02-15T13:03:47Z</time>
      </trkpt>
      <trkpt lat="46.72352" lon="5.96249">
        <ele>584.9</ele>
        <time>2021-02-15T13:03:50Z</time>
      </trkpt>
      <trkpt lat="46.72347" lon="5.96252">
        <ele>584.2</ele>
        <time>2021-02-15T13:03:53Z</time>
      </trkpt>
      <trkpt lat="46.72343" lon="5.96257">
        <ele>587.2</ele>
        <time>2021-02-15T13:03:56Z</time>
      </trkpt>
      <trkpt lat="46.72337" lon="5.96256">
        <ele>588.7</ele>
        <time>2021-02-15T13:04:08Z</time>
      </trkpt>
      <trkpt lat="46.72331" lon="5.96259">
        <ele>586.5</ele>
        <time>2021-02-15T13:04:10Z</time>
      </trkpt>
      <trkpt lat="46.72325" lon="5.96261">
        <ele>585.1</ele>
        <time>2021-02-15T13:04:13Z</time>
      </trkpt>
      <trkpt lat="46.7232" lon="5.96261">
        <ele>586.8</ele>
        <time>2021-02-15T13:04:22Z</time>
      </trkpt>
      <trkpt lat="46.72315" lon="5.96263">
        <ele>585.9</ele>
        <time>2021-02-15T13:04:25Z</time>
      </trkpt>
      <trkpt lat="46.72309" lon="5.96261">
        <ele>585</ele>
        <time>2021-02-15T13:04:30Z</time>
      </trkpt>
      <trkpt lat="46.72304" lon="5.96259">
        <ele>585.2</ele>
        <time>2021-02-15T13:04:34Z</time>
      </trkpt>
      <trkpt lat="46.72299" lon="5.96256">
        <ele>586.3</ele>
        <time>2021-02-15T13:04:40Z</time>
      </trkpt>
      <trkpt lat="46.72296" lon="5.96251">
        <ele>588.3</ele>
        <time>2021-02-15T13:04:46Z</time>
      </trkpt>
      <trkpt lat="46.72292" lon="5.96245">
        <ele>590.3</ele>
        <time>2021-02-15T13:04:51Z</time>
      </trkpt>
      <trkpt lat="46.72288" lon="5.9624">
        <ele>592.6</ele>
        <time>2021-02-15T13:04:56Z</time>
      </trkpt>
      <trkpt lat="46.72284" lon="5.96236">
        <ele>595.1</ele>
        <time>2021-02-15T13:05:02Z</time>
      </trkpt>
      <trkpt lat="46.72282" lon="5.9623">
        <ele>597.8</ele>
        <time>2021-02-15T13:05:11Z</time>
      </trkpt>
      <trkpt lat="46.72282" lon="5.96223">
        <ele>599.3</ele>
        <time>2021-02-15T13:05:17Z</time>
      </trkpt>
      <trkpt lat="46.72282" lon="5.96215">
        <ele>600</ele>
        <time>2021-02-15T13:05:21Z</time>
      </trkpt>
      <trkpt lat="46.72284" lon="5.96208">
        <ele>600.9</ele>
        <time>2021-02-15T13:05:25Z</time>
      </trkpt>
      <trkpt lat="46.72284" lon="5.96201">
        <ele>602.5</ele>
        <time>2021-02-15T13:05:31Z</time>
      </trkpt>
      <trkpt lat="46.72285" lon="5.96194">
        <ele>602.6</ele>
        <time>2021-02-15T13:05:35Z</time>
      </trkpt>
      <trkpt lat="46.72287" lon="5.96187">
        <ele>603.1</ele>
        <time>2021-02-15T13:05:39Z</time>
      </trkpt>
      <trkpt lat="46.72288" lon="5.9618">
        <ele>603.1</ele>
        <time>2021-02-15T13:05:45Z</time>
      </trkpt>
      <trkpt lat="46.72291" lon="5.96175">
        <ele>600.5</ele>
        <time>2021-02-15T13:05:52Z</time>
      </trkpt>
      <trkpt lat="46.72295" lon="5.9617">
        <ele>598.4</ele>
        <time>2021-02-15T13:05:56Z</time>
      </trkpt>
      <trkpt lat="46.72298" lon="5.96165">
        <ele>597.1</ele>
        <time>2021-02-15T13:05:59Z</time>
      </trkpt>
      <trkpt lat="46.72301" lon="5.9616">
        <ele>596.8</ele>
        <time>2021-02-15T13:06:02Z</time>
      </trkpt>
      <trkpt lat="46.72303" lon="5.96153">
        <ele>595.7</ele>
        <time>2021-02-15T13:06:07Z</time>
      </trkpt>
      <trkpt lat="46.72302" lon="5.96146">
        <ele>595.2</ele>
        <time>2021-02-15T13:06:12Z</time>
      </trkpt>
      <trkpt lat="46.72297" lon="5.96147">
        <ele>594.5</ele>
        <time>2021-02-15T13:06:21Z</time>
      </trkpt>
      <trkpt lat="46.72294" lon="5.96152">
        <ele>593.4</ele>
        <time>2021-02-15T13:06:29Z</time>
      </trkpt>
      <trkpt lat="46.7229" lon="5.96157">
        <ele>593.1</ele>
        <time>2021-02-15T13:06:33Z</time>
      </trkpt>
      <trkpt lat="46.72286" lon="5.96162">
        <ele>593.4</ele>
        <time>2021-02-15T13:06:38Z</time>
      </trkpt>
      <trkpt lat="46.72282" lon="5.96167">
        <ele>593.8</ele>
        <time>2021-02-15T13:06:42Z</time>
      </trkpt>
      <trkpt lat="46.7228" lon="5.96172">
        <ele>594.9</ele>
        <time>2021-02-15T13:06:47Z</time>
      </trkpt>
      <trkpt lat="46.72277" lon="5.96179">
        <ele>596</ele>
        <time>2021-02-15T13:06:54Z</time>
      </trkpt>
      <trkpt lat="46.72274" lon="5.96184">
        <ele>596.6</ele>
        <time>2021-02-15T13:07:00Z</time>
      </trkpt>
      <trkpt lat="46.72271" lon="5.96189">
        <ele>597.8</ele>
        <time>2021-02-15T13:07:06Z</time>
      </trkpt>
      <trkpt lat="46.72267" lon="5.96194">
        <ele>598.6</ele>
        <time>2021-02-15T13:07:11Z</time>
      </trkpt>
      <trkpt lat="46.72263" lon="5.96197">
        <ele>598.8</ele>
        <time>2021-02-15T13:07:15Z</time>
      </trkpt>
      <trkpt lat="46.72258" lon="5.96199">
        <ele>598.8</ele>
        <time>2021-02-15T13:07:19Z</time>
      </trkpt>
      <trkpt lat="46.72254" lon="5.96202">
        <ele>598.3</ele>
        <time>2021-02-15T13:07:22Z</time>
      </trkpt>
      <trkpt lat="46.72249" lon="5.96203">
        <ele>597.7</ele>
        <time>2021-02-15T13:07:28Z</time>
      </trkpt>
      <trkpt lat="46.72244" lon="5.96203">
        <ele>597</ele>
        <time>2021-02-15T13:07:35Z</time>
      </trkpt>
      <trkpt lat="46.72239" lon="5.96205">
        <ele>596.6</ele>
        <time>2021-02-15T13:07:40Z</time>
      </trkpt>
      <trkpt lat="46.72234" lon="5.96207">
        <ele>596.1</ele>
        <time>2021-02-15T13:07:45Z</time>
      </trkpt>
      <trkpt lat="46.7223" lon="5.96208">
        <ele>595.2</ele>
        <time>2021-02-15T13:07:50Z</time>
      </trkpt>
      <trkpt lat="46.72225" lon="5.96206">
        <ele>593.6</ele>
        <time>2021-02-15T13:07:58Z</time>
      </trkpt>
      <trkpt lat="46.7222" lon="5.96206">
        <ele>592.9</ele>
        <time>2021-02-15T13:08:02Z</time>
      </trkpt>
      <trkpt lat="46.72215" lon="5.96207">
        <ele>592.3</ele>
        <time>2021-02-15T13:08:07Z</time>
      </trkpt>
      <trkpt lat="46.72211" lon="5.96208">
        <ele>592.1</ele>
        <time>2021-02-15T13:08:11Z</time>
      </trkpt>
      <trkpt lat="46.72206" lon="5.96209">
        <ele>591.7</ele>
        <time>2021-02-15T13:08:17Z</time>
      </trkpt>
      <trkpt lat="46.72201" lon="5.96211">
        <ele>592</ele>
        <time>2021-02-15T13:08:22Z</time>
      </trkpt>
      <trkpt lat="46.72196" lon="5.96214">
        <ele>592.7</ele>
        <time>2021-02-15T13:08:27Z</time>
      </trkpt>
      <trkpt lat="46.72191" lon="5.96216">
        <ele>593.4</ele>
        <time>2021-02-15T13:08:33Z</time>
      </trkpt>
      <trkpt lat="46.72187" lon="5.96219">
        <ele>594.3</ele>
        <time>2021-02-15T13:08:39Z</time>
      </trkpt>
      <trkpt lat="46.72183" lon="5.96224">
        <ele>595.3</ele>
        <time>2021-02-15T13:08:45Z</time>
      </trkpt>
      <trkpt lat="46.72181" lon="5.96217">
        <ele>596.2</ele>
        <time>2021-02-15T13:08:55Z</time>
      </trkpt>
      <trkpt lat="46.72182" lon="5.96209">
        <ele>596.3</ele>
        <time>2021-02-15T13:08:58Z</time>
      </trkpt>
      <trkpt lat="46.72175" lon="5.96215">
        <ele>596.5</ele>
        <time>2021-02-15T13:09:03Z</time>
      </trkpt>
      <trkpt lat="46.72171" lon="5.96222">
        <ele>596.9</ele>
        <time>2021-02-15T13:09:05Z</time>
      </trkpt>
      <trkpt lat="46.72168" lon="5.9623">
        <ele>597.8</ele>
        <time>2021-02-15T13:09:07Z</time>
      </trkpt>
      <trkpt lat="46.72165" lon="5.96236">
        <ele>599.1</ele>
        <time>2021-02-15T13:09:10Z</time>
      </trkpt>
      <trkpt lat="46.72161" lon="5.96239">
        <ele>601</ele>
        <time>2021-02-15T13:09:16Z</time>
      </trkpt>
      <trkpt lat="46.72155" lon="5.96241">
        <ele>602.2</ele>
        <time>2021-02-15T13:09:21Z</time>
      </trkpt>
      <trkpt lat="46.72151" lon="5.96243">
        <ele>603.3</ele>
        <time>2021-02-15T13:09:26Z</time>
      </trkpt>
      <trkpt lat="46.72146" lon="5.96246">
        <ele>604.5</ele>
        <time>2021-02-15T13:09:33Z</time>
      </trkpt>
      <trkpt lat="46.72143" lon="5.9625">
        <ele>605.2</ele>
        <time>2021-02-15T13:09:38Z</time>
      </trkpt>
      <trkpt lat="46.7214" lon="5.96255">
        <ele>605.6</ele>
        <time>2021-02-15T13:09:42Z</time>
      </trkpt>
      <trkpt lat="46.72136" lon="5.9626">
        <ele>606</ele>
        <time>2021-02-15T13:09:46Z</time>
      </trkpt>
      <trkpt lat="46.72133" lon="5.96267">
        <ele>606.3</ele>
        <time>2021-02-15T13:09:51Z</time>
      </trkpt>
      <trkpt lat="46.72134" lon="5.96274">
        <ele>608.2</ele>
        <time>2021-02-15T13:09:56Z</time>
      </trkpt>
      <trkpt lat="46.72135" lon="5.96281">
        <ele>610.4</ele>
        <time>2021-02-15T13:10:00Z</time>
      </trkpt>
      <trkpt lat="46.72134" lon="5.96287">
        <ele>612.1</ele>
        <time>2021-02-15T13:10:04Z</time>
      </trkpt>
      <trkpt lat="46.72133" lon="5.96294">
        <ele>613.4</ele>
        <time>2021-02-15T13:10:08Z</time>
      </trkpt>
      <trkpt lat="46.72131" lon="5.963">
        <ele>617.9</ele>
        <time>2021-02-15T13:10:47Z</time>
      </trkpt>
      <trkpt lat="46.72132" lon="5.96307">
        <ele>618.2</ele>
        <time>2021-02-15T13:10:54Z</time>
      </trkpt>
      <trkpt lat="46.7213" lon="5.96315">
        <ele>618</ele>
        <time>2021-02-15T13:10:58Z</time>
      </trkpt>
      <trkpt lat="46.72128" lon="5.96322">
        <ele>617.7</ele>
        <time>2021-02-15T13:11:01Z</time>
      </trkpt>
      <trkpt lat="46.72127" lon="5.9633">
        <ele>616.9</ele>
        <time>2021-02-15T13:11:05Z</time>
      </trkpt>
      <trkpt lat="46.72126" lon="5.96338">
        <ele>615.1</ele>
        <time>2021-02-15T13:11:10Z</time>
      </trkpt>
      <trkpt lat="46.72125" lon="5.96345">
        <ele>613.2</ele>
        <time>2021-02-15T13:11:15Z</time>
      </trkpt>
      <trkpt lat="46.72124" lon="5.96351">
        <ele>610.6</ele>
        <time>2021-02-15T13:11:21Z</time>
      </trkpt>
      <trkpt lat="46.72123" lon="5.96358">
        <ele>609.4</ele>
        <time>2021-02-15T13:11:26Z</time>
      </trkpt>
      <trkpt lat="46.72124" lon="5.96366">
        <ele>609</ele>
        <time>2021-02-15T13:11:31Z</time>
      </trkpt>
      <trkpt lat="46.72123" lon="5.96372">
        <ele>609.6</ele>
        <time>2021-02-15T13:11:36Z</time>
      </trkpt>
      <trkpt lat="46.72122" lon="5.9638">
        <ele>610.7</ele>
        <time>2021-02-15T13:11:41Z</time>
      </trkpt>
      <trkpt lat="46.72122" lon="5.96388">
        <ele>612</ele>
        <time>2021-02-15T13:11:45Z</time>
      </trkpt>
      <trkpt lat="46.72121" lon="5.96395">
        <ele>613.1</ele>
        <time>2021-02-15T13:11:49Z</time>
      </trkpt>
      <trkpt lat="46.7212" lon="5.96402">
        <ele>615.7</ele>
        <time>2021-02-15T13:11:55Z</time>
      </trkpt>
      <trkpt lat="46.72118" lon="5.96409">
        <ele>618.2</ele>
        <time>2021-02-15T13:12:00Z</time>
      </trkpt>
      <trkpt lat="46.72115" lon="5.96414">
        <ele>618.3</ele>
        <time>2021-02-15T13:12:06Z</time>
      </trkpt>
      <trkpt lat="46.72111" lon="5.96419">
        <ele>617.6</ele>
        <time>2021-02-15T13:12:11Z</time>
      </trkpt>
      <trkpt lat="46.72108" lon="5.96426">
        <ele>614.4</ele>
        <time>2021-02-15T13:12:19Z</time>
      </trkpt>
      <trkpt lat="46.72113" lon="5.96435">
        <ele>619.8</ele>
        <time>2021-02-15T13:12:22Z</time>
      </trkpt>
      <trkpt lat="46.72117" lon="5.96441">
        <ele>622.4</ele>
        <time>2021-02-15T13:12:24Z</time>
      </trkpt>
      <trkpt lat="46.72121" lon="5.96446">
        <ele>627.1</ele>
        <time>2021-02-15T13:12:27Z</time>
      </trkpt>
      <trkpt lat="46.72124" lon="5.96452">
        <ele>631.3</ele>
        <time>2021-02-15T13:12:31Z</time>
      </trkpt>
      <trkpt lat="46.72125" lon="5.96458">
        <ele>633.9</ele>
        <time>2021-02-15T13:12:36Z</time>
      </trkpt>
      <trkpt lat="46.72128" lon="5.96464">
        <ele>635</ele>
        <time>2021-02-15T13:12:41Z</time>
      </trkpt>
      <trkpt lat="46.72131" lon="5.9647">
        <ele>636</ele>
        <time>2021-02-15T13:12:47Z</time>
      </trkpt>
      <trkpt lat="46.72135" lon="5.96476">
        <ele>636.2</ele>
        <time>2021-02-15T13:12:52Z</time>
      </trkpt>
      <trkpt lat="46.72138" lon="5.96481">
        <ele>636.2</ele>
        <time>2021-02-15T13:12:56Z</time>
      </trkpt>
      <trkpt lat="46.72142" lon="5.96486">
        <ele>636.2</ele>
        <time>2021-02-15T13:13:01Z</time>
      </trkpt>
      <trkpt lat="46.72143" lon="5.96492">
        <ele>635.7</ele>
        <time>2021-02-15T13:13:05Z</time>
      </trkpt>
      <trkpt lat="46.72146" lon="5.96499">
        <ele>634.7</ele>
        <time>2021-02-15T13:13:11Z</time>
      </trkpt>
      <trkpt lat="46.72148" lon="5.96505">
        <ele>633.2</ele>
        <time>2021-02-15T13:13:17Z</time>
      </trkpt>
      <trkpt lat="46.72151" lon="5.9651">
        <ele>631.9</ele>
        <time>2021-02-15T13:13:23Z</time>
      </trkpt>
      <trkpt lat="46.72154" lon="5.96516">
        <ele>630.9</ele>
        <time>2021-02-15T13:13:30Z</time>
      </trkpt>
      <trkpt lat="46.72156" lon="5.96523">
        <ele>629.5</ele>
        <time>2021-02-15T13:13:36Z</time>
      </trkpt>
      <trkpt lat="46.72159" lon="5.96528">
        <ele>627.9</ele>
        <time>2021-02-15T13:13:41Z</time>
      </trkpt>
      <trkpt lat="46.72162" lon="5.96534">
        <ele>626.7</ele>
        <time>2021-02-15T13:13:46Z</time>
      </trkpt>
      <trkpt lat="46.72167" lon="5.96539">
        <ele>626.2</ele>
        <time>2021-02-15T13:13:51Z</time>
      </trkpt>
      <trkpt lat="46.72172" lon="5.96541">
        <ele>626.8</ele>
        <time>2021-02-15T13:13:56Z</time>
      </trkpt>
      <trkpt lat="46.72176" lon="5.96544">
        <ele>627.2</ele>
        <time>2021-02-15T13:14:00Z</time>
      </trkpt>
      <trkpt lat="46.7218" lon="5.96547">
        <ele>627.9</ele>
        <time>2021-02-15T13:14:05Z</time>
      </trkpt>
      <trkpt lat="46.72184" lon="5.96551">
        <ele>628.3</ele>
        <time>2021-02-15T13:14:10Z</time>
      </trkpt>
      <trkpt lat="46.72189" lon="5.96553">
        <ele>628.6</ele>
        <time>2021-02-15T13:14:14Z</time>
      </trkpt>
      <trkpt lat="46.72194" lon="5.96555">
        <ele>629.1</ele>
        <time>2021-02-15T13:14:18Z</time>
      </trkpt>
      <trkpt lat="46.72198" lon="5.96558">
        <ele>629.9</ele>
        <time>2021-02-15T13:14:22Z</time>
      </trkpt>
      <trkpt lat="46.72201" lon="5.96564">
        <ele>630.5</ele>
        <time>2021-02-15T13:14:27Z</time>
      </trkpt>
      <trkpt lat="46.72205" lon="5.96569">
        <ele>630.4</ele>
        <time>2021-02-15T13:14:31Z</time>
      </trkpt>
      <trkpt lat="46.7221" lon="5.96572">
        <ele>630</ele>
        <time>2021-02-15T13:14:36Z</time>
      </trkpt>
      <trkpt lat="46.72215" lon="5.96575">
        <ele>629.6</ele>
        <time>2021-02-15T13:14:41Z</time>
      </trkpt>
      <trkpt lat="46.72219" lon="5.96579">
        <ele>629.3</ele>
        <time>2021-02-15T13:14:46Z</time>
      </trkpt>
      <trkpt lat="46.72224" lon="5.96582">
        <ele>629</ele>
        <time>2021-02-15T13:14:51Z</time>
      </trkpt>
      <trkpt lat="46.72229" lon="5.96584">
        <ele>629.7</ele>
        <time>2021-02-15T13:14:54Z</time>
      </trkpt>
      <trkpt lat="46.72233" lon="5.96587">
        <ele>630.6</ele>
        <time>2021-02-15T13:14:58Z</time>
      </trkpt>
      <trkpt lat="46.72237" lon="5.96592">
        <ele>631.4</ele>
        <time>2021-02-15T13:15:03Z</time>
      </trkpt>
      <trkpt lat="46.72241" lon="5.96596">
        <ele>632.2</ele>
        <time>2021-02-15T13:15:09Z</time>
      </trkpt>
      <trkpt lat="46.72245" lon="5.96602">
        <ele>632.8</ele>
        <time>2021-02-15T13:15:14Z</time>
      </trkpt>
      <trkpt lat="46.72249" lon="5.96604">
        <ele>633.2</ele>
        <time>2021-02-15T13:15:18Z</time>
      </trkpt>
      <trkpt lat="46.72254" lon="5.96605">
        <ele>633.9</ele>
        <time>2021-02-15T13:15:21Z</time>
      </trkpt>
      <trkpt lat="46.72259" lon="5.96605">
        <ele>635</ele>
        <time>2021-02-15T13:15:24Z</time>
      </trkpt>
      <trkpt lat="46.72262" lon="5.96609">
        <ele>636.9</ele>
        <time>2021-02-15T13:15:31Z</time>
      </trkpt>
      <trkpt lat="46.72266" lon="5.96614">
        <ele>638.5</ele>
        <time>2021-02-15T13:15:38Z</time>
      </trkpt>
      <trkpt lat="46.7227" lon="5.96617">
        <ele>638</ele>
        <time>2021-02-15T13:15:47Z</time>
      </trkpt>
      <trkpt lat="46.72275" lon="5.96619">
        <ele>636.9</ele>
        <time>2021-02-15T13:15:53Z</time>
      </trkpt>
      <trkpt lat="46.72279" lon="5.96622">
        <ele>636.1</ele>
        <time>2021-02-15T13:16:01Z</time>
      </trkpt>
      <trkpt lat="46.72285" lon="5.96624">
        <ele>636.2</ele>
        <time>2021-02-15T13:16:07Z</time>
      </trkpt>
      <trkpt lat="46.72288" lon="5.96629">
        <ele>636.2</ele>
        <time>2021-02-15T13:16:11Z</time>
      </trkpt>
      <trkpt lat="46.7229" lon="5.96635">
        <ele>635.9</ele>
        <time>2021-02-15T13:16:16Z</time>
      </trkpt>
      <trkpt lat="46.72291" lon="5.96642">
        <ele>635</ele>
        <time>2021-02-15T13:16:21Z</time>
      </trkpt>
      <trkpt lat="46.72295" lon="5.96644">
        <ele>634.8</ele>
        <time>2021-02-15T13:16:27Z</time>
      </trkpt>
      <trkpt lat="46.72299" lon="5.96649">
        <ele>635</ele>
        <time>2021-02-15T13:16:32Z</time>
      </trkpt>
      <trkpt lat="46.72303" lon="5.96654">
        <ele>635.5</ele>
        <time>2021-02-15T13:16:37Z</time>
      </trkpt>
      <trkpt lat="46.72307" lon="5.96658">
        <ele>635.9</ele>
        <time>2021-02-15T13:16:42Z</time>
      </trkpt>
      <trkpt lat="46.72311" lon="5.96663">
        <ele>636.5</ele>
        <time>2021-02-15T13:16:47Z</time>
      </trkpt>
      <trkpt lat="46.72313" lon="5.9667">
        <ele>637</ele>
        <time>2021-02-15T13:16:53Z</time>
      </trkpt>
      <trkpt lat="46.72316" lon="5.96675">
        <ele>637.6</ele>
        <time>2021-02-15T13:16:58Z</time>
      </trkpt>
      <trkpt lat="46.72321" lon="5.96674">
        <ele>638.4</ele>
        <time>2021-02-15T13:17:03Z</time>
      </trkpt>
      <trkpt lat="46.72325" lon="5.96672">
        <ele>639.7</ele>
        <time>2021-02-15T13:17:11Z</time>
      </trkpt>
      <trkpt lat="46.7233" lon="5.96672">
        <ele>640.9</ele>
        <time>2021-02-15T13:17:18Z</time>
      </trkpt>
      <trkpt lat="46.72333" lon="5.96677">
        <ele>641.2</ele>
        <time>2021-02-15T13:17:24Z</time>
      </trkpt>
      <trkpt lat="46.72335" lon="5.96683">
        <ele>641.3</ele>
        <time>2021-02-15T13:17:30Z</time>
      </trkpt>
      <trkpt lat="46.72336" lon="5.96691">
        <ele>641.3</ele>
        <time>2021-02-15T13:17:35Z</time>
      </trkpt>
      <trkpt lat="46.72337" lon="5.96697">
        <ele>641.4</ele>
        <time>2021-02-15T13:17:40Z</time>
      </trkpt>
      <trkpt lat="46.72337" lon="5.96705">
        <ele>641.7</ele>
        <time>2021-02-15T13:17:46Z</time>
      </trkpt>
      <trkpt lat="46.72337" lon="5.96712">
        <ele>642.4</ele>
        <time>2021-02-15T13:17:51Z</time>
      </trkpt>
      <trkpt lat="46.72335" lon="5.96719">
        <ele>643</ele>
        <time>2021-02-15T13:17:55Z</time>
      </trkpt>
      <trkpt lat="46.72334" lon="5.96727">
        <ele>643.3</ele>
        <time>2021-02-15T13:18:00Z</time>
      </trkpt>
      <trkpt lat="46.72331" lon="5.96732">
        <ele>643.2</ele>
        <time>2021-02-15T13:18:04Z</time>
      </trkpt>
      <trkpt lat="46.72328" lon="5.96739">
        <ele>642.5</ele>
        <time>2021-02-15T13:18:09Z</time>
      </trkpt>
      <trkpt lat="46.72324" lon="5.96745">
        <ele>641.7</ele>
        <time>2021-02-15T13:18:14Z</time>
      </trkpt>
      <trkpt lat="46.72322" lon="5.96751">
        <ele>641.3</ele>
        <time>2021-02-15T13:18:18Z</time>
      </trkpt>
      <trkpt lat="46.7232" lon="5.96758">
        <ele>641.2</ele>
        <time>2021-02-15T13:18:23Z</time>
      </trkpt>
      <trkpt lat="46.72317" lon="5.96764">
        <ele>641.2</ele>
        <time>2021-02-15T13:18:28Z</time>
      </trkpt>
      <trkpt lat="46.72315" lon="5.9677">
        <ele>641.4</ele>
        <time>2021-02-15T13:18:33Z</time>
      </trkpt>
      <trkpt lat="46.72312" lon="5.96776">
        <ele>641.5</ele>
        <time>2021-02-15T13:18:37Z</time>
      </trkpt>
      <trkpt lat="46.72309" lon="5.96781">
        <ele>641.5</ele>
        <time>2021-02-15T13:18:41Z</time>
      </trkpt>
      <trkpt lat="46.72305" lon="5.96785">
        <ele>641.2</ele>
        <time>2021-02-15T13:18:47Z</time>
      </trkpt>
      <trkpt lat="46.723" lon="5.96785">
        <ele>640.9</ele>
        <time>2021-02-15T13:18:53Z</time>
      </trkpt>
      <trkpt lat="46.72295" lon="5.96785">
        <ele>641</ele>
        <time>2021-02-15T13:18:59Z</time>
      </trkpt>
      <trkpt lat="46.7229" lon="5.96787">
        <ele>641.1</ele>
        <time>2021-02-15T13:19:04Z</time>
      </trkpt>
      <trkpt lat="46.72285" lon="5.96789">
        <ele>641.3</ele>
        <time>2021-02-15T13:19:09Z</time>
      </trkpt>
      <trkpt lat="46.7228" lon="5.9679">
        <ele>641.5</ele>
        <time>2021-02-15T13:19:13Z</time>
      </trkpt>
      <trkpt lat="46.72275" lon="5.96791">
        <ele>641.7</ele>
        <time>2021-02-15T13:19:17Z</time>
      </trkpt>
      <trkpt lat="46.7227" lon="5.96793">
        <ele>642.2</ele>
        <time>2021-02-15T13:19:21Z</time>
      </trkpt>
      <trkpt lat="46.72266" lon="5.96796">
        <ele>643.2</ele>
        <time>2021-02-15T13:19:24Z</time>
      </trkpt>
      <trkpt lat="46.72261" lon="5.96798">
        <ele>644.6</ele>
        <time>2021-02-15T13:19:30Z</time>
      </trkpt>
      <trkpt lat="46.72257" lon="5.96801">
        <ele>645.4</ele>
        <time>2021-02-15T13:19:35Z</time>
      </trkpt>
      <trkpt lat="46.72252" lon="5.96804">
        <ele>645.8</ele>
        <time>2021-02-15T13:19:39Z</time>
      </trkpt>
      <trkpt lat="46.72247" lon="5.96806">
        <ele>645.9</ele>
        <time>2021-02-15T13:19:44Z</time>
      </trkpt>
      <trkpt lat="46.72243" lon="5.96808">
        <ele>645.7</ele>
        <time>2021-02-15T13:19:49Z</time>
      </trkpt>
      <trkpt lat="46.72238" lon="5.9681">
        <ele>645.3</ele>
        <time>2021-02-15T13:19:54Z</time>
      </trkpt>
      <trkpt lat="46.72232" lon="5.96812">
        <ele>645</ele>
        <time>2021-02-15T13:19:58Z</time>
      </trkpt>
      <trkpt lat="46.72227" lon="5.96815">
        <ele>645.2</ele>
        <time>2021-02-15T13:20:01Z</time>
      </trkpt>
      <trkpt lat="46.72222" lon="5.96817">
        <ele>645.2</ele>
        <time>2021-02-15T13:20:05Z</time>
      </trkpt>
      <trkpt lat="46.72217" lon="5.96817">
        <ele>645</ele>
        <time>2021-02-15T13:20:09Z</time>
      </trkpt>
      <trkpt lat="46.72212" lon="5.96818">
        <ele>644.9</ele>
        <time>2021-02-15T13:20:14Z</time>
      </trkpt>
      <trkpt lat="46.72207" lon="5.96818">
        <ele>644.3</ele>
        <time>2021-02-15T13:20:19Z</time>
      </trkpt>
      <trkpt lat="46.72202" lon="5.96821">
        <ele>643.7</ele>
        <time>2021-02-15T13:20:23Z</time>
      </trkpt>
      <trkpt lat="46.72198" lon="5.96821">
        <ele>642.8</ele>
        <time>2021-02-15T13:20:28Z</time>
      </trkpt>
      <trkpt lat="46.72193" lon="5.9682">
        <ele>641.6</ele>
        <time>2021-02-15T13:20:33Z</time>
      </trkpt>
      <trkpt lat="46.72188" lon="5.9682">
        <ele>640.4</ele>
        <time>2021-02-15T13:20:37Z</time>
      </trkpt>
      <trkpt lat="46.72183" lon="5.96821">
        <ele>639</ele>
        <time>2021-02-15T13:20:41Z</time>
      </trkpt>
      <trkpt lat="46.72179" lon="5.96823">
        <ele>637.4</ele>
        <time>2021-02-15T13:20:46Z</time>
      </trkpt>
      <trkpt lat="46.72175" lon="5.96826">
        <ele>636.8</ele>
        <time>2021-02-15T13:20:49Z</time>
      </trkpt>
      <trkpt lat="46.7217" lon="5.9683">
        <ele>635.9</ele>
        <time>2021-02-15T13:20:53Z</time>
      </trkpt>
      <trkpt lat="46.72165" lon="5.96833">
        <ele>635.6</ele>
        <time>2021-02-15T13:20:56Z</time>
      </trkpt>
      <trkpt lat="46.72161" lon="5.96835">
        <ele>635.4</ele>
        <time>2021-02-15T13:20:59Z</time>
      </trkpt>
      <trkpt lat="46.72155" lon="5.96834">
        <ele>635</ele>
        <time>2021-02-15T13:21:03Z</time>
      </trkpt>
      <trkpt lat="46.7215" lon="5.96834">
        <ele>634.7</ele>
        <time>2021-02-15T13:21:07Z</time>
      </trkpt>
      <trkpt lat="46.72145" lon="5.96836">
        <ele>634.4</ele>
        <time>2021-02-15T13:21:11Z</time>
      </trkpt>
      <trkpt lat="46.7214" lon="5.96836">
        <ele>634.3</ele>
        <time>2021-02-15T13:21:15Z</time>
      </trkpt>
      <trkpt lat="46.72135" lon="5.96835">
        <ele>634.3</ele>
        <time>2021-02-15T13:21:19Z</time>
      </trkpt>
      <trkpt lat="46.72129" lon="5.96834">
        <ele>634.4</ele>
        <time>2021-02-15T13:21:24Z</time>
      </trkpt>
      <trkpt lat="46.72124" lon="5.96833">
        <ele>634.1</ele>
        <time>2021-02-15T13:21:29Z</time>
      </trkpt>
      <trkpt lat="46.72119" lon="5.96832">
        <ele>633.6</ele>
        <time>2021-02-15T13:21:34Z</time>
      </trkpt>
      <trkpt lat="46.72113" lon="5.96832">
        <ele>633.2</ele>
        <time>2021-02-15T13:21:39Z</time>
      </trkpt>
      <trkpt lat="46.72109" lon="5.96835">
        <ele>633.2</ele>
        <time>2021-02-15T13:21:42Z</time>
      </trkpt>
      <trkpt lat="46.72104" lon="5.96838">
        <ele>633</ele>
        <time>2021-02-15T13:21:46Z</time>
      </trkpt>
      <trkpt lat="46.72099" lon="5.9684">
        <ele>634.7</ele>
        <time>2021-02-15T13:21:49Z</time>
      </trkpt>
      <trkpt lat="46.72094" lon="5.96841">
        <ele>636</ele>
        <time>2021-02-15T13:21:52Z</time>
      </trkpt>
      <trkpt lat="46.72089" lon="5.9684">
        <ele>637.4</ele>
        <time>2021-02-15T13:21:56Z</time>
      </trkpt>
      <trkpt lat="46.72085" lon="5.96839">
        <ele>638.5</ele>
        <time>2021-02-15T13:22:02Z</time>
      </trkpt>
      <trkpt lat="46.7208" lon="5.96841">
        <ele>638.6</ele>
        <time>2021-02-15T13:22:09Z</time>
      </trkpt>
      <trkpt lat="46.72075" lon="5.96839">
        <ele>638.8</ele>
        <time>2021-02-15T13:22:16Z</time>
      </trkpt>
      <trkpt lat="46.7207" lon="5.96839">
        <ele>639</ele>
        <time>2021-02-15T13:22:23Z</time>
      </trkpt>
      <trkpt lat="46.72065" lon="5.9684">
        <ele>638.9</ele>
        <time>2021-02-15T13:22:30Z</time>
      </trkpt>
      <trkpt lat="46.72059" lon="5.96839">
        <ele>638.7</ele>
        <time>2021-02-15T13:22:35Z</time>
      </trkpt>
      <trkpt lat="46.72055" lon="5.96838">
        <ele>638.7</ele>
        <time>2021-02-15T13:22:39Z</time>
      </trkpt>
      <trkpt lat="46.7205" lon="5.96837">
        <ele>638.6</ele>
        <time>2021-02-15T13:22:43Z</time>
      </trkpt>
      <trkpt lat="46.72045" lon="5.9684">
        <ele>641.9</ele>
        <time>2021-02-15T13:22:45Z</time>
      </trkpt>
      <trkpt lat="46.7204" lon="5.96841">
        <ele>644.6</ele>
        <time>2021-02-15T13:22:49Z</time>
      </trkpt>
      <trkpt lat="46.72035" lon="5.9684">
        <ele>646.6</ele>
        <time>2021-02-15T13:22:55Z</time>
      </trkpt>
      <trkpt lat="46.7203" lon="5.9684">
        <ele>647.2</ele>
        <time>2021-02-15T13:23:00Z</time>
      </trkpt>
      <trkpt lat="46.72025" lon="5.9684">
        <ele>647</ele>
        <time>2021-02-15T13:23:05Z</time>
      </trkpt>
      <trkpt lat="46.7202" lon="5.96838">
        <ele>646.7</ele>
        <time>2021-02-15T13:23:09Z</time>
      </trkpt>
      <trkpt lat="46.72015" lon="5.96837">
        <ele>646</ele>
        <time>2021-02-15T13:23:14Z</time>
      </trkpt>
      <trkpt lat="46.7201" lon="5.96835">
        <ele>645.2</ele>
        <time>2021-02-15T13:23:19Z</time>
      </trkpt>
      <trkpt lat="46.72005" lon="5.96833">
        <ele>644.5</ele>
        <time>2021-02-15T13:23:23Z</time>
      </trkpt>
      <trkpt lat="46.72" lon="5.96832">
        <ele>643.6</ele>
        <time>2021-02-15T13:23:27Z</time>
      </trkpt>
      <trkpt lat="46.71995" lon="5.9683">
        <ele>642.6</ele>
        <time>2021-02-15T13:23:32Z</time>
      </trkpt>
      <trkpt lat="46.7199" lon="5.96828">
        <ele>641.8</ele>
        <time>2021-02-15T13:23:36Z</time>
      </trkpt>
      <trkpt lat="46.71985" lon="5.96827">
        <ele>641.3</ele>
        <time>2021-02-15T13:23:40Z</time>
      </trkpt>
      <trkpt lat="46.71979" lon="5.96826">
        <ele>640.7</ele>
        <time>2021-02-15T13:23:45Z</time>
      </trkpt>
      <trkpt lat="46.71975" lon="5.96823">
        <ele>640.1</ele>
        <time>2021-02-15T13:23:49Z</time>
      </trkpt>
      <trkpt lat="46.7197" lon="5.96821">
        <ele>639.3</ele>
        <time>2021-02-15T13:23:55Z</time>
      </trkpt>
      <trkpt lat="46.71965" lon="5.96819">
        <ele>638.5</ele>
        <time>2021-02-15T13:24:00Z</time>
      </trkpt>
      <trkpt lat="46.71958" lon="5.96823">
        <ele>640.9</ele>
        <time>2021-02-15T13:24:03Z</time>
      </trkpt>
      <trkpt lat="46.71953" lon="5.96825">
        <ele>642.6</ele>
        <time>2021-02-15T13:24:06Z</time>
      </trkpt>
      <trkpt lat="46.71949" lon="5.96823">
        <ele>644.5</ele>
        <time>2021-02-15T13:24:12Z</time>
      </trkpt>
      <trkpt lat="46.71944" lon="5.96821">
        <ele>645.2</ele>
        <time>2021-02-15T13:24:24Z</time>
      </trkpt>
      <trkpt lat="46.71939" lon="5.96819">
        <ele>645.2</ele>
        <time>2021-02-15T13:24:31Z</time>
      </trkpt>
      <trkpt lat="46.71934" lon="5.96819">
        <ele>645</ele>
        <time>2021-02-15T13:24:37Z</time>
      </trkpt>
      <trkpt lat="46.71929" lon="5.96819">
        <ele>644.7</ele>
        <time>2021-02-15T13:24:43Z</time>
      </trkpt>
      <trkpt lat="46.71923" lon="5.96819">
        <ele>644.5</ele>
        <time>2021-02-15T13:24:48Z</time>
      </trkpt>
      <trkpt lat="46.71918" lon="5.96818">
        <ele>644.4</ele>
        <time>2021-02-15T13:24:52Z</time>
      </trkpt>
      <trkpt lat="46.71913" lon="5.96819">
        <ele>644.2</ele>
        <time>2021-02-15T13:24:56Z</time>
      </trkpt>
      <trkpt lat="46.71908" lon="5.9682">
        <ele>644.1</ele>
        <time>2021-02-15T13:25:00Z</time>
      </trkpt>
      <trkpt lat="46.71903" lon="5.9682">
        <ele>644.3</ele>
        <time>2021-02-15T13:25:04Z</time>
      </trkpt>
      <trkpt lat="46.71897" lon="5.96819">
        <ele>644.3</ele>
        <time>2021-02-15T13:25:09Z</time>
      </trkpt>
      <trkpt lat="46.71893" lon="5.96817">
        <ele>644.3</ele>
        <time>2021-02-15T13:25:13Z</time>
      </trkpt>
      <trkpt lat="46.71888" lon="5.96816">
        <ele>644.3</ele>
        <time>2021-02-15T13:25:18Z</time>
      </trkpt>
      <trkpt lat="46.71883" lon="5.96815">
        <ele>644</ele>
        <time>2021-02-15T13:25:23Z</time>
      </trkpt>
      <trkpt lat="46.71879" lon="5.96814">
        <ele>643.5</ele>
        <time>2021-02-15T13:25:28Z</time>
      </trkpt>
      <trkpt lat="46.71874" lon="5.96812">
        <ele>643.1</ele>
        <time>2021-02-15T13:25:32Z</time>
      </trkpt>
      <trkpt lat="46.71869" lon="5.96811">
        <ele>642.6</ele>
        <time>2021-02-15T13:25:36Z</time>
      </trkpt>
      <trkpt lat="46.71863" lon="5.96811">
        <ele>642.1</ele>
        <time>2021-02-15T13:25:40Z</time>
      </trkpt>
      <trkpt lat="46.71859" lon="5.96811">
        <ele>641.7</ele>
        <time>2021-02-15T13:25:44Z</time>
      </trkpt>
      <trkpt lat="46.71855" lon="5.96808">
        <ele>641</ele>
        <time>2021-02-15T13:25:49Z</time>
      </trkpt>
      <trkpt lat="46.71851" lon="5.96805">
        <ele>640.4</ele>
        <time>2021-02-15T13:25:54Z</time>
      </trkpt>
      <trkpt lat="46.71846" lon="5.96803">
        <ele>639.8</ele>
        <time>2021-02-15T13:25:58Z</time>
      </trkpt>
      <trkpt lat="46.71842" lon="5.96801">
        <ele>639.6</ele>
        <time>2021-02-15T13:26:01Z</time>
      </trkpt>
      <trkpt lat="46.71837" lon="5.96797">
        <ele>639</ele>
        <time>2021-02-15T13:26:06Z</time>
      </trkpt>
      <trkpt lat="46.71834" lon="5.96792">
        <ele>638.5</ele>
        <time>2021-02-15T13:26:10Z</time>
      </trkpt>
      <trkpt lat="46.71829" lon="5.96786">
        <ele>638.9</ele>
        <time>2021-02-15T13:26:15Z</time>
      </trkpt>
      <trkpt lat="46.71824" lon="5.96783">
        <ele>638.7</ele>
        <time>2021-02-15T13:26:19Z</time>
      </trkpt>
      <trkpt lat="46.7182" lon="5.96779">
        <ele>638.6</ele>
        <time>2021-02-15T13:26:24Z</time>
      </trkpt>
      <trkpt lat="46.71815" lon="5.96776">
        <ele>638.3</ele>
        <time>2021-02-15T13:26:28Z</time>
      </trkpt>
      <trkpt lat="46.7181" lon="5.96774">
        <ele>639.3</ele>
        <time>2021-02-15T13:26:31Z</time>
      </trkpt>
      <trkpt lat="46.71804" lon="5.96772">
        <ele>641</ele>
        <time>2021-02-15T13:26:35Z</time>
      </trkpt>
      <trkpt lat="46.71799" lon="5.96771">
        <ele>643.8</ele>
        <time>2021-02-15T13:26:40Z</time>
      </trkpt>
      <trkpt lat="46.71794" lon="5.96771">
        <ele>645.9</ele>
        <time>2021-02-15T13:26:47Z</time>
      </trkpt>
      <trkpt lat="46.71791" lon="5.96765">
        <ele>646.2</ele>
        <time>2021-02-15T13:26:53Z</time>
      </trkpt>
      <trkpt lat="46.71786" lon="5.96761">
        <ele>646.3</ele>
        <time>2021-02-15T13:26:59Z</time>
      </trkpt>
      <trkpt lat="46.71781" lon="5.96759">
        <ele>646.5</ele>
        <time>2021-02-15T13:27:04Z</time>
      </trkpt>
      <trkpt lat="46.71775" lon="5.96759">
        <ele>646.9</ele>
        <time>2021-02-15T13:27:09Z</time>
      </trkpt>
      <trkpt lat="46.7177" lon="5.96757">
        <ele>646.8</ele>
        <time>2021-02-15T13:27:13Z</time>
      </trkpt>
      <trkpt lat="46.71765" lon="5.96754">
        <ele>647.1</ele>
        <time>2021-02-15T13:27:17Z</time>
      </trkpt>
      <trkpt lat="46.71761" lon="5.9675">
        <ele>647.8</ele>
        <time>2021-02-15T13:27:21Z</time>
      </trkpt>
      <trkpt lat="46.71757" lon="5.96745">
        <ele>648.7</ele>
        <time>2021-02-15T13:27:26Z</time>
      </trkpt>
      <trkpt lat="46.71752" lon="5.96742">
        <ele>649.6</ele>
        <time>2021-02-15T13:27:31Z</time>
      </trkpt>
      <trkpt lat="46.71749" lon="5.96737">
        <ele>650.4</ele>
        <time>2021-02-15T13:27:35Z</time>
      </trkpt>
      <trkpt lat="46.71746" lon="5.96732">
        <ele>650.8</ele>
        <time>2021-02-15T13:27:39Z</time>
      </trkpt>
      <trkpt lat="46.71742" lon="5.96726">
        <ele>650.7</ele>
        <time>2021-02-15T13:27:44Z</time>
      </trkpt>
      <trkpt lat="46.71738" lon="5.96722">
        <ele>650.4</ele>
        <time>2021-02-15T13:27:48Z</time>
      </trkpt>
      <trkpt lat="46.71732" lon="5.9672">
        <ele>650.4</ele>
        <time>2021-02-15T13:27:52Z</time>
      </trkpt>
      <trkpt lat="46.71726" lon="5.9672">
        <ele>650.9</ele>
        <time>2021-02-15T13:27:55Z</time>
      </trkpt>
      <trkpt lat="46.71721" lon="5.96718">
        <ele>651.5</ele>
        <time>2021-02-15T13:27:58Z</time>
      </trkpt>
      <trkpt lat="46.71716" lon="5.96716">
        <ele>651.7</ele>
        <time>2021-02-15T13:28:01Z</time>
      </trkpt>
      <trkpt lat="46.71711" lon="5.96713">
        <ele>651.6</ele>
        <time>2021-02-15T13:28:05Z</time>
      </trkpt>
      <trkpt lat="46.71706" lon="5.9671">
        <ele>651.4</ele>
        <time>2021-02-15T13:28:10Z</time>
      </trkpt>
      <trkpt lat="46.71701" lon="5.96707">
        <ele>650.7</ele>
        <time>2021-02-15T13:28:15Z</time>
      </trkpt>
      <trkpt lat="46.71697" lon="5.96702">
        <ele>650.3</ele>
        <time>2021-02-15T13:28:21Z</time>
      </trkpt>
      <trkpt lat="46.71693" lon="5.96699">
        <ele>650</ele>
        <time>2021-02-15T13:28:26Z</time>
      </trkpt>
      <trkpt lat="46.71688" lon="5.96695">
        <ele>649.8</ele>
        <time>2021-02-15T13:28:31Z</time>
      </trkpt>
      <trkpt lat="46.71684" lon="5.96692">
        <ele>649.5</ele>
        <time>2021-02-15T13:28:36Z</time>
      </trkpt>
      <trkpt lat="46.7168" lon="5.96689">
        <ele>649.5</ele>
        <time>2021-02-15T13:28:40Z</time>
      </trkpt>
      <trkpt lat="46.71675" lon="5.96685">
        <ele>649.7</ele>
        <time>2021-02-15T13:28:45Z</time>
      </trkpt>
      <trkpt lat="46.7167" lon="5.96683">
        <ele>650.9</ele>
        <time>2021-02-15T13:28:50Z</time>
      </trkpt>
      <trkpt lat="46.71665" lon="5.96681">
        <ele>651.5</ele>
        <time>2021-02-15T13:28:54Z</time>
      </trkpt>
      <trkpt lat="46.71661" lon="5.96679">
        <ele>652</ele>
        <time>2021-02-15T13:28:58Z</time>
      </trkpt>
      <trkpt lat="46.71655" lon="5.96677">
        <ele>652.2</ele>
        <time>2021-02-15T13:29:03Z</time>
      </trkpt>
      <trkpt lat="46.71651" lon="5.96675">
        <ele>652.1</ele>
        <time>2021-02-15T13:29:07Z</time>
      </trkpt>
      <trkpt lat="46.71646" lon="5.96674">
        <ele>652.1</ele>
        <time>2021-02-15T13:29:11Z</time>
      </trkpt>
      <trkpt lat="46.71642" lon="5.96672">
        <ele>651.8</ele>
        <time>2021-02-15T13:29:16Z</time>
      </trkpt>
      <trkpt lat="46.71637" lon="5.96669">
        <ele>651.1</ele>
        <time>2021-02-15T13:29:22Z</time>
      </trkpt>
      <trkpt lat="46.71633" lon="5.96663">
        <ele>650.4</ele>
        <time>2021-02-15T13:29:26Z</time>
      </trkpt>
      <trkpt lat="46.71629" lon="5.9666">
        <ele>650.2</ele>
        <time>2021-02-15T13:29:31Z</time>
      </trkpt>
      <trkpt lat="46.71624" lon="5.96656">
        <ele>650.5</ele>
        <time>2021-02-15T13:29:36Z</time>
      </trkpt>
      <trkpt lat="46.71619" lon="5.96653">
        <ele>651</ele>
        <time>2021-02-15T13:29:40Z</time>
      </trkpt>
      <trkpt lat="46.71614" lon="5.96651">
        <ele>651.8</ele>
        <time>2021-02-15T13:29:45Z</time>
      </trkpt>
      <trkpt lat="46.71609" lon="5.9665">
        <ele>652</ele>
        <time>2021-02-15T13:29:50Z</time>
      </trkpt>
      <trkpt lat="46.71604" lon="5.96648">
        <ele>652.2</ele>
        <time>2021-02-15T13:29:55Z</time>
      </trkpt>
      <trkpt lat="46.71599" lon="5.96646">
        <ele>652.5</ele>
        <time>2021-02-15T13:30:00Z</time>
      </trkpt>
      <trkpt lat="46.71594" lon="5.96645">
        <ele>653</ele>
        <time>2021-02-15T13:30:06Z</time>
      </trkpt>
      <trkpt lat="46.71589" lon="5.96643">
        <ele>653.3</ele>
        <time>2021-02-15T13:30:12Z</time>
      </trkpt>
      <trkpt lat="46.71584" lon="5.9664">
        <ele>653.6</ele>
        <time>2021-02-15T13:30:16Z</time>
      </trkpt>
      <trkpt lat="46.7158" lon="5.96635">
        <ele>653.9</ele>
        <time>2021-02-15T13:30:20Z</time>
      </trkpt>
      <trkpt lat="46.71575" lon="5.96632">
        <ele>654.1</ele>
        <time>2021-02-15T13:30:25Z</time>
      </trkpt>
      <trkpt lat="46.7157" lon="5.96631">
        <ele>654.5</ele>
        <time>2021-02-15T13:30:30Z</time>
      </trkpt>
      <trkpt lat="46.71565" lon="5.9663">
        <ele>654.9</ele>
        <time>2021-02-15T13:30:36Z</time>
      </trkpt>
      <trkpt lat="46.7156" lon="5.96631">
        <ele>655.4</ele>
        <time>2021-02-15T13:30:40Z</time>
      </trkpt>
      <trkpt lat="46.71554" lon="5.96627">
        <ele>656</ele>
        <time>2021-02-15T13:30:45Z</time>
      </trkpt>
      <trkpt lat="46.71549" lon="5.96627">
        <ele>657.4</ele>
        <time>2021-02-15T13:30:49Z</time>
      </trkpt>
      <trkpt lat="46.71543" lon="5.9663">
        <ele>659.3</ele>
        <time>2021-02-15T13:30:52Z</time>
      </trkpt>
      <trkpt lat="46.71539" lon="5.96631">
        <ele>661.1</ele>
        <time>2021-02-15T13:30:55Z</time>
      </trkpt>
      <trkpt lat="46.71533" lon="5.9663">
        <ele>662.4</ele>
        <time>2021-02-15T13:30:59Z</time>
      </trkpt>
      <trkpt lat="46.71528" lon="5.96629">
        <ele>663.7</ele>
        <time>2021-02-15T13:31:03Z</time>
      </trkpt>
      <trkpt lat="46.71523" lon="5.96627">
        <ele>664.8</ele>
        <time>2021-02-15T13:31:08Z</time>
      </trkpt>
      <trkpt lat="46.71518" lon="5.96624">
        <ele>665.2</ele>
        <time>2021-02-15T13:31:12Z</time>
      </trkpt>
      <trkpt lat="46.71512" lon="5.96624">
        <ele>666.3</ele>
        <time>2021-02-15T13:31:17Z</time>
      </trkpt>
      <trkpt lat="46.71508" lon="5.96622">
        <ele>666.5</ele>
        <time>2021-02-15T13:31:22Z</time>
      </trkpt>
      <trkpt lat="46.71502" lon="5.96619">
        <ele>667.1</ele>
        <time>2021-02-15T13:31:27Z</time>
      </trkpt>
      <trkpt lat="46.71497" lon="5.96618">
        <ele>667.7</ele>
        <time>2021-02-15T13:31:31Z</time>
      </trkpt>
      <trkpt lat="46.71493" lon="5.96616">
        <ele>668.2</ele>
        <time>2021-02-15T13:31:35Z</time>
      </trkpt>
      <trkpt lat="46.71488" lon="5.96612">
        <ele>668.4</ele>
        <time>2021-02-15T13:31:40Z</time>
      </trkpt>
      <trkpt lat="46.71484" lon="5.96609">
        <ele>668.6</ele>
        <time>2021-02-15T13:31:45Z</time>
      </trkpt>
      <trkpt lat="46.7148" lon="5.96606">
        <ele>668.6</ele>
        <time>2021-02-15T13:31:50Z</time>
      </trkpt>
      <trkpt lat="46.71475" lon="5.96605">
        <ele>669.7</ele>
        <time>2021-02-15T13:31:55Z</time>
      </trkpt>
      <trkpt lat="46.7147" lon="5.96605">
        <ele>670.8</ele>
        <time>2021-02-15T13:32:00Z</time>
      </trkpt>
      <trkpt lat="46.71464" lon="5.96604">
        <ele>671.8</ele>
        <time>2021-02-15T13:32:05Z</time>
      </trkpt>
      <trkpt lat="46.71459" lon="5.96605">
        <ele>673.9</ele>
        <time>2021-02-15T13:32:10Z</time>
      </trkpt>
      <trkpt lat="46.71454" lon="5.96604">
        <ele>676.1</ele>
        <time>2021-02-15T13:32:18Z</time>
      </trkpt>
      <trkpt lat="46.7145" lon="5.96602">
        <ele>677.5</ele>
        <time>2021-02-15T13:32:24Z</time>
      </trkpt>
      <trkpt lat="46.71445" lon="5.96599">
        <ele>678.4</ele>
        <time>2021-02-15T13:32:29Z</time>
      </trkpt>
      <trkpt lat="46.7144" lon="5.96595">
        <ele>678.8</ele>
        <time>2021-02-15T13:32:35Z</time>
      </trkpt>
      <trkpt lat="46.71435" lon="5.96593">
        <ele>678.7</ele>
        <time>2021-02-15T13:32:40Z</time>
      </trkpt>
      <trkpt lat="46.7143" lon="5.96592">
        <ele>678.6</ele>
        <time>2021-02-15T13:32:44Z</time>
      </trkpt>
      <trkpt lat="46.71425" lon="5.96591">
        <ele>678.2</ele>
        <time>2021-02-15T13:32:48Z</time>
      </trkpt>
      <trkpt lat="46.71419" lon="5.9659">
        <ele>678</ele>
        <time>2021-02-15T13:32:52Z</time>
      </trkpt>
      <trkpt lat="46.71413" lon="5.9659">
        <ele>678.9</ele>
        <time>2021-02-15T13:32:56Z</time>
      </trkpt>
      <trkpt lat="46.71408" lon="5.96587">
        <ele>679.8</ele>
        <time>2021-02-15T13:33:00Z</time>
      </trkpt>
      <trkpt lat="46.71403" lon="5.96588">
        <ele>680.8</ele>
        <time>2021-02-15T13:33:04Z</time>
      </trkpt>
      <trkpt lat="46.71398" lon="5.96589">
        <ele>681.9</ele>
        <time>2021-02-15T13:33:09Z</time>
      </trkpt>
      <trkpt lat="46.71393" lon="5.96589">
        <ele>682.2</ele>
        <time>2021-02-15T13:33:15Z</time>
      </trkpt>
      <trkpt lat="46.71388" lon="5.9659">
        <ele>682.3</ele>
        <time>2021-02-15T13:33:20Z</time>
      </trkpt>
      <trkpt lat="46.71383" lon="5.96588">
        <ele>682.1</ele>
        <time>2021-02-15T13:33:25Z</time>
      </trkpt>
      <trkpt lat="46.71379" lon="5.96586">
        <ele>681.9</ele>
        <time>2021-02-15T13:33:29Z</time>
      </trkpt>
      <trkpt lat="46.71374" lon="5.96584">
        <ele>681.6</ele>
        <time>2021-02-15T13:33:32Z</time>
      </trkpt>
      <trkpt lat="46.71369" lon="5.96581">
        <ele>681.1</ele>
        <time>2021-02-15T13:33:36Z</time>
      </trkpt>
      <trkpt lat="46.71365" lon="5.96579">
        <ele>680.1</ele>
        <time>2021-02-15T13:33:42Z</time>
      </trkpt>
      <trkpt lat="46.7136" lon="5.96577">
        <ele>678.8</ele>
        <time>2021-02-15T13:33:48Z</time>
      </trkpt>
      <trkpt lat="46.71355" lon="5.96575">
        <ele>677.9</ele>
        <time>2021-02-15T13:33:53Z</time>
      </trkpt>
      <trkpt lat="46.71351" lon="5.96572">
        <ele>677.1</ele>
        <time>2021-02-15T13:33:58Z</time>
      </trkpt>
      <trkpt lat="46.71345" lon="5.96572">
        <ele>677.7</ele>
        <time>2021-02-15T13:34:02Z</time>
      </trkpt>
      <trkpt lat="46.7134" lon="5.9657">
        <ele>678.3</ele>
        <time>2021-02-15T13:34:06Z</time>
      </trkpt>
      <trkpt lat="46.71334" lon="5.96568">
        <ele>678.5</ele>
        <time>2021-02-15T13:34:10Z</time>
      </trkpt>
      <trkpt lat="46.71329" lon="5.96566">
        <ele>679.2</ele>
        <time>2021-02-15T13:34:14Z</time>
      </trkpt>
      <trkpt lat="46.71324" lon="5.96566">
        <ele>680.1</ele>
        <time>2021-02-15T13:34:17Z</time>
      </trkpt>
      <trkpt lat="46.71319" lon="5.96568">
        <ele>681.7</ele>
        <time>2021-02-15T13:34:21Z</time>
      </trkpt>
      <trkpt lat="46.71314" lon="5.96569">
        <ele>683.4</ele>
        <time>2021-02-15T13:34:25Z</time>
      </trkpt>
      <trkpt lat="46.71309" lon="5.96571">
        <ele>684.9</ele>
        <time>2021-02-15T13:34:28Z</time>
      </trkpt>
      <trkpt lat="46.71305" lon="5.96573">
        <ele>686.9</ele>
        <time>2021-02-15T13:34:32Z</time>
      </trkpt>
      <trkpt lat="46.71299" lon="5.96573">
        <ele>688.6</ele>
        <time>2021-02-15T13:34:37Z</time>
      </trkpt>
      <trkpt lat="46.71294" lon="5.96571">
        <ele>690.5</ele>
        <time>2021-02-15T13:34:43Z</time>
      </trkpt>
      <trkpt lat="46.71289" lon="5.96571">
        <ele>692.1</ele>
        <time>2021-02-15T13:34:49Z</time>
      </trkpt>
      <trkpt lat="46.71284" lon="5.96571">
        <ele>692.5</ele>
        <time>2021-02-15T13:34:53Z</time>
      </trkpt>
      <trkpt lat="46.71278" lon="5.96571">
        <ele>692.6</ele>
        <time>2021-02-15T13:34:57Z</time>
      </trkpt>
      <trkpt lat="46.71274" lon="5.96569">
        <ele>692.5</ele>
        <time>2021-02-15T13:35:01Z</time>
      </trkpt>
      <trkpt lat="46.71269" lon="5.96568">
        <ele>692.1</ele>
        <time>2021-02-15T13:35:05Z</time>
      </trkpt>
      <trkpt lat="46.71264" lon="5.96567">
        <ele>691.1</ele>
        <time>2021-02-15T13:35:09Z</time>
      </trkpt>
      <trkpt lat="46.71258" lon="5.96568">
        <ele>689.7</ele>
        <time>2021-02-15T13:35:13Z</time>
      </trkpt>
      <trkpt lat="46.71253" lon="5.9657">
        <ele>688</ele>
        <time>2021-02-15T13:35:19Z</time>
      </trkpt>
      <trkpt lat="46.71248" lon="5.96569">
        <ele>686.5</ele>
        <time>2021-02-15T13:35:24Z</time>
      </trkpt>
      <trkpt lat="46.71242" lon="5.96569">
        <ele>685.1</ele>
        <time>2021-02-15T13:35:29Z</time>
      </trkpt>
      <trkpt lat="46.71237" lon="5.96567">
        <ele>683.7</ele>
        <time>2021-02-15T13:35:34Z</time>
      </trkpt>
      <trkpt lat="46.71233" lon="5.96564">
        <ele>682.3</ele>
        <time>2021-02-15T13:35:40Z</time>
      </trkpt>
      <trkpt lat="46.71229" lon="5.96562">
        <ele>681.3</ele>
        <time>2021-02-15T13:35:44Z</time>
      </trkpt>
      <trkpt lat="46.71223" lon="5.96564">
        <ele>681.1</ele>
        <time>2021-02-15T13:35:48Z</time>
      </trkpt>
      <trkpt lat="46.71218" lon="5.96567">
        <ele>680.6</ele>
        <time>2021-02-15T13:35:53Z</time>
      </trkpt>
      <trkpt lat="46.71213" lon="5.96569">
        <ele>680.6</ele>
        <time>2021-02-15T13:35:57Z</time>
      </trkpt>
      <trkpt lat="46.71209" lon="5.9657">
        <ele>680.2</ele>
        <time>2021-02-15T13:36:01Z</time>
      </trkpt>
      <trkpt lat="46.71204" lon="5.9657">
        <ele>679.5</ele>
        <time>2021-02-15T13:36:06Z</time>
      </trkpt>
      <trkpt lat="46.712" lon="5.96568">
        <ele>678.5</ele>
        <time>2021-02-15T13:36:10Z</time>
      </trkpt>
      <trkpt lat="46.71195" lon="5.96564">
        <ele>677.4</ele>
        <time>2021-02-15T13:36:14Z</time>
      </trkpt>
      <trkpt lat="46.71191" lon="5.96563">
        <ele>676.8</ele>
        <time>2021-02-15T13:36:18Z</time>
      </trkpt>
      <trkpt lat="46.71186" lon="5.96564">
        <ele>676.2</ele>
        <time>2021-02-15T13:36:22Z</time>
      </trkpt>
      <trkpt lat="46.71181" lon="5.96567">
        <ele>676.4</ele>
        <time>2021-02-15T13:36:27Z</time>
      </trkpt>
      <trkpt lat="46.71176" lon="5.96568">
        <ele>676.4</ele>
        <time>2021-02-15T13:36:32Z</time>
      </trkpt>
      <trkpt lat="46.71172" lon="5.96568">
        <ele>676.2</ele>
        <time>2021-02-15T13:36:36Z</time>
      </trkpt>
      <trkpt lat="46.71166" lon="5.96567">
        <ele>675.9</ele>
        <time>2021-02-15T13:36:41Z</time>
      </trkpt>
      <trkpt lat="46.71162" lon="5.96567">
        <ele>675.5</ele>
        <time>2021-02-15T13:36:46Z</time>
      </trkpt>
      <trkpt lat="46.71157" lon="5.96568">
        <ele>675.3</ele>
        <time>2021-02-15T13:36:51Z</time>
      </trkpt>
      <trkpt lat="46.71152" lon="5.9657">
        <ele>675.5</ele>
        <time>2021-02-15T13:36:55Z</time>
      </trkpt>
      <trkpt lat="46.71147" lon="5.96571">
        <ele>676.1</ele>
        <time>2021-02-15T13:36:58Z</time>
      </trkpt>
      <trkpt lat="46.71142" lon="5.96569">
        <ele>676.7</ele>
        <time>2021-02-15T13:37:02Z</time>
      </trkpt>
      <trkpt lat="46.71138" lon="5.96569">
        <ele>677.1</ele>
        <time>2021-02-15T13:37:06Z</time>
      </trkpt>
      <trkpt lat="46.71132" lon="5.96568">
        <ele>677.7</ele>
        <time>2021-02-15T13:37:13Z</time>
      </trkpt>
      <trkpt lat="46.71127" lon="5.96567">
        <ele>677.6</ele>
        <time>2021-02-15T13:37:17Z</time>
      </trkpt>
      <trkpt lat="46.71122" lon="5.96566">
        <ele>677.5</ele>
        <time>2021-02-15T13:37:22Z</time>
      </trkpt>
      <trkpt lat="46.71118" lon="5.96563">
        <ele>678.1</ele>
        <time>2021-02-15T13:37:30Z</time>
      </trkpt>
      <trkpt lat="46.71112" lon="5.96566">
        <ele>680.2</ele>
        <time>2021-02-15T13:38:19Z</time>
      </trkpt>
      <trkpt lat="46.71108" lon="5.96568">
        <ele>681.8</ele>
        <time>2021-02-15T13:38:25Z</time>
      </trkpt>
      <trkpt lat="46.71103" lon="5.9657">
        <ele>682</ele>
        <time>2021-02-15T13:38:42Z</time>
      </trkpt>
      <trkpt lat="46.711" lon="5.96575">
        <ele>682.7</ele>
        <time>2021-02-15T13:38:49Z</time>
      </trkpt>
      <trkpt lat="46.711" lon="5.96566">
        <ele>684.8</ele>
        <time>2021-02-15T13:39:05Z</time>
      </trkpt>
      <trkpt lat="46.711" lon="5.96558">
        <ele>685.8</ele>
        <time>2021-02-15T13:39:08Z</time>
      </trkpt>
      <trkpt lat="46.71102" lon="5.96553">
        <ele>688</ele>
        <time>2021-02-15T13:39:20Z</time>
      </trkpt>
      <trkpt lat="46.71098" lon="5.96549">
        <ele>688.9</ele>
        <time>2021-02-15T13:39:30Z</time>
      </trkpt>
      <trkpt lat="46.71093" lon="5.9655">
        <ele>690.1</ele>
        <time>2021-02-15T13:39:39Z</time>
      </trkpt>
      <trkpt lat="46.71089" lon="5.96548">
        <ele>690.5</ele>
        <time>2021-02-15T13:39:46Z</time>
      </trkpt>
      <trkpt lat="46.71085" lon="5.96543">
        <ele>689.9</ele>
        <time>2021-02-15T13:39:53Z</time>
      </trkpt>
      <trkpt lat="46.71081" lon="5.96542">
        <ele>689.1</ele>
        <time>2021-02-15T13:40:04Z</time>
      </trkpt>
      <trkpt lat="46.71076" lon="5.96539">
        <ele>689.1</ele>
        <time>2021-02-15T13:40:09Z</time>
      </trkpt>
      <trkpt lat="46.71072" lon="5.96536">
        <ele>689.2</ele>
        <time>2021-02-15T13:40:13Z</time>
      </trkpt>
      <trkpt lat="46.71067" lon="5.96532">
        <ele>689.2</ele>
        <time>2021-02-15T13:40:18Z</time>
      </trkpt>
      <trkpt lat="46.71062" lon="5.96529">
        <ele>689.1</ele>
        <time>2021-02-15T13:40:23Z</time>
      </trkpt>
      <trkpt lat="46.71057" lon="5.96528">
        <ele>688.7</ele>
        <time>2021-02-15T13:40:28Z</time>
      </trkpt>
      <trkpt lat="46.71054" lon="5.96523">
        <ele>688</ele>
        <time>2021-02-15T13:40:33Z</time>
      </trkpt>
      <trkpt lat="46.71051" lon="5.96518">
        <ele>687.3</ele>
        <time>2021-02-15T13:40:37Z</time>
      </trkpt>
      <trkpt lat="46.71047" lon="5.96514">
        <ele>686.8</ele>
        <time>2021-02-15T13:40:41Z</time>
      </trkpt>
      <trkpt lat="46.71044" lon="5.96507">
        <ele>686.7</ele>
        <time>2021-02-15T13:40:46Z</time>
      </trkpt>
      <trkpt lat="46.71041" lon="5.96501">
        <ele>687</ele>
        <time>2021-02-15T13:40:50Z</time>
      </trkpt>
      <trkpt lat="46.71038" lon="5.96496">
        <ele>686.9</ele>
        <time>2021-02-15T13:40:54Z</time>
      </trkpt>
      <trkpt lat="46.71035" lon="5.96489">
        <ele>686.7</ele>
        <time>2021-02-15T13:40:59Z</time>
      </trkpt>
      <trkpt lat="46.71033" lon="5.96483">
        <ele>686.8</ele>
        <time>2021-02-15T13:41:04Z</time>
      </trkpt>
      <trkpt lat="46.7103" lon="5.96476">
        <ele>687</ele>
        <time>2021-02-15T13:41:09Z</time>
      </trkpt>
      <trkpt lat="46.71026" lon="5.96472">
        <ele>687.2</ele>
        <time>2021-02-15T13:41:13Z</time>
      </trkpt>
      <trkpt lat="46.71023" lon="5.96466">
        <ele>687.3</ele>
        <time>2021-02-15T13:41:17Z</time>
      </trkpt>
      <trkpt lat="46.7102" lon="5.96461">
        <ele>687.9</ele>
        <time>2021-02-15T13:41:22Z</time>
      </trkpt>
      <trkpt lat="46.71016" lon="5.96455">
        <ele>688.8</ele>
        <time>2021-02-15T13:41:27Z</time>
      </trkpt>
      <trkpt lat="46.71012" lon="5.9645">
        <ele>690</ele>
        <time>2021-02-15T13:41:31Z</time>
      </trkpt>
      <trkpt lat="46.71009" lon="5.96445">
        <ele>691.3</ele>
        <time>2021-02-15T13:41:35Z</time>
      </trkpt>
      <trkpt lat="46.71006" lon="5.9644">
        <ele>692.2</ele>
        <time>2021-02-15T13:41:39Z</time>
      </trkpt>
      <trkpt lat="46.71003" lon="5.96435">
        <ele>692.7</ele>
        <time>2021-02-15T13:41:43Z</time>
      </trkpt>
      <trkpt lat="46.70999" lon="5.96429">
        <ele>692.8</ele>
        <time>2021-02-15T13:41:48Z</time>
      </trkpt>
      <trkpt lat="46.70995" lon="5.96424">
        <ele>693.1</ele>
        <time>2021-02-15T13:41:53Z</time>
      </trkpt>
      <trkpt lat="46.70993" lon="5.96418">
        <ele>693.7</ele>
        <time>2021-02-15T13:41:59Z</time>
      </trkpt>
      <trkpt lat="46.70991" lon="5.96412">
        <ele>693.6</ele>
        <time>2021-02-15T13:42:04Z</time>
      </trkpt>
      <trkpt lat="46.70988" lon="5.96407">
        <ele>693.6</ele>
        <time>2021-02-15T13:42:09Z</time>
      </trkpt>
      <trkpt lat="46.70984" lon="5.96402">
        <ele>693.6</ele>
        <time>2021-02-15T13:42:14Z</time>
      </trkpt>
      <trkpt lat="46.70982" lon="5.96396">
        <ele>693.5</ele>
        <time>2021-02-15T13:42:19Z</time>
      </trkpt>
      <trkpt lat="46.70978" lon="5.96392">
        <ele>693.7</ele>
        <time>2021-02-15T13:42:24Z</time>
      </trkpt>
      <trkpt lat="46.70973" lon="5.96388">
        <ele>694.1</ele>
        <time>2021-02-15T13:42:29Z</time>
      </trkpt>
      <trkpt lat="46.70969" lon="5.96384">
        <ele>694.8</ele>
        <time>2021-02-15T13:42:34Z</time>
      </trkpt>
      <trkpt lat="46.70965" lon="5.96379">
        <ele>695.2</ele>
        <time>2021-02-15T13:42:38Z</time>
      </trkpt>
      <trkpt lat="46.7096" lon="5.96376">
        <ele>695.6</ele>
        <time>2021-02-15T13:42:42Z</time>
      </trkpt>
      <trkpt lat="46.70956" lon="5.96373">
        <ele>695.7</ele>
        <time>2021-02-15T13:42:46Z</time>
      </trkpt>
      <trkpt lat="46.70952" lon="5.96368">
        <ele>695.7</ele>
        <time>2021-02-15T13:42:51Z</time>
      </trkpt>
      <trkpt lat="46.70948" lon="5.96363">
        <ele>695.5</ele>
        <time>2021-02-15T13:42:56Z</time>
      </trkpt>
      <trkpt lat="46.70944" lon="5.96359">
        <ele>695.2</ele>
        <time>2021-02-15T13:43:00Z</time>
      </trkpt>
      <trkpt lat="46.7094" lon="5.96355">
        <ele>694.4</ele>
        <time>2021-02-15T13:43:04Z</time>
      </trkpt>
      <trkpt lat="46.70935" lon="5.96352">
        <ele>693.7</ele>
        <time>2021-02-15T13:43:08Z</time>
      </trkpt>
      <trkpt lat="46.70931" lon="5.96348">
        <ele>693.1</ele>
        <time>2021-02-15T13:43:12Z</time>
      </trkpt>
      <trkpt lat="46.70927" lon="5.96345">
        <ele>692.3</ele>
        <time>2021-02-15T13:43:16Z</time>
      </trkpt>
      <trkpt lat="46.70922" lon="5.96342">
        <ele>691.7</ele>
        <time>2021-02-15T13:43:20Z</time>
      </trkpt>
      <trkpt lat="46.70918" lon="5.9634">
        <ele>691.2</ele>
        <time>2021-02-15T13:43:25Z</time>
      </trkpt>
      <trkpt lat="46.70913" lon="5.96337">
        <ele>690.7</ele>
        <time>2021-02-15T13:43:30Z</time>
      </trkpt>
      <trkpt lat="46.70908" lon="5.96336">
        <ele>690.4</ele>
        <time>2021-02-15T13:43:34Z</time>
      </trkpt>
      <trkpt lat="46.70904" lon="5.96334">
        <ele>690.1</ele>
        <time>2021-02-15T13:43:38Z</time>
      </trkpt>
      <trkpt lat="46.70899" lon="5.96331">
        <ele>689.8</ele>
        <time>2021-02-15T13:43:43Z</time>
      </trkpt>
      <trkpt lat="46.70894" lon="5.96329">
        <ele>690.2</ele>
        <time>2021-02-15T13:43:48Z</time>
      </trkpt>
      <trkpt lat="46.7089" lon="5.96326">
        <ele>690.4</ele>
        <time>2021-02-15T13:43:53Z</time>
      </trkpt>
      <trkpt lat="46.70885" lon="5.96324">
        <ele>690.9</ele>
        <time>2021-02-15T13:43:57Z</time>
      </trkpt>
      <trkpt lat="46.7088" lon="5.96323">
        <ele>691.3</ele>
        <time>2021-02-15T13:44:02Z</time>
      </trkpt>
      <trkpt lat="46.70875" lon="5.96322">
        <ele>691.4</ele>
        <time>2021-02-15T13:44:06Z</time>
      </trkpt>
      <trkpt lat="46.70871" lon="5.96319">
        <ele>691.3</ele>
        <time>2021-02-15T13:44:11Z</time>
      </trkpt>
      <trkpt lat="46.70867" lon="5.96314">
        <ele>691.4</ele>
        <time>2021-02-15T13:44:17Z</time>
      </trkpt>
      <trkpt lat="46.70863" lon="5.96309">
        <ele>691.4</ele>
        <time>2021-02-15T13:44:22Z</time>
      </trkpt>
      <trkpt lat="46.70858" lon="5.96306">
        <ele>691.4</ele>
        <time>2021-02-15T13:44:27Z</time>
      </trkpt>
      <trkpt lat="46.70853" lon="5.96304">
        <ele>691.7</ele>
        <time>2021-02-15T13:44:30Z</time>
      </trkpt>
      <trkpt lat="46.70848" lon="5.96302">
        <ele>692.2</ele>
        <time>2021-02-15T13:44:34Z</time>
      </trkpt>
      <trkpt lat="46.70843" lon="5.96299">
        <ele>692.6</ele>
        <time>2021-02-15T13:44:38Z</time>
      </trkpt>
      <trkpt lat="46.70839" lon="5.96296">
        <ele>692.9</ele>
        <time>2021-02-15T13:44:43Z</time>
      </trkpt>
      <trkpt lat="46.70834" lon="5.96292">
        <ele>692.8</ele>
        <time>2021-02-15T13:44:48Z</time>
      </trkpt>
      <trkpt lat="46.7083" lon="5.96289">
        <ele>692.6</ele>
        <time>2021-02-15T13:44:51Z</time>
      </trkpt>
      <trkpt lat="46.70824" lon="5.96287">
        <ele>692.7</ele>
        <time>2021-02-15T13:44:55Z</time>
      </trkpt>
      <trkpt lat="46.70819" lon="5.96286">
        <ele>692.9</ele>
        <time>2021-02-15T13:44:59Z</time>
      </trkpt>
      <trkpt lat="46.70814" lon="5.96284">
        <ele>693</ele>
        <time>2021-02-15T13:45:04Z</time>
      </trkpt>
      <trkpt lat="46.70808" lon="5.96282">
        <ele>693.6</ele>
        <time>2021-02-15T13:45:08Z</time>
      </trkpt>
      <trkpt lat="46.70803" lon="5.9628">
        <ele>694.2</ele>
        <time>2021-02-15T13:45:12Z</time>
      </trkpt>
      <trkpt lat="46.70798" lon="5.96279">
        <ele>694.8</ele>
        <time>2021-02-15T13:45:16Z</time>
      </trkpt>
      <trkpt lat="46.70793" lon="5.96278">
        <ele>695.2</ele>
        <time>2021-02-15T13:45:21Z</time>
      </trkpt>
      <trkpt lat="46.70789" lon="5.96275">
        <ele>695.5</ele>
        <time>2021-02-15T13:45:26Z</time>
      </trkpt>
      <trkpt lat="46.70784" lon="5.96272">
        <ele>695.8</ele>
        <time>2021-02-15T13:45:31Z</time>
      </trkpt>
      <trkpt lat="46.70779" lon="5.96269">
        <ele>696.1</ele>
        <time>2021-02-15T13:45:36Z</time>
      </trkpt>
      <trkpt lat="46.70774" lon="5.96266">
        <ele>696.1</ele>
        <time>2021-02-15T13:45:40Z</time>
      </trkpt>
      <trkpt lat="46.70768" lon="5.96265">
        <ele>696.3</ele>
        <time>2021-02-15T13:45:44Z</time>
      </trkpt>
      <trkpt lat="46.70763" lon="5.96263">
        <ele>696.6</ele>
        <time>2021-02-15T13:45:48Z</time>
      </trkpt>
      <trkpt lat="46.70758" lon="5.96264">
        <ele>697.4</ele>
        <time>2021-02-15T13:45:51Z</time>
      </trkpt>
      <trkpt lat="46.70752" lon="5.96263">
        <ele>698.3</ele>
        <time>2021-02-15T13:45:55Z</time>
      </trkpt>
      <trkpt lat="46.70747" lon="5.96261">
        <ele>699.3</ele>
        <time>2021-02-15T13:45:59Z</time>
      </trkpt>
      <trkpt lat="46.70742" lon="5.96258">
        <ele>700.3</ele>
        <time>2021-02-15T13:46:04Z</time>
      </trkpt>
      <trkpt lat="46.70738" lon="5.96254">
        <ele>700.8</ele>
        <time>2021-02-15T13:46:09Z</time>
      </trkpt>
      <trkpt lat="46.70733" lon="5.96252">
        <ele>701.1</ele>
        <time>2021-02-15T13:46:14Z</time>
      </trkpt>
      <trkpt lat="46.70729" lon="5.96248">
        <ele>701.1</ele>
        <time>2021-02-15T13:46:19Z</time>
      </trkpt>
      <trkpt lat="46.70725" lon="5.96245">
        <ele>700.9</ele>
        <time>2021-02-15T13:46:25Z</time>
      </trkpt>
      <trkpt lat="46.70721" lon="5.96242">
        <ele>700.7</ele>
        <time>2021-02-15T13:46:30Z</time>
      </trkpt>
      <trkpt lat="46.70717" lon="5.9624">
        <ele>700.5</ele>
        <time>2021-02-15T13:46:34Z</time>
      </trkpt>
      <trkpt lat="46.70711" lon="5.96237">
        <ele>700.3</ele>
        <time>2021-02-15T13:46:39Z</time>
      </trkpt>
      <trkpt lat="46.70706" lon="5.96236">
        <ele>700.5</ele>
        <time>2021-02-15T13:46:43Z</time>
      </trkpt>
      <trkpt lat="46.707" lon="5.96235">
        <ele>700.5</ele>
        <time>2021-02-15T13:46:48Z</time>
      </trkpt>
      <trkpt lat="46.70695" lon="5.96234">
        <ele>700.7</ele>
        <time>2021-02-15T13:46:51Z</time>
      </trkpt>
      <trkpt lat="46.7069" lon="5.96233">
        <ele>701.1</ele>
        <time>2021-02-15T13:46:55Z</time>
      </trkpt>
      <trkpt lat="46.70686" lon="5.96229">
        <ele>702.2</ele>
        <time>2021-02-15T13:47:01Z</time>
      </trkpt>
      <trkpt lat="46.70681" lon="5.96226">
        <ele>703</ele>
        <time>2021-02-15T13:47:06Z</time>
      </trkpt>
      <trkpt lat="46.70677" lon="5.96223">
        <ele>703.2</ele>
        <time>2021-02-15T13:47:10Z</time>
      </trkpt>
      <trkpt lat="46.70672" lon="5.96221">
        <ele>703.4</ele>
        <time>2021-02-15T13:47:14Z</time>
      </trkpt>
      <trkpt lat="46.70667" lon="5.96219">
        <ele>703.2</ele>
        <time>2021-02-15T13:47:18Z</time>
      </trkpt>
      <trkpt lat="46.70662" lon="5.96217">
        <ele>702.7</ele>
        <time>2021-02-15T13:47:23Z</time>
      </trkpt>
      <trkpt lat="46.70658" lon="5.96214">
        <ele>702.1</ele>
        <time>2021-02-15T13:47:29Z</time>
      </trkpt>
      <trkpt lat="46.70652" lon="5.96212">
        <ele>701.3</ele>
        <time>2021-02-15T13:47:34Z</time>
      </trkpt>
      <trkpt lat="46.70648" lon="5.96211">
        <ele>700.5</ele>
        <time>2021-02-15T13:47:38Z</time>
      </trkpt>
      <trkpt lat="46.70643" lon="5.96208">
        <ele>699.7</ele>
        <time>2021-02-15T13:47:42Z</time>
      </trkpt>
      <trkpt lat="46.70638" lon="5.96205">
        <ele>698.5</ele>
        <time>2021-02-15T13:47:47Z</time>
      </trkpt>
      <trkpt lat="46.70634" lon="5.96201">
        <ele>697.7</ele>
        <time>2021-02-15T13:47:51Z</time>
      </trkpt>
      <trkpt lat="46.70629" lon="5.96197">
        <ele>697.4</ele>
        <time>2021-02-15T13:47:55Z</time>
      </trkpt>
      <trkpt lat="46.70625" lon="5.96192">
        <ele>697.1</ele>
        <time>2021-02-15T13:47:59Z</time>
      </trkpt>
      <trkpt lat="46.7062" lon="5.96188">
        <ele>696.8</ele>
        <time>2021-02-15T13:48:03Z</time>
      </trkpt>
      <trkpt lat="46.70615" lon="5.96186">
        <ele>696.2</ele>
        <time>2021-02-15T13:48:08Z</time>
      </trkpt>
      <trkpt lat="46.70611" lon="5.96183">
        <ele>695.8</ele>
        <time>2021-02-15T13:48:12Z</time>
      </trkpt>
      <trkpt lat="46.70606" lon="5.96181">
        <ele>695.8</ele>
        <time>2021-02-15T13:48:17Z</time>
      </trkpt>
      <trkpt lat="46.70601" lon="5.9618">
        <ele>699.5</ele>
        <time>2021-02-15T13:49:04Z</time>
      </trkpt>
      <trkpt lat="46.70595" lon="5.96185">
        <ele>708</ele>
        <time>2021-02-15T13:49:43Z</time>
      </trkpt>
      <trkpt lat="46.70589" lon="5.96187">
        <ele>710.2</ele>
        <time>2021-02-15T13:49:45Z</time>
      </trkpt>
      <trkpt lat="46.70584" lon="5.96187">
        <ele>713.4</ele>
        <time>2021-02-15T13:49:48Z</time>
      </trkpt>
      <trkpt lat="46.7058" lon="5.96182">
        <ele>717.2</ele>
        <time>2021-02-15T13:49:55Z</time>
      </trkpt>
      <trkpt lat="46.70575" lon="5.96178">
        <ele>718.4</ele>
        <time>2021-02-15T13:50:00Z</time>
      </trkpt>
      <trkpt lat="46.70571" lon="5.96173">
        <ele>719.1</ele>
        <time>2021-02-15T13:50:06Z</time>
      </trkpt>
      <trkpt lat="46.70567" lon="5.96169">
        <ele>718.8</ele>
        <time>2021-02-15T13:50:10Z</time>
      </trkpt>
      <trkpt lat="46.70563" lon="5.96165">
        <ele>717.4</ele>
        <time>2021-02-15T13:50:14Z</time>
      </trkpt>
      <trkpt lat="46.70558" lon="5.96164">
        <ele>716.1</ele>
        <time>2021-02-15T13:50:19Z</time>
      </trkpt>
      <trkpt lat="46.70554" lon="5.96159">
        <ele>714.8</ele>
        <time>2021-02-15T13:50:24Z</time>
      </trkpt>
      <trkpt lat="46.70551" lon="5.96153">
        <ele>712.9</ele>
        <time>2021-02-15T13:50:31Z</time>
      </trkpt>
      <trkpt lat="46.70547" lon="5.96149">
        <ele>711.1</ele>
        <time>2021-02-15T13:50:37Z</time>
      </trkpt>
      <trkpt lat="46.70543" lon="5.96143">
        <ele>708.3</ele>
        <time>2021-02-15T13:50:48Z</time>
      </trkpt>
      <trkpt lat="46.70538" lon="5.96139">
        <ele>707.6</ele>
        <time>2021-02-15T13:50:52Z</time>
      </trkpt>
      <trkpt lat="46.70533" lon="5.96134">
        <ele>707.3</ele>
        <time>2021-02-15T13:50:56Z</time>
      </trkpt>
      <trkpt lat="46.70529" lon="5.9613">
        <ele>707</ele>
        <time>2021-02-15T13:51:00Z</time>
      </trkpt>
      <trkpt lat="46.70525" lon="5.96126">
        <ele>707</ele>
        <time>2021-02-15T13:51:04Z</time>
      </trkpt>
      <trkpt lat="46.70521" lon="5.96123">
        <ele>706.9</ele>
        <time>2021-02-15T13:51:08Z</time>
      </trkpt>
      <trkpt lat="46.70516" lon="5.96121">
        <ele>706.5</ele>
        <time>2021-02-15T13:51:12Z</time>
      </trkpt>
      <trkpt lat="46.70511" lon="5.96119">
        <ele>705.6</ele>
        <time>2021-02-15T13:51:16Z</time>
      </trkpt>
      <trkpt lat="46.70507" lon="5.96115">
        <ele>704.1</ele>
        <time>2021-02-15T13:51:21Z</time>
      </trkpt>
      <trkpt lat="46.70503" lon="5.96111">
        <ele>703.2</ele>
        <time>2021-02-15T13:51:26Z</time>
      </trkpt>
      <trkpt lat="46.70499" lon="5.96105">
        <ele>701.7</ele>
        <time>2021-02-15T13:51:31Z</time>
      </trkpt>
      <trkpt lat="46.70496" lon="5.96099">
        <ele>700.8</ele>
        <time>2021-02-15T13:51:35Z</time>
      </trkpt>
      <trkpt lat="46.70493" lon="5.96094">
        <ele>700.4</ele>
        <time>2021-02-15T13:51:39Z</time>
      </trkpt>
      <trkpt lat="46.70497" lon="5.96098">
        <ele>697.5</ele>
        <time>2021-02-15T13:52:08Z</time>
      </trkpt>
      <trkpt lat="46.705" lon="5.96102">
        <ele>697.5</ele>
        <time>2021-02-15T13:52:13Z</time>
      </trkpt>
      <trkpt lat="46.70503" lon="5.96108">
        <ele>698</ele>
        <time>2021-02-15T13:52:18Z</time>
      </trkpt>
      <trkpt lat="46.70506" lon="5.96113">
        <ele>698.7</ele>
        <time>2021-02-15T13:52:23Z</time>
      </trkpt>
      <trkpt lat="46.70509" lon="5.96119">
        <ele>699.2</ele>
        <time>2021-02-15T13:52:29Z</time>
      </trkpt>
      <trkpt lat="46.70511" lon="5.96125">
        <ele>699.5</ele>
        <time>2021-02-15T13:52:34Z</time>
      </trkpt>
      <trkpt lat="46.70514" lon="5.9613">
        <ele>700</ele>
        <time>2021-02-15T13:52:40Z</time>
      </trkpt>
      <trkpt lat="46.70517" lon="5.96135">
        <ele>699.3</ele>
        <time>2021-02-15T13:52:47Z</time>
      </trkpt>
      <trkpt lat="46.7052" lon="5.9614">
        <ele>696.1</ele>
        <time>2021-02-15T13:52:54Z</time>
      </trkpt>
      <trkpt lat="46.70523" lon="5.96144">
        <ele>693.8</ele>
        <time>2021-02-15T13:52:59Z</time>
      </trkpt>
      <trkpt lat="46.70525" lon="5.96151">
        <ele>691.6</ele>
        <time>2021-02-15T13:53:06Z</time>
      </trkpt>
      <trkpt lat="46.70527" lon="5.96157">
        <ele>690.2</ele>
        <time>2021-02-15T13:53:11Z</time>
      </trkpt>
      <trkpt lat="46.70529" lon="5.96164">
        <ele>689.5</ele>
        <time>2021-02-15T13:53:15Z</time>
      </trkpt>
      <trkpt lat="46.70531" lon="5.96171">
        <ele>688.7</ele>
        <time>2021-02-15T13:53:19Z</time>
      </trkpt>
      <trkpt lat="46.70533" lon="5.96177">
        <ele>688.2</ele>
        <time>2021-02-15T13:53:23Z</time>
      </trkpt>
      <trkpt lat="46.70536" lon="5.96183">
        <ele>687.8</ele>
        <time>2021-02-15T13:53:27Z</time>
      </trkpt>
      <trkpt lat="46.70538" lon="5.9619">
        <ele>687.4</ele>
        <time>2021-02-15T13:53:31Z</time>
      </trkpt>
      <trkpt lat="46.7054" lon="5.96196">
        <ele>687.4</ele>
        <time>2021-02-15T13:53:35Z</time>
      </trkpt>
      <trkpt lat="46.7054" lon="5.96203">
        <ele>687.1</ele>
        <time>2021-02-15T13:53:40Z</time>
      </trkpt>
      <trkpt lat="46.70539" lon="5.96211">
        <ele>686.4</ele>
        <time>2021-02-15T13:53:45Z</time>
      </trkpt>
      <trkpt lat="46.70536" lon="5.96217">
        <ele>685.7</ele>
        <time>2021-02-15T13:53:50Z</time>
      </trkpt>
      <trkpt lat="46.70533" lon="5.96223">
        <ele>685.1</ele>
        <time>2021-02-15T13:53:54Z</time>
      </trkpt>
      <trkpt lat="46.70531" lon="5.96229">
        <ele>684.5</ele>
        <time>2021-02-15T13:53:58Z</time>
      </trkpt>
      <trkpt lat="46.70528" lon="5.96236">
        <ele>683.7</ele>
        <time>2021-02-15T13:54:03Z</time>
      </trkpt>
      <trkpt lat="46.70525" lon="5.96241">
        <ele>683.5</ele>
        <time>2021-02-15T13:54:06Z</time>
      </trkpt>
      <trkpt lat="46.70523" lon="5.96247">
        <ele>683.3</ele>
        <time>2021-02-15T13:54:10Z</time>
      </trkpt>
      <trkpt lat="46.70521" lon="5.96254">
        <ele>683</ele>
        <time>2021-02-15T13:54:15Z</time>
      </trkpt>
      <trkpt lat="46.7052" lon="5.96261">
        <ele>683.1</ele>
        <time>2021-02-15T13:54:21Z</time>
      </trkpt>
      <trkpt lat="46.70521" lon="5.96268">
        <ele>683.5</ele>
        <time>2021-02-15T13:54:26Z</time>
      </trkpt>
      <trkpt lat="46.70525" lon="5.96272">
        <ele>684.5</ele>
        <time>2021-02-15T13:54:34Z</time>
      </trkpt>
      <trkpt lat="46.7053" lon="5.96275">
        <ele>685.1</ele>
        <time>2021-02-15T13:54:39Z</time>
      </trkpt>
      <trkpt lat="46.70534" lon="5.96276">
        <ele>685.3</ele>
        <time>2021-02-15T13:54:43Z</time>
      </trkpt>
      <trkpt lat="46.70539" lon="5.96277">
        <ele>685.3</ele>
        <time>2021-02-15T13:54:46Z</time>
      </trkpt>
      <trkpt lat="46.70544" lon="5.96281">
        <ele>685.4</ele>
        <time>2021-02-15T13:54:50Z</time>
      </trkpt>
      <trkpt lat="46.70548" lon="5.96285">
        <ele>685.6</ele>
        <time>2021-02-15T13:54:53Z</time>
      </trkpt>
      <trkpt lat="46.70552" lon="5.9629">
        <ele>685.8</ele>
        <time>2021-02-15T13:54:57Z</time>
      </trkpt>
      <trkpt lat="46.70555" lon="5.96294">
        <ele>685.8</ele>
        <time>2021-02-15T13:55:01Z</time>
      </trkpt>
      <trkpt lat="46.70558" lon="5.96299">
        <ele>686</ele>
        <time>2021-02-15T13:55:05Z</time>
      </trkpt>
      <trkpt lat="46.70563" lon="5.96303">
        <ele>686.3</ele>
        <time>2021-02-15T13:55:09Z</time>
      </trkpt>
      <trkpt lat="46.70568" lon="5.96306">
        <ele>686.5</ele>
        <time>2021-02-15T13:55:12Z</time>
      </trkpt>
      <trkpt lat="46.70571" lon="5.96311">
        <ele>687.2</ele>
        <time>2021-02-15T13:55:17Z</time>
      </trkpt>
      <trkpt lat="46.70576" lon="5.96313">
        <ele>688.4</ele>
        <time>2021-02-15T13:55:21Z</time>
      </trkpt>
      <trkpt lat="46.7058" lon="5.96318">
        <ele>690</ele>
        <time>2021-02-15T13:55:28Z</time>
      </trkpt>
      <trkpt lat="46.70583" lon="5.96324">
        <ele>690.4</ele>
        <time>2021-02-15T13:55:35Z</time>
      </trkpt>
      <trkpt lat="46.70588" lon="5.96328">
        <ele>690</ele>
        <time>2021-02-15T13:55:40Z</time>
      </trkpt>
      <trkpt lat="46.70592" lon="5.96331">
        <ele>689.7</ele>
        <time>2021-02-15T13:55:43Z</time>
      </trkpt>
      <trkpt lat="46.70598" lon="5.96333">
        <ele>690.1</ele>
        <time>2021-02-15T13:55:46Z</time>
      </trkpt>
      <trkpt lat="46.70603" lon="5.96335">
        <ele>690.4</ele>
        <time>2021-02-15T13:55:49Z</time>
      </trkpt>
      <trkpt lat="46.70607" lon="5.96339">
        <ele>690.4</ele>
        <time>2021-02-15T13:55:53Z</time>
      </trkpt>
      <trkpt lat="46.70611" lon="5.96342">
        <ele>690.1</ele>
        <time>2021-02-15T13:55:57Z</time>
      </trkpt>
      <trkpt lat="46.70615" lon="5.96346">
        <ele>689.6</ele>
        <time>2021-02-15T13:56:01Z</time>
      </trkpt>
      <trkpt lat="46.7062" lon="5.96349">
        <ele>689</ele>
        <time>2021-02-15T13:56:05Z</time>
      </trkpt>
      <trkpt lat="46.70624" lon="5.96353">
        <ele>688.5</ele>
        <time>2021-02-15T13:56:09Z</time>
      </trkpt>
      <trkpt lat="46.70628" lon="5.96358">
        <ele>688.3</ele>
        <time>2021-02-15T13:56:13Z</time>
      </trkpt>
      <trkpt lat="46.70632" lon="5.96362">
        <ele>688.4</ele>
        <time>2021-02-15T13:56:17Z</time>
      </trkpt>
      <trkpt lat="46.70636" lon="5.96365">
        <ele>688.6</ele>
        <time>2021-02-15T13:56:21Z</time>
      </trkpt>
      <trkpt lat="46.7064" lon="5.9637">
        <ele>689</ele>
        <time>2021-02-15T13:56:25Z</time>
      </trkpt>
      <trkpt lat="46.70644" lon="5.96373">
        <ele>689.4</ele>
        <time>2021-02-15T13:56:29Z</time>
      </trkpt>
      <trkpt lat="46.70649" lon="5.96376">
        <ele>690.1</ele>
        <time>2021-02-15T13:56:34Z</time>
      </trkpt>
      <trkpt lat="46.70654" lon="5.96379">
        <ele>690.4</ele>
        <time>2021-02-15T13:56:38Z</time>
      </trkpt>
      <trkpt lat="46.70659" lon="5.96382">
        <ele>690.5</ele>
        <time>2021-02-15T13:56:42Z</time>
      </trkpt>
      <trkpt lat="46.70663" lon="5.96385">
        <ele>690.4</ele>
        <time>2021-02-15T13:56:46Z</time>
      </trkpt>
      <trkpt lat="46.70667" lon="5.9639">
        <ele>690.2</ele>
        <time>2021-02-15T13:56:50Z</time>
      </trkpt>
      <trkpt lat="46.70672" lon="5.96392">
        <ele>690</ele>
        <time>2021-02-15T13:56:54Z</time>
      </trkpt>
      <trkpt lat="46.70677" lon="5.96395">
        <ele>689.9</ele>
        <time>2021-02-15T13:56:58Z</time>
      </trkpt>
      <trkpt lat="46.70681" lon="5.96399">
        <ele>689.8</ele>
        <time>2021-02-15T13:57:02Z</time>
      </trkpt>
      <trkpt lat="46.70685" lon="5.96403">
        <ele>689.7</ele>
        <time>2021-02-15T13:57:07Z</time>
      </trkpt>
      <trkpt lat="46.70689" lon="5.96407">
        <ele>689.8</ele>
        <time>2021-02-15T13:57:11Z</time>
      </trkpt>
      <trkpt lat="46.70693" lon="5.96412">
        <ele>689.8</ele>
        <time>2021-02-15T13:57:16Z</time>
      </trkpt>
      <trkpt lat="46.70696" lon="5.96417">
        <ele>690.6</ele>
        <time>2021-02-15T13:57:37Z</time>
      </trkpt>
      <trkpt lat="46.70698" lon="5.96424">
        <ele>689.9</ele>
        <time>2021-02-15T13:57:46Z</time>
      </trkpt>
      <trkpt lat="46.70704" lon="5.96426">
        <ele>690.1</ele>
        <time>2021-02-15T13:57:50Z</time>
      </trkpt>
      <trkpt lat="46.70708" lon="5.9643">
        <ele>689.9</ele>
        <time>2021-02-15T13:57:55Z</time>
      </trkpt>
      <trkpt lat="46.70711" lon="5.96436">
        <ele>689</ele>
        <time>2021-02-15T13:58:01Z</time>
      </trkpt>
      <trkpt lat="46.70712" lon="5.96442">
        <ele>688.7</ele>
        <time>2021-02-15T13:58:14Z</time>
      </trkpt>
      <trkpt lat="46.70716" lon="5.96445">
        <ele>689.2</ele>
        <time>2021-02-15T13:58:20Z</time>
      </trkpt>
      <trkpt lat="46.7072" lon="5.96448">
        <ele>689.5</ele>
        <time>2021-02-15T13:58:25Z</time>
      </trkpt>
      <trkpt lat="46.70724" lon="5.96452">
        <ele>689.8</ele>
        <time>2021-02-15T13:58:30Z</time>
      </trkpt>
      <trkpt lat="46.70728" lon="5.96455">
        <ele>689.9</ele>
        <time>2021-02-15T13:58:35Z</time>
      </trkpt>
      <trkpt lat="46.70733" lon="5.96457">
        <ele>688.9</ele>
        <time>2021-02-15T13:58:40Z</time>
      </trkpt>
      <trkpt lat="46.70738" lon="5.96459">
        <ele>688.2</ele>
        <time>2021-02-15T13:58:45Z</time>
      </trkpt>
      <trkpt lat="46.70742" lon="5.96461">
        <ele>687</ele>
        <time>2021-02-15T13:59:00Z</time>
      </trkpt>
      <trkpt lat="46.70747" lon="5.96464">
        <ele>686.3</ele>
        <time>2021-02-15T13:59:09Z</time>
      </trkpt>
      <trkpt lat="46.70751" lon="5.96464">
        <ele>685.1</ele>
        <time>2021-02-15T13:59:17Z</time>
      </trkpt>
      <trkpt lat="46.70756" lon="5.96463">
        <ele>684.3</ele>
        <time>2021-02-15T13:59:23Z</time>
      </trkpt>
      <trkpt lat="46.70761" lon="5.96466">
        <ele>683.6</ele>
        <time>2021-02-15T13:59:28Z</time>
      </trkpt>
      <trkpt lat="46.70766" lon="5.96468">
        <ele>682.6</ele>
        <time>2021-02-15T13:59:33Z</time>
      </trkpt>
      <trkpt lat="46.70771" lon="5.96469">
        <ele>681.5</ele>
        <time>2021-02-15T13:59:39Z</time>
      </trkpt>
      <trkpt lat="46.70775" lon="5.96473">
        <ele>680.4</ele>
        <time>2021-02-15T13:59:44Z</time>
      </trkpt>
      <trkpt lat="46.7078" lon="5.96476">
        <ele>679.4</ele>
        <time>2021-02-15T13:59:49Z</time>
      </trkpt>
      <trkpt lat="46.70782" lon="5.96483">
        <ele>678.5</ele>
        <time>2021-02-15T13:59:51Z</time>
      </trkpt>
      <trkpt lat="46.70785" lon="5.96489">
        <ele>677.5</ele>
        <time>2021-02-15T13:59:54Z</time>
      </trkpt>
      <trkpt lat="46.70788" lon="5.96494">
        <ele>676.1</ele>
        <time>2021-02-15T13:59:58Z</time>
      </trkpt>
      <trkpt lat="46.70793" lon="5.96497">
        <ele>674.3</ele>
        <time>2021-02-15T14:00:03Z</time>
      </trkpt>
      <trkpt lat="46.70797" lon="5.965">
        <ele>672</ele>
        <time>2021-02-15T14:00:08Z</time>
      </trkpt>
      <trkpt lat="46.70803" lon="5.96502">
        <ele>669.5</ele>
        <time>2021-02-15T14:00:13Z</time>
      </trkpt>
      <trkpt lat="46.70808" lon="5.96504">
        <ele>666.9</ele>
        <time>2021-02-15T14:00:18Z</time>
      </trkpt>
      <trkpt lat="46.70812" lon="5.96507">
        <ele>664.6</ele>
        <time>2021-02-15T14:00:24Z</time>
      </trkpt>
      <trkpt lat="46.70816" lon="5.9651">
        <ele>663.3</ele>
        <time>2021-02-15T14:00:29Z</time>
      </trkpt>
      <trkpt lat="46.7082" lon="5.96515">
        <ele>662.1</ele>
        <time>2021-02-15T14:00:33Z</time>
      </trkpt>
      <trkpt lat="46.70822" lon="5.96521">
        <ele>660.9</ele>
        <time>2021-02-15T14:00:36Z</time>
      </trkpt>
      <trkpt lat="46.70823" lon="5.96529">
        <ele>659.1</ele>
        <time>2021-02-15T14:00:40Z</time>
      </trkpt>
      <trkpt lat="46.70822" lon="5.96537">
        <ele>658.1</ele>
        <time>2021-02-15T14:00:44Z</time>
      </trkpt>
      <trkpt lat="46.7082" lon="5.96543">
        <ele>657.5</ele>
        <time>2021-02-15T14:00:48Z</time>
      </trkpt>
      <trkpt lat="46.70819" lon="5.9655">
        <ele>657.5</ele>
        <time>2021-02-15T14:00:51Z</time>
      </trkpt>
      <trkpt lat="46.70817" lon="5.96557">
        <ele>657.7</ele>
        <time>2021-02-15T14:00:55Z</time>
      </trkpt>
      <trkpt lat="46.70814" lon="5.96564">
        <ele>658</ele>
        <time>2021-02-15T14:01:00Z</time>
      </trkpt>
      <trkpt lat="46.70812" lon="5.96571">
        <ele>658.5</ele>
        <time>2021-02-15T14:01:04Z</time>
      </trkpt>
      <trkpt lat="46.70809" lon="5.96577">
        <ele>659.5</ele>
        <time>2021-02-15T14:01:10Z</time>
      </trkpt>
      <trkpt lat="46.70806" lon="5.96583">
        <ele>660.2</ele>
        <time>2021-02-15T14:01:16Z</time>
      </trkpt>
      <trkpt lat="46.70802" lon="5.96587">
        <ele>660.4</ele>
        <time>2021-02-15T14:01:22Z</time>
      </trkpt>
      <trkpt lat="46.70798" lon="5.96592">
        <ele>660.6</ele>
        <time>2021-02-15T14:01:27Z</time>
      </trkpt>
      <trkpt lat="46.70793" lon="5.96594">
        <ele>660.8</ele>
        <time>2021-02-15T14:01:32Z</time>
      </trkpt>
      <trkpt lat="46.70788" lon="5.96597">
        <ele>661</ele>
        <time>2021-02-15T14:01:36Z</time>
      </trkpt>
      <trkpt lat="46.70783" lon="5.96603">
        <ele>661.9</ele>
        <time>2021-02-15T14:01:38Z</time>
      </trkpt>
      <trkpt lat="46.70779" lon="5.96607">
        <ele>662.3</ele>
        <time>2021-02-15T14:01:40Z</time>
      </trkpt>
      <trkpt lat="46.70775" lon="5.9661">
        <ele>662.7</ele>
        <time>2021-02-15T14:01:44Z</time>
      </trkpt>
      <trkpt lat="46.7077" lon="5.96613">
        <ele>662.7</ele>
        <time>2021-02-15T14:01:50Z</time>
      </trkpt>
      <trkpt lat="46.70766" lon="5.96616">
        <ele>662.3</ele>
        <time>2021-02-15T14:01:56Z</time>
      </trkpt>
      <trkpt lat="46.70762" lon="5.96619">
        <ele>661.9</ele>
        <time>2021-02-15T14:02:00Z</time>
      </trkpt>
      <trkpt lat="46.70757" lon="5.96622">
        <ele>661.4</ele>
        <time>2021-02-15T14:02:04Z</time>
      </trkpt>
      <trkpt lat="46.70753" lon="5.96625">
        <ele>660.8</ele>
        <time>2021-02-15T14:02:09Z</time>
      </trkpt>
      <trkpt lat="46.70748" lon="5.96626">
        <ele>660.6</ele>
        <time>2021-02-15T14:02:14Z</time>
      </trkpt>
      <trkpt lat="46.70743" lon="5.96625">
        <ele>660.3</ele>
        <time>2021-02-15T14:02:19Z</time>
      </trkpt>
      <trkpt lat="46.70737" lon="5.96624">
        <ele>658.8</ele>
        <time>2021-02-15T14:02:23Z</time>
      </trkpt>
      <trkpt lat="46.70732" lon="5.96625">
        <ele>657.8</ele>
        <time>2021-02-15T14:02:28Z</time>
      </trkpt>
      <trkpt lat="46.70727" lon="5.96625">
        <ele>656.9</ele>
        <time>2021-02-15T14:02:34Z</time>
      </trkpt>
      <trkpt lat="46.70723" lon="5.96629">
        <ele>656.6</ele>
        <time>2021-02-15T14:02:39Z</time>
      </trkpt>
      <trkpt lat="46.70718" lon="5.96632">
        <ele>656.6</ele>
        <time>2021-02-15T14:02:44Z</time>
      </trkpt>
      <trkpt lat="46.70713" lon="5.96635">
        <ele>657</ele>
        <time>2021-02-15T14:02:49Z</time>
      </trkpt>
      <trkpt lat="46.70709" lon="5.96638">
        <ele>657.3</ele>
        <time>2021-02-15T14:02:53Z</time>
      </trkpt>
      <trkpt lat="46.70704" lon="5.96641">
        <ele>657.5</ele>
        <time>2021-02-15T14:02:58Z</time>
      </trkpt>
      <trkpt lat="46.70699" lon="5.96644">
        <ele>657.7</ele>
        <time>2021-02-15T14:03:03Z</time>
      </trkpt>
      <trkpt lat="46.70694" lon="5.96643">
        <ele>657.3</ele>
        <time>2021-02-15T14:03:08Z</time>
      </trkpt>
      <trkpt lat="46.70687" lon="5.96643">
        <ele>657</ele>
        <time>2021-02-15T14:03:13Z</time>
      </trkpt>
      <trkpt lat="46.70682" lon="5.96643">
        <ele>656.8</ele>
        <time>2021-02-15T14:03:16Z</time>
      </trkpt>
      <trkpt lat="46.70677" lon="5.96642">
        <ele>656.3</ele>
        <time>2021-02-15T14:03:21Z</time>
      </trkpt>
      <trkpt lat="46.70672" lon="5.96642">
        <ele>655.8</ele>
        <time>2021-02-15T14:03:26Z</time>
      </trkpt>
      <trkpt lat="46.70667" lon="5.96644">
        <ele>655.2</ele>
        <time>2021-02-15T14:03:31Z</time>
      </trkpt>
      <trkpt lat="46.70663" lon="5.96648">
        <ele>654.5</ele>
        <time>2021-02-15T14:03:36Z</time>
      </trkpt>
      <trkpt lat="46.70658" lon="5.96651">
        <ele>654.1</ele>
        <time>2021-02-15T14:03:41Z</time>
      </trkpt>
      <trkpt lat="46.70654" lon="5.96657">
        <ele>653.9</ele>
        <time>2021-02-15T14:03:46Z</time>
      </trkpt>
      <trkpt lat="46.70651" lon="5.96662">
        <ele>653.6</ele>
        <time>2021-02-15T14:03:51Z</time>
      </trkpt>
      <trkpt lat="46.70648" lon="5.96668">
        <ele>653.2</ele>
        <time>2021-02-15T14:03:56Z</time>
      </trkpt>
      <trkpt lat="46.70645" lon="5.96674">
        <ele>652.7</ele>
        <time>2021-02-15T14:03:59Z</time>
      </trkpt>
      <trkpt lat="46.70642" lon="5.9668">
        <ele>652.4</ele>
        <time>2021-02-15T14:04:02Z</time>
      </trkpt>
      <trkpt lat="46.70639" lon="5.96686">
        <ele>651.8</ele>
        <time>2021-02-15T14:04:06Z</time>
      </trkpt>
      <trkpt lat="46.70636" lon="5.96692">
        <ele>651.3</ele>
        <time>2021-02-15T14:04:11Z</time>
      </trkpt>
      <trkpt lat="46.70633" lon="5.96698">
        <ele>651.4</ele>
        <time>2021-02-15T14:04:16Z</time>
      </trkpt>
      <trkpt lat="46.70629" lon="5.96704">
        <ele>651.4</ele>
        <time>2021-02-15T14:04:20Z</time>
      </trkpt>
      <trkpt lat="46.70626" lon="5.9671">
        <ele>651.3</ele>
        <time>2021-02-15T14:04:24Z</time>
      </trkpt>
      <trkpt lat="46.70623" lon="5.96715">
        <ele>651</ele>
        <time>2021-02-15T14:04:28Z</time>
      </trkpt>
      <trkpt lat="46.7062" lon="5.96721">
        <ele>650.5</ele>
        <time>2021-02-15T14:04:33Z</time>
      </trkpt>
      <trkpt lat="46.70618" lon="5.96727">
        <ele>650.2</ele>
        <time>2021-02-15T14:04:37Z</time>
      </trkpt>
      <trkpt lat="46.70615" lon="5.96733">
        <ele>649.8</ele>
        <time>2021-02-15T14:04:42Z</time>
      </trkpt>
      <trkpt lat="46.70612" lon="5.96739">
        <ele>649.3</ele>
        <time>2021-02-15T14:04:47Z</time>
      </trkpt>
      <trkpt lat="46.7061" lon="5.96745">
        <ele>649.3</ele>
        <time>2021-02-15T14:04:52Z</time>
      </trkpt>
      <trkpt lat="46.70607" lon="5.96752">
        <ele>649.2</ele>
        <time>2021-02-15T14:04:57Z</time>
      </trkpt>
      <trkpt lat="46.70605" lon="5.96758">
        <ele>649.5</ele>
        <time>2021-02-15T14:05:01Z</time>
      </trkpt>
      <trkpt lat="46.70603" lon="5.96765">
        <ele>649.7</ele>
        <time>2021-02-15T14:05:05Z</time>
      </trkpt>
      <trkpt lat="46.70601" lon="5.96773">
        <ele>649.9</ele>
        <time>2021-02-15T14:05:10Z</time>
      </trkpt>
      <trkpt lat="46.70599" lon="5.9678">
        <ele>650</ele>
        <time>2021-02-15T14:05:15Z</time>
      </trkpt>
      <trkpt lat="46.70597" lon="5.96787">
        <ele>649.8</ele>
        <time>2021-02-15T14:05:21Z</time>
      </trkpt>
      <trkpt lat="46.70596" lon="5.96793">
        <ele>649.7</ele>
        <time>2021-02-15T14:05:26Z</time>
      </trkpt>
      <trkpt lat="46.70594" lon="5.96799">
        <ele>649.8</ele>
        <time>2021-02-15T14:05:31Z</time>
      </trkpt>
      <trkpt lat="46.70593" lon="5.96806">
        <ele>649.7</ele>
        <time>2021-02-15T14:05:35Z</time>
      </trkpt>
      <trkpt lat="46.70591" lon="5.96813">
        <ele>649.8</ele>
        <time>2021-02-15T14:05:40Z</time>
      </trkpt>
      <trkpt lat="46.70589" lon="5.9682">
        <ele>650.1</ele>
        <time>2021-02-15T14:05:45Z</time>
      </trkpt>
      <trkpt lat="46.70588" lon="5.96827">
        <ele>650.7</ele>
        <time>2021-02-15T14:05:50Z</time>
      </trkpt>
      <trkpt lat="46.70587" lon="5.96834">
        <ele>651.5</ele>
        <time>2021-02-15T14:05:55Z</time>
      </trkpt>
      <trkpt lat="46.70586" lon="5.96842">
        <ele>652.4</ele>
        <time>2021-02-15T14:06:00Z</time>
      </trkpt>
      <trkpt lat="46.70586" lon="5.9685">
        <ele>653.3</ele>
        <time>2021-02-15T14:06:05Z</time>
      </trkpt>
      <trkpt lat="46.70585" lon="5.96858">
        <ele>654.3</ele>
        <time>2021-02-15T14:06:10Z</time>
      </trkpt>
      <trkpt lat="46.70585" lon="5.96865">
        <ele>655</ele>
        <time>2021-02-15T14:06:14Z</time>
      </trkpt>
      <trkpt lat="46.70585" lon="5.96872">
        <ele>655.6</ele>
        <time>2021-02-15T14:06:19Z</time>
      </trkpt>
      <trkpt lat="46.70585" lon="5.9688">
        <ele>656</ele>
        <time>2021-02-15T14:06:24Z</time>
      </trkpt>
      <trkpt lat="46.70585" lon="5.96888">
        <ele>656.8</ele>
        <time>2021-02-15T14:06:29Z</time>
      </trkpt>
      <trkpt lat="46.70585" lon="5.96895">
        <ele>657.9</ele>
        <time>2021-02-15T14:06:33Z</time>
      </trkpt>
      <trkpt lat="46.70583" lon="5.96902">
        <ele>659.4</ele>
        <time>2021-02-15T14:06:39Z</time>
      </trkpt>
      <trkpt lat="46.70583" lon="5.9691">
        <ele>660.9</ele>
        <time>2021-02-15T14:06:44Z</time>
      </trkpt>
      <trkpt lat="46.70579" lon="5.96916">
        <ele>662.5</ele>
        <time>2021-02-15T14:06:51Z</time>
      </trkpt>
      <trkpt lat="46.70577" lon="5.96922">
        <ele>663.2</ele>
        <time>2021-02-15T14:06:55Z</time>
      </trkpt>
      <trkpt lat="46.70575" lon="5.96929">
        <ele>663.8</ele>
        <time>2021-02-15T14:06:59Z</time>
      </trkpt>
      <trkpt lat="46.70574" lon="5.96937">
        <ele>664.1</ele>
        <time>2021-02-15T14:07:04Z</time>
      </trkpt>
      <trkpt lat="46.70575" lon="5.96944">
        <ele>664.3</ele>
        <time>2021-02-15T14:07:10Z</time>
      </trkpt>
      <trkpt lat="46.70578" lon="5.96951">
        <ele>664.8</ele>
        <time>2021-02-15T14:07:42Z</time>
      </trkpt>
      <trkpt lat="46.70583" lon="5.96955">
        <ele>664.7</ele>
        <time>2021-02-15T14:07:47Z</time>
      </trkpt>
      <trkpt lat="46.70588" lon="5.96958">
        <ele>664.3</ele>
        <time>2021-02-15T14:07:53Z</time>
      </trkpt>
      <trkpt lat="46.70593" lon="5.9696">
        <ele>664</ele>
        <time>2021-02-15T14:07:58Z</time>
      </trkpt>
      <trkpt lat="46.70597" lon="5.96964">
        <ele>663.8</ele>
        <time>2021-02-15T14:08:02Z</time>
      </trkpt>
      <trkpt lat="46.70602" lon="5.96967">
        <ele>663.6</ele>
        <time>2021-02-15T14:08:06Z</time>
      </trkpt>
      <trkpt lat="46.70607" lon="5.9697">
        <ele>663.3</ele>
        <time>2021-02-15T14:08:11Z</time>
      </trkpt>
      <trkpt lat="46.70611" lon="5.96972">
        <ele>663.3</ele>
        <time>2021-02-15T14:08:15Z</time>
      </trkpt>
      <trkpt lat="46.70616" lon="5.96973">
        <ele>663.8</ele>
        <time>2021-02-15T14:08:19Z</time>
      </trkpt>
      <trkpt lat="46.70621" lon="5.96975">
        <ele>664.1</ele>
        <time>2021-02-15T14:08:24Z</time>
      </trkpt>
      <trkpt lat="46.70626" lon="5.96977">
        <ele>664.3</ele>
        <time>2021-02-15T14:08:30Z</time>
      </trkpt>
      <trkpt lat="46.7063" lon="5.96981">
        <ele>664.6</ele>
        <time>2021-02-15T14:08:38Z</time>
      </trkpt>
      <trkpt lat="46.70635" lon="5.96984">
        <ele>664.7</ele>
        <time>2021-02-15T14:08:43Z</time>
      </trkpt>
      <trkpt lat="46.7064" lon="5.96987">
        <ele>664.9</ele>
        <time>2021-02-15T14:08:48Z</time>
      </trkpt>
      <trkpt lat="46.70645" lon="5.9699">
        <ele>664.7</ele>
        <time>2021-02-15T14:08:53Z</time>
      </trkpt>
      <trkpt lat="46.70651" lon="5.9699">
        <ele>664.1</ele>
        <time>2021-02-15T14:08:58Z</time>
      </trkpt>
      <trkpt lat="46.70656" lon="5.96991">
        <ele>663.4</ele>
        <time>2021-02-15T14:09:02Z</time>
      </trkpt>
      <trkpt lat="46.70661" lon="5.96992">
        <ele>662.7</ele>
        <time>2021-02-15T14:09:07Z</time>
      </trkpt>
      <trkpt lat="46.70667" lon="5.96993">
        <ele>662.4</ele>
        <time>2021-02-15T14:09:12Z</time>
      </trkpt>
      <trkpt lat="46.70671" lon="5.96994">
        <ele>662.3</ele>
        <time>2021-02-15T14:09:16Z</time>
      </trkpt>
      <trkpt lat="46.70676" lon="5.96996">
        <ele>662.2</ele>
        <time>2021-02-15T14:09:21Z</time>
      </trkpt>
      <trkpt lat="46.70681" lon="5.96997">
        <ele>662.3</ele>
        <time>2021-02-15T14:09:26Z</time>
      </trkpt>
      <trkpt lat="46.70686" lon="5.96998">
        <ele>662.1</ele>
        <time>2021-02-15T14:09:31Z</time>
      </trkpt>
      <trkpt lat="46.70691" lon="5.96999">
        <ele>661.7</ele>
        <time>2021-02-15T14:09:35Z</time>
      </trkpt>
      <trkpt lat="46.70696" lon="5.96999">
        <ele>661.2</ele>
        <time>2021-02-15T14:09:39Z</time>
      </trkpt>
      <trkpt lat="46.70701" lon="5.97">
        <ele>660.3</ele>
        <time>2021-02-15T14:09:44Z</time>
      </trkpt>
      <trkpt lat="46.70706" lon="5.97">
        <ele>659.3</ele>
        <time>2021-02-15T14:09:48Z</time>
      </trkpt>
      <trkpt lat="46.70711" lon="5.97">
        <ele>658.3</ele>
        <time>2021-02-15T14:09:53Z</time>
      </trkpt>
      <trkpt lat="46.70716" lon="5.96999">
        <ele>657.8</ele>
        <time>2021-02-15T14:09:57Z</time>
      </trkpt>
      <trkpt lat="46.70721" lon="5.96999">
        <ele>657.3</ele>
        <time>2021-02-15T14:10:02Z</time>
      </trkpt>
      <trkpt lat="46.70726" lon="5.96999">
        <ele>656.7</ele>
        <time>2021-02-15T14:10:07Z</time>
      </trkpt>
      <trkpt lat="46.70731" lon="5.96998">
        <ele>656.2</ele>
        <time>2021-02-15T14:10:11Z</time>
      </trkpt>
      <trkpt lat="46.70736" lon="5.96999">
        <ele>655.7</ele>
        <time>2021-02-15T14:10:16Z</time>
      </trkpt>
      <trkpt lat="46.70741" lon="5.96999">
        <ele>655.6</ele>
        <time>2021-02-15T14:10:21Z</time>
      </trkpt>
      <trkpt lat="46.70746" lon="5.96998">
        <ele>655.5</ele>
        <time>2021-02-15T14:10:26Z</time>
      </trkpt>
      <trkpt lat="46.70751" lon="5.96998">
        <ele>655.5</ele>
        <time>2021-02-15T14:10:31Z</time>
      </trkpt>
      <trkpt lat="46.70756" lon="5.96998">
        <ele>655.4</ele>
        <time>2021-02-15T14:10:36Z</time>
      </trkpt>
      <trkpt lat="46.70761" lon="5.96997">
        <ele>655.5</ele>
        <time>2021-02-15T14:10:40Z</time>
      </trkpt>
      <trkpt lat="46.70766" lon="5.96996">
        <ele>656</ele>
        <time>2021-02-15T14:10:45Z</time>
      </trkpt>
      <trkpt lat="46.70771" lon="5.96996">
        <ele>656.7</ele>
        <time>2021-02-15T14:10:50Z</time>
      </trkpt>
      <trkpt lat="46.70775" lon="5.96995">
        <ele>657.5</ele>
        <time>2021-02-15T14:10:54Z</time>
      </trkpt>
      <trkpt lat="46.7078" lon="5.96995">
        <ele>658.1</ele>
        <time>2021-02-15T14:10:58Z</time>
      </trkpt>
      <trkpt lat="46.70785" lon="5.96995">
        <ele>658.1</ele>
        <time>2021-02-15T14:11:02Z</time>
      </trkpt>
      <trkpt lat="46.7079" lon="5.96995">
        <ele>657.9</ele>
        <time>2021-02-15T14:11:07Z</time>
      </trkpt>
      <trkpt lat="46.70795" lon="5.96994">
        <ele>658</ele>
        <time>2021-02-15T14:11:12Z</time>
      </trkpt>
      <trkpt lat="46.708" lon="5.96993">
        <ele>658.1</ele>
        <time>2021-02-15T14:11:16Z</time>
      </trkpt>
      <trkpt lat="46.70805" lon="5.96992">
        <ele>657.9</ele>
        <time>2021-02-15T14:11:20Z</time>
      </trkpt>
      <trkpt lat="46.7081" lon="5.96992">
        <ele>657.6</ele>
        <time>2021-02-15T14:11:25Z</time>
      </trkpt>
      <trkpt lat="46.70815" lon="5.96992">
        <ele>657.3</ele>
        <time>2021-02-15T14:11:29Z</time>
      </trkpt>
      <trkpt lat="46.7082" lon="5.96993">
        <ele>656.5</ele>
        <time>2021-02-15T14:11:34Z</time>
      </trkpt>
      <trkpt lat="46.70826" lon="5.96994">
        <ele>655.4</ele>
        <time>2021-02-15T14:11:39Z</time>
      </trkpt>
      <trkpt lat="46.70831" lon="5.96993">
        <ele>654.5</ele>
        <time>2021-02-15T14:11:43Z</time>
      </trkpt>
      <trkpt lat="46.70835" lon="5.96993">
        <ele>653.6</ele>
        <time>2021-02-15T14:11:47Z</time>
      </trkpt>
      <trkpt lat="46.7084" lon="5.96993">
        <ele>653.2</ele>
        <time>2021-02-15T14:11:51Z</time>
      </trkpt>
      <trkpt lat="46.70845" lon="5.96992">
        <ele>653</ele>
        <time>2021-02-15T14:11:55Z</time>
      </trkpt>
      <trkpt lat="46.7085" lon="5.96992">
        <ele>652.9</ele>
        <time>2021-02-15T14:11:59Z</time>
      </trkpt>
      <trkpt lat="46.70855" lon="5.96992">
        <ele>652.8</ele>
        <time>2021-02-15T14:12:04Z</time>
      </trkpt>
      <trkpt lat="46.70861" lon="5.96992">
        <ele>652.6</ele>
        <time>2021-02-15T14:12:09Z</time>
      </trkpt>
      <trkpt lat="46.70865" lon="5.96992">
        <ele>652.1</ele>
        <time>2021-02-15T14:12:13Z</time>
      </trkpt>
      <trkpt lat="46.70871" lon="5.96992">
        <ele>651.2</ele>
        <time>2021-02-15T14:12:18Z</time>
      </trkpt>
      <trkpt lat="46.70875" lon="5.96992">
        <ele>650.5</ele>
        <time>2021-02-15T14:12:22Z</time>
      </trkpt>
      <trkpt lat="46.7088" lon="5.96991">
        <ele>649.8</ele>
        <time>2021-02-15T14:12:27Z</time>
      </trkpt>
      <trkpt lat="46.70886" lon="5.96991">
        <ele>649.3</ele>
        <time>2021-02-15T14:12:32Z</time>
      </trkpt>
      <trkpt lat="46.7089" lon="5.96991">
        <ele>649.1</ele>
        <time>2021-02-15T14:12:36Z</time>
      </trkpt>
      <trkpt lat="46.70895" lon="5.9699">
        <ele>648.9</ele>
        <time>2021-02-15T14:12:40Z</time>
      </trkpt>
      <trkpt lat="46.709" lon="5.9699">
        <ele>648.6</ele>
        <time>2021-02-15T14:12:46Z</time>
      </trkpt>
      <trkpt lat="46.70905" lon="5.96988">
        <ele>648.2</ele>
        <time>2021-02-15T14:12:51Z</time>
      </trkpt>
      <trkpt lat="46.7091" lon="5.96987">
        <ele>647.7</ele>
        <time>2021-02-15T14:12:56Z</time>
      </trkpt>
      <trkpt lat="46.70915" lon="5.96985">
        <ele>647.4</ele>
        <time>2021-02-15T14:13:01Z</time>
      </trkpt>
      <trkpt lat="46.7092" lon="5.96984">
        <ele>647.3</ele>
        <time>2021-02-15T14:13:05Z</time>
      </trkpt>
      <trkpt lat="46.70924" lon="5.96983">
        <ele>647.1</ele>
        <time>2021-02-15T14:13:10Z</time>
      </trkpt>
      <trkpt lat="46.70929" lon="5.96982">
        <ele>646.9</ele>
        <time>2021-02-15T14:13:14Z</time>
      </trkpt>
      <trkpt lat="46.70934" lon="5.96981">
        <ele>646.7</ele>
        <time>2021-02-15T14:13:19Z</time>
      </trkpt>
      <trkpt lat="46.70939" lon="5.96979">
        <ele>646.3</ele>
        <time>2021-02-15T14:13:24Z</time>
      </trkpt>
      <trkpt lat="46.70944" lon="5.96977">
        <ele>646.1</ele>
        <time>2021-02-15T14:13:28Z</time>
      </trkpt>
      <trkpt lat="46.70948" lon="5.96974">
        <ele>646.3</ele>
        <time>2021-02-15T14:13:32Z</time>
      </trkpt>
      <trkpt lat="46.70953" lon="5.96972">
        <ele>646.2</ele>
        <time>2021-02-15T14:13:36Z</time>
      </trkpt>
      <trkpt lat="46.70957" lon="5.9697">
        <ele>646.3</ele>
        <time>2021-02-15T14:13:40Z</time>
      </trkpt>
      <trkpt lat="46.70962" lon="5.96968">
        <ele>646</ele>
        <time>2021-02-15T14:13:45Z</time>
      </trkpt>
      <trkpt lat="46.70967" lon="5.96966">
        <ele>645.6</ele>
        <time>2021-02-15T14:13:50Z</time>
      </trkpt>
      <trkpt lat="46.70972" lon="5.96963">
        <ele>645</ele>
        <time>2021-02-15T14:13:55Z</time>
      </trkpt>
      <trkpt lat="46.70977" lon="5.9696">
        <ele>644.4</ele>
        <time>2021-02-15T14:14:00Z</time>
      </trkpt>
      <trkpt lat="46.70981" lon="5.96957">
        <ele>643.7</ele>
        <time>2021-02-15T14:14:05Z</time>
      </trkpt>
      <trkpt lat="46.70986" lon="5.96954">
        <ele>642.9</ele>
        <time>2021-02-15T14:14:10Z</time>
      </trkpt>
      <trkpt lat="46.70991" lon="5.9695">
        <ele>642.7</ele>
        <time>2021-02-15T14:14:14Z</time>
      </trkpt>
      <trkpt lat="46.70995" lon="5.96946">
        <ele>642.7</ele>
        <time>2021-02-15T14:14:17Z</time>
      </trkpt>
      <trkpt lat="46.71001" lon="5.96944">
        <ele>642.4</ele>
        <time>2021-02-15T14:14:21Z</time>
      </trkpt>
      <trkpt lat="46.71006" lon="5.96941">
        <ele>642</ele>
        <time>2021-02-15T14:14:25Z</time>
      </trkpt>
      <trkpt lat="46.7101" lon="5.96939">
        <ele>641.7</ele>
        <time>2021-02-15T14:14:29Z</time>
      </trkpt>
      <trkpt lat="46.71016" lon="5.96937">
        <ele>641.7</ele>
        <time>2021-02-15T14:14:34Z</time>
      </trkpt>
      <trkpt lat="46.7102" lon="5.96935">
        <ele>641.7</ele>
        <time>2021-02-15T14:14:38Z</time>
      </trkpt>
      <trkpt lat="46.71025" lon="5.96933">
        <ele>641.7</ele>
        <time>2021-02-15T14:14:42Z</time>
      </trkpt>
      <trkpt lat="46.7103" lon="5.9693">
        <ele>641.6</ele>
        <time>2021-02-15T14:14:47Z</time>
      </trkpt>
      <trkpt lat="46.71034" lon="5.96927">
        <ele>641</ele>
        <time>2021-02-15T14:14:53Z</time>
      </trkpt>
      <trkpt lat="46.71039" lon="5.96925">
        <ele>640.4</ele>
        <time>2021-02-15T14:14:57Z</time>
      </trkpt>
      <trkpt lat="46.71043" lon="5.96922">
        <ele>640</ele>
        <time>2021-02-15T14:15:01Z</time>
      </trkpt>
      <trkpt lat="46.71048" lon="5.96918">
        <ele>639.6</ele>
        <time>2021-02-15T14:15:06Z</time>
      </trkpt>
      <trkpt lat="46.71052" lon="5.96916">
        <ele>639.4</ele>
        <time>2021-02-15T14:15:10Z</time>
      </trkpt>
      <trkpt lat="46.71057" lon="5.96914">
        <ele>639.3</ele>
        <time>2021-02-15T14:15:14Z</time>
      </trkpt>
      <trkpt lat="46.71062" lon="5.96912">
        <ele>638.8</ele>
        <time>2021-02-15T14:15:18Z</time>
      </trkpt>
      <trkpt lat="46.71067" lon="5.9691">
        <ele>638.2</ele>
        <time>2021-02-15T14:15:22Z</time>
      </trkpt>
      <trkpt lat="46.71071" lon="5.96909">
        <ele>637.7</ele>
        <time>2021-02-15T14:15:26Z</time>
      </trkpt>
      <trkpt lat="46.71076" lon="5.96906">
        <ele>637</ele>
        <time>2021-02-15T14:15:31Z</time>
      </trkpt>
      <trkpt lat="46.71081" lon="5.96903">
        <ele>636.6</ele>
        <time>2021-02-15T14:15:36Z</time>
      </trkpt>
      <trkpt lat="46.71086" lon="5.96902">
        <ele>636.5</ele>
        <time>2021-02-15T14:15:41Z</time>
      </trkpt>
      <trkpt lat="46.71091" lon="5.969">
        <ele>636.3</ele>
        <time>2021-02-15T14:15:45Z</time>
      </trkpt>
      <trkpt lat="46.71096" lon="5.96899">
        <ele>636</ele>
        <time>2021-02-15T14:15:49Z</time>
      </trkpt>
      <trkpt lat="46.71101" lon="5.96897">
        <ele>635.7</ele>
        <time>2021-02-15T14:15:54Z</time>
      </trkpt>
      <trkpt lat="46.71106" lon="5.96896">
        <ele>635.5</ele>
        <time>2021-02-15T14:15:58Z</time>
      </trkpt>
      <trkpt lat="46.71111" lon="5.96895">
        <ele>635.5</ele>
        <time>2021-02-15T14:16:03Z</time>
      </trkpt>
      <trkpt lat="46.71116" lon="5.96894">
        <ele>635.3</ele>
        <time>2021-02-15T14:16:07Z</time>
      </trkpt>
      <trkpt lat="46.7112" lon="5.96892">
        <ele>634.9</ele>
        <time>2021-02-15T14:16:11Z</time>
      </trkpt>
      <trkpt lat="46.71125" lon="5.96891">
        <ele>634.4</ele>
        <time>2021-02-15T14:16:15Z</time>
      </trkpt>
      <trkpt lat="46.7113" lon="5.96891">
        <ele>634</ele>
        <time>2021-02-15T14:16:20Z</time>
      </trkpt>
      <trkpt lat="46.71135" lon="5.96891">
        <ele>633.6</ele>
        <time>2021-02-15T14:16:25Z</time>
      </trkpt>
      <trkpt lat="46.7114" lon="5.96891">
        <ele>633</ele>
        <time>2021-02-15T14:16:29Z</time>
      </trkpt>
      <trkpt lat="46.71145" lon="5.96893">
        <ele>632.5</ele>
        <time>2021-02-15T14:16:34Z</time>
      </trkpt>
      <trkpt lat="46.7115" lon="5.96894">
        <ele>632.3</ele>
        <time>2021-02-15T14:16:38Z</time>
      </trkpt>
      <trkpt lat="46.71155" lon="5.96894">
        <ele>632.1</ele>
        <time>2021-02-15T14:16:43Z</time>
      </trkpt>
      <trkpt lat="46.7116" lon="5.96892">
        <ele>632</ele>
        <time>2021-02-15T14:16:47Z</time>
      </trkpt>
      <trkpt lat="46.71165" lon="5.96892">
        <ele>632</ele>
        <time>2021-02-15T14:16:51Z</time>
      </trkpt>
      <trkpt lat="46.71171" lon="5.96892">
        <ele>631.8</ele>
        <time>2021-02-15T14:16:55Z</time>
      </trkpt>
      <trkpt lat="46.71175" lon="5.96891">
        <ele>631.6</ele>
        <time>2021-02-15T14:16:59Z</time>
      </trkpt>
      <trkpt lat="46.7118" lon="5.96891">
        <ele>631.7</ele>
        <time>2021-02-15T14:17:03Z</time>
      </trkpt>
      <trkpt lat="46.71185" lon="5.9689">
        <ele>631.8</ele>
        <time>2021-02-15T14:17:07Z</time>
      </trkpt>
      <trkpt lat="46.7119" lon="5.96888">
        <ele>631.9</ele>
        <time>2021-02-15T14:17:11Z</time>
      </trkpt>
      <trkpt lat="46.71194" lon="5.96888">
        <ele>632</ele>
        <time>2021-02-15T14:17:15Z</time>
      </trkpt>
      <trkpt lat="46.71199" lon="5.96887">
        <ele>632.2</ele>
        <time>2021-02-15T14:17:19Z</time>
      </trkpt>
      <trkpt lat="46.71204" lon="5.96886">
        <ele>632.4</ele>
        <time>2021-02-15T14:17:24Z</time>
      </trkpt>
      <trkpt lat="46.71209" lon="5.96886">
        <ele>632.3</ele>
        <time>2021-02-15T14:17:28Z</time>
      </trkpt>
      <trkpt lat="46.71214" lon="5.96886">
        <ele>631.9</ele>
        <time>2021-02-15T14:17:32Z</time>
      </trkpt>
      <trkpt lat="46.71219" lon="5.96886">
        <ele>631.3</ele>
        <time>2021-02-15T14:17:36Z</time>
      </trkpt>
      <trkpt lat="46.71224" lon="5.96886">
        <ele>630.6</ele>
        <time>2021-02-15T14:17:41Z</time>
      </trkpt>
      <trkpt lat="46.71229" lon="5.96885">
        <ele>630.5</ele>
        <time>2021-02-15T14:17:46Z</time>
      </trkpt>
      <trkpt lat="46.71234" lon="5.96884">
        <ele>630.2</ele>
        <time>2021-02-15T14:17:50Z</time>
      </trkpt>
      <trkpt lat="46.71239" lon="5.96882">
        <ele>629.6</ele>
        <time>2021-02-15T14:17:54Z</time>
      </trkpt>
      <trkpt lat="46.71244" lon="5.96881">
        <ele>629.1</ele>
        <time>2021-02-15T14:17:58Z</time>
      </trkpt>
      <trkpt lat="46.71249" lon="5.9688">
        <ele>629</ele>
        <time>2021-02-15T14:18:03Z</time>
      </trkpt>
      <trkpt lat="46.71255" lon="5.9688">
        <ele>629.4</ele>
        <time>2021-02-15T14:18:08Z</time>
      </trkpt>
      <trkpt lat="46.7126" lon="5.96879">
        <ele>629.9</ele>
        <time>2021-02-15T14:18:13Z</time>
      </trkpt>
      <trkpt lat="46.71265" lon="5.96879">
        <ele>630.4</ele>
        <time>2021-02-15T14:18:17Z</time>
      </trkpt>
      <trkpt lat="46.71269" lon="5.96877">
        <ele>630.8</ele>
        <time>2021-02-15T14:18:21Z</time>
      </trkpt>
      <trkpt lat="46.71275" lon="5.96878">
        <ele>630.9</ele>
        <time>2021-02-15T14:18:26Z</time>
      </trkpt>
      <trkpt lat="46.7128" lon="5.96878">
        <ele>631</ele>
        <time>2021-02-15T14:18:31Z</time>
      </trkpt>
      <trkpt lat="46.71284" lon="5.96877">
        <ele>631</ele>
        <time>2021-02-15T14:18:35Z</time>
      </trkpt>
      <trkpt lat="46.7129" lon="5.96876">
        <ele>631.1</ele>
        <time>2021-02-15T14:18:40Z</time>
      </trkpt>
      <trkpt lat="46.71295" lon="5.96874">
        <ele>631.1</ele>
        <time>2021-02-15T14:18:45Z</time>
      </trkpt>
      <trkpt lat="46.713" lon="5.96874">
        <ele>631.3</ele>
        <time>2021-02-15T14:18:51Z</time>
      </trkpt>
      <trkpt lat="46.71305" lon="5.96874">
        <ele>631.5</ele>
        <time>2021-02-15T14:18:55Z</time>
      </trkpt>
      <trkpt lat="46.7131" lon="5.96874">
        <ele>631.6</ele>
        <time>2021-02-15T14:18:59Z</time>
      </trkpt>
      <trkpt lat="46.71316" lon="5.96873">
        <ele>631.4</ele>
        <time>2021-02-15T14:19:04Z</time>
      </trkpt>
      <trkpt lat="46.71321" lon="5.96872">
        <ele>631.2</ele>
        <time>2021-02-15T14:19:08Z</time>
      </trkpt>
      <trkpt lat="46.71326" lon="5.96871">
        <ele>630.8</ele>
        <time>2021-02-15T14:19:12Z</time>
      </trkpt>
      <trkpt lat="46.7133" lon="5.96871">
        <ele>630.3</ele>
        <time>2021-02-15T14:19:16Z</time>
      </trkpt>
      <trkpt lat="46.71335" lon="5.96871">
        <ele>629.7</ele>
        <time>2021-02-15T14:19:20Z</time>
      </trkpt>
      <trkpt lat="46.7134" lon="5.96871">
        <ele>628.9</ele>
        <time>2021-02-15T14:19:24Z</time>
      </trkpt>
      <trkpt lat="46.71345" lon="5.96869">
        <ele>627.5</ele>
        <time>2021-02-15T14:19:28Z</time>
      </trkpt>
      <trkpt lat="46.7135" lon="5.96868">
        <ele>626.1</ele>
        <time>2021-02-15T14:19:32Z</time>
      </trkpt>
      <trkpt lat="46.71355" lon="5.96866">
        <ele>624.9</ele>
        <time>2021-02-15T14:19:36Z</time>
      </trkpt>
      <trkpt lat="46.7136" lon="5.96864">
        <ele>624</ele>
        <time>2021-02-15T14:19:40Z</time>
      </trkpt>
      <trkpt lat="46.71365" lon="5.96862">
        <ele>623.1</ele>
        <time>2021-02-15T14:19:44Z</time>
      </trkpt>
      <trkpt lat="46.7137" lon="5.96862">
        <ele>622.3</ele>
        <time>2021-02-15T14:19:48Z</time>
      </trkpt>
      <trkpt lat="46.71376" lon="5.96862">
        <ele>621.6</ele>
        <time>2021-02-15T14:19:53Z</time>
      </trkpt>
      <trkpt lat="46.71381" lon="5.96864">
        <ele>621.3</ele>
        <time>2021-02-15T14:19:58Z</time>
      </trkpt>
      <trkpt lat="46.71386" lon="5.96865">
        <ele>621</ele>
        <time>2021-02-15T14:20:02Z</time>
      </trkpt>
      <trkpt lat="46.7139" lon="5.96866">
        <ele>620.8</ele>
        <time>2021-02-15T14:20:06Z</time>
      </trkpt>
      <trkpt lat="46.71395" lon="5.96869">
        <ele>620.9</ele>
        <time>2021-02-15T14:20:11Z</time>
      </trkpt>
      <trkpt lat="46.71401" lon="5.96871">
        <ele>621.1</ele>
        <time>2021-02-15T14:20:16Z</time>
      </trkpt>
      <trkpt lat="46.71405" lon="5.96873">
        <ele>621.3</ele>
        <time>2021-02-15T14:20:20Z</time>
      </trkpt>
      <trkpt lat="46.7141" lon="5.96875">
        <ele>621.8</ele>
        <time>2021-02-15T14:20:24Z</time>
      </trkpt>
      <trkpt lat="46.71414" lon="5.96877">
        <ele>622.4</ele>
        <time>2021-02-15T14:20:29Z</time>
      </trkpt>
      <trkpt lat="46.7142" lon="5.96879">
        <ele>622.6</ele>
        <time>2021-02-15T14:20:34Z</time>
      </trkpt>
      <trkpt lat="46.71424" lon="5.96881">
        <ele>622.6</ele>
        <time>2021-02-15T14:20:38Z</time>
      </trkpt>
      <trkpt lat="46.71429" lon="5.96883">
        <ele>622.7</ele>
        <time>2021-02-15T14:20:42Z</time>
      </trkpt>
      <trkpt lat="46.71433" lon="5.96886">
        <ele>622.9</ele>
        <time>2021-02-15T14:20:46Z</time>
      </trkpt>
      <trkpt lat="46.71438" lon="5.96889">
        <ele>623.3</ele>
        <time>2021-02-15T14:20:51Z</time>
      </trkpt>
      <trkpt lat="46.71442" lon="5.96892">
        <ele>623.3</ele>
        <time>2021-02-15T14:20:55Z</time>
      </trkpt>
      <trkpt lat="46.71447" lon="5.96893">
        <ele>623.1</ele>
        <time>2021-02-15T14:20:59Z</time>
      </trkpt>
      <trkpt lat="46.71452" lon="5.96895">
        <ele>623</ele>
        <time>2021-02-15T14:21:03Z</time>
      </trkpt>
      <trkpt lat="46.71458" lon="5.96897">
        <ele>622.6</ele>
        <time>2021-02-15T14:21:07Z</time>
      </trkpt>
      <trkpt lat="46.71463" lon="5.969">
        <ele>622.3</ele>
        <time>2021-02-15T14:21:12Z</time>
      </trkpt>
      <trkpt lat="46.71467" lon="5.96902">
        <ele>622</ele>
        <time>2021-02-15T14:21:16Z</time>
      </trkpt>
      <trkpt lat="46.71472" lon="5.96904">
        <ele>621.8</ele>
        <time>2021-02-15T14:21:20Z</time>
      </trkpt>
      <trkpt lat="46.71476" lon="5.96908">
        <ele>621.3</ele>
        <time>2021-02-15T14:21:24Z</time>
      </trkpt>
      <trkpt lat="46.7148" lon="5.96912">
        <ele>621</ele>
        <time>2021-02-15T14:21:28Z</time>
      </trkpt>
      <trkpt lat="46.71485" lon="5.96914">
        <ele>620.8</ele>
        <time>2021-02-15T14:21:32Z</time>
      </trkpt>
      <trkpt lat="46.71489" lon="5.96916">
        <ele>620.7</ele>
        <time>2021-02-15T14:21:36Z</time>
      </trkpt>
      <trkpt lat="46.71494" lon="5.96919">
        <ele>620.5</ele>
        <time>2021-02-15T14:21:40Z</time>
      </trkpt>
      <trkpt lat="46.71498" lon="5.96922">
        <ele>620.5</ele>
        <time>2021-02-15T14:21:44Z</time>
      </trkpt>
      <trkpt lat="46.71503" lon="5.96924">
        <ele>620.4</ele>
        <time>2021-02-15T14:21:48Z</time>
      </trkpt>
      <trkpt lat="46.71508" lon="5.96928">
        <ele>620.6</ele>
        <time>2021-02-15T14:21:53Z</time>
      </trkpt>
      <trkpt lat="46.71512" lon="5.9693">
        <ele>620.6</ele>
        <time>2021-02-15T14:21:57Z</time>
      </trkpt>
      <trkpt lat="46.71516" lon="5.96933">
        <ele>620.4</ele>
        <time>2021-02-15T14:22:01Z</time>
      </trkpt>
      <trkpt lat="46.71521" lon="5.96935">
        <ele>620</ele>
        <time>2021-02-15T14:22:05Z</time>
      </trkpt>
      <trkpt lat="46.71526" lon="5.96938">
        <ele>619.8</ele>
        <time>2021-02-15T14:22:09Z</time>
      </trkpt>
      <trkpt lat="46.7153" lon="5.9694">
        <ele>619.5</ele>
        <time>2021-02-15T14:22:13Z</time>
      </trkpt>
      <trkpt lat="46.71535" lon="5.96942">
        <ele>619.2</ele>
        <time>2021-02-15T14:22:17Z</time>
      </trkpt>
      <trkpt lat="46.7154" lon="5.96944">
        <ele>619.1</ele>
        <time>2021-02-15T14:22:21Z</time>
      </trkpt>
      <trkpt lat="46.71544" lon="5.96946">
        <ele>618.9</ele>
        <time>2021-02-15T14:22:25Z</time>
      </trkpt>
      <trkpt lat="46.71549" lon="5.96949">
        <ele>618.2</ele>
        <time>2021-02-15T14:22:30Z</time>
      </trkpt>
      <trkpt lat="46.71553" lon="5.96952">
        <ele>617.4</ele>
        <time>2021-02-15T14:22:35Z</time>
      </trkpt>
      <trkpt lat="46.71557" lon="5.96953">
        <ele>616.1</ele>
        <time>2021-02-15T14:22:42Z</time>
      </trkpt>
      <trkpt lat="46.71562" lon="5.96956">
        <ele>615.5</ele>
        <time>2021-02-15T14:22:55Z</time>
      </trkpt>
      <trkpt lat="46.71567" lon="5.96958">
        <ele>614.8</ele>
        <time>2021-02-15T14:23:02Z</time>
      </trkpt>
      <trkpt lat="46.71572" lon="5.96957">
        <ele>614.4</ele>
        <time>2021-02-15T14:23:06Z</time>
      </trkpt>
      <trkpt lat="46.71576" lon="5.96958">
        <ele>613.4</ele>
        <time>2021-02-15T14:23:13Z</time>
      </trkpt>
      <trkpt lat="46.71582" lon="5.96958">
        <ele>612.7</ele>
        <time>2021-02-15T14:23:25Z</time>
      </trkpt>
      <trkpt lat="46.71586" lon="5.9696">
        <ele>612.8</ele>
        <time>2021-02-15T14:23:29Z</time>
      </trkpt>
      <trkpt lat="46.71591" lon="5.96964">
        <ele>613.2</ele>
        <time>2021-02-15T14:23:34Z</time>
      </trkpt>
      <trkpt lat="46.71596" lon="5.96965">
        <ele>613.8</ele>
        <time>2021-02-15T14:23:38Z</time>
      </trkpt>
      <trkpt lat="46.71602" lon="5.96968">
        <ele>614.6</ele>
        <time>2021-02-15T14:23:43Z</time>
      </trkpt>
      <trkpt lat="46.71605" lon="5.96972">
        <ele>615.1</ele>
        <time>2021-02-15T14:23:47Z</time>
      </trkpt>
      <trkpt lat="46.7161" lon="5.96975">
        <ele>615.6</ele>
        <time>2021-02-15T14:23:51Z</time>
      </trkpt>
      <trkpt lat="46.71614" lon="5.96979">
        <ele>616.3</ele>
        <time>2021-02-15T14:23:56Z</time>
      </trkpt>
      <trkpt lat="46.71619" lon="5.96983">
        <ele>616.9</ele>
        <time>2021-02-15T14:24:01Z</time>
      </trkpt>
      <trkpt lat="46.71623" lon="5.96986">
        <ele>617.3</ele>
        <time>2021-02-15T14:24:05Z</time>
      </trkpt>
      <trkpt lat="46.71628" lon="5.96989">
        <ele>617.9</ele>
        <time>2021-02-15T14:24:10Z</time>
      </trkpt>
      <trkpt lat="46.71633" lon="5.96991">
        <ele>618.6</ele>
        <time>2021-02-15T14:24:15Z</time>
      </trkpt>
      <trkpt lat="46.71637" lon="5.96995">
        <ele>618.8</ele>
        <time>2021-02-15T14:24:20Z</time>
      </trkpt>
      <trkpt lat="46.71642" lon="5.96997">
        <ele>619</ele>
        <time>2021-02-15T14:24:24Z</time>
      </trkpt>
      <trkpt lat="46.71646" lon="5.96999">
        <ele>619.2</ele>
        <time>2021-02-15T14:24:28Z</time>
      </trkpt>
      <trkpt lat="46.71651" lon="5.97001">
        <ele>619.2</ele>
        <time>2021-02-15T14:24:32Z</time>
      </trkpt>
      <trkpt lat="46.71655" lon="5.97005">
        <ele>619</ele>
        <time>2021-02-15T14:24:37Z</time>
      </trkpt>
      <trkpt lat="46.71661" lon="5.97008">
        <ele>618.9</ele>
        <time>2021-02-15T14:24:42Z</time>
      </trkpt>
      <trkpt lat="46.71665" lon="5.9701">
        <ele>618.7</ele>
        <time>2021-02-15T14:24:46Z</time>
      </trkpt>
      <trkpt lat="46.7167" lon="5.97012">
        <ele>618.4</ele>
        <time>2021-02-15T14:24:50Z</time>
      </trkpt>
      <trkpt lat="46.71675" lon="5.97014">
        <ele>617.7</ele>
        <time>2021-02-15T14:24:54Z</time>
      </trkpt>
      <trkpt lat="46.7168" lon="5.97017">
        <ele>617.4</ele>
        <time>2021-02-15T14:24:58Z</time>
      </trkpt>
      <trkpt lat="46.71684" lon="5.97019">
        <ele>617.2</ele>
        <time>2021-02-15T14:25:02Z</time>
      </trkpt>
      <trkpt lat="46.71689" lon="5.97021">
        <ele>616.8</ele>
        <time>2021-02-15T14:25:06Z</time>
      </trkpt>
      <trkpt lat="46.71694" lon="5.97023">
        <ele>616.6</ele>
        <time>2021-02-15T14:25:10Z</time>
      </trkpt>
      <trkpt lat="46.71699" lon="5.97024">
        <ele>616.6</ele>
        <time>2021-02-15T14:25:14Z</time>
      </trkpt>
      <trkpt lat="46.71705" lon="5.97026">
        <ele>616.2</ele>
        <time>2021-02-15T14:25:19Z</time>
      </trkpt>
      <trkpt lat="46.7171" lon="5.97028">
        <ele>615.9</ele>
        <time>2021-02-15T14:25:23Z</time>
      </trkpt>
      <trkpt lat="46.71715" lon="5.97029">
        <ele>615.4</ele>
        <time>2021-02-15T14:25:27Z</time>
      </trkpt>
      <trkpt lat="46.71719" lon="5.9703">
        <ele>615</ele>
        <time>2021-02-15T14:25:31Z</time>
      </trkpt>
      <trkpt lat="46.71725" lon="5.9703">
        <ele>614.5</ele>
        <time>2021-02-15T14:25:36Z</time>
      </trkpt>
      <trkpt lat="46.7173" lon="5.9703">
        <ele>614.4</ele>
        <time>2021-02-15T14:25:41Z</time>
      </trkpt>
      <trkpt lat="46.71734" lon="5.9703">
        <ele>614.4</ele>
        <time>2021-02-15T14:25:45Z</time>
      </trkpt>
      <trkpt lat="46.7174" lon="5.9703">
        <ele>614.1</ele>
        <time>2021-02-15T14:25:50Z</time>
      </trkpt>
      <trkpt lat="46.71745" lon="5.97029">
        <ele>613.6</ele>
        <time>2021-02-15T14:25:54Z</time>
      </trkpt>
      <trkpt lat="46.71751" lon="5.97028">
        <ele>613.1</ele>
        <time>2021-02-15T14:25:58Z</time>
      </trkpt>
      <trkpt lat="46.71756" lon="5.97026">
        <ele>612.5</ele>
        <time>2021-02-15T14:26:02Z</time>
      </trkpt>
      <trkpt lat="46.71761" lon="5.97024">
        <ele>612.2</ele>
        <time>2021-02-15T14:26:06Z</time>
      </trkpt>
      <trkpt lat="46.71766" lon="5.97024">
        <ele>611.8</ele>
        <time>2021-02-15T14:26:10Z</time>
      </trkpt>
      <trkpt lat="46.71771" lon="5.97024">
        <ele>611.7</ele>
        <time>2021-02-15T14:26:14Z</time>
      </trkpt>
      <trkpt lat="46.71776" lon="5.97023">
        <ele>611.7</ele>
        <time>2021-02-15T14:26:18Z</time>
      </trkpt>
      <trkpt lat="46.7178" lon="5.97022">
        <ele>611.7</ele>
        <time>2021-02-15T14:26:22Z</time>
      </trkpt>
      <trkpt lat="46.71785" lon="5.9702">
        <ele>611.7</ele>
        <time>2021-02-15T14:26:26Z</time>
      </trkpt>
      <trkpt lat="46.7179" lon="5.97018">
        <ele>611.7</ele>
        <time>2021-02-15T14:26:30Z</time>
      </trkpt>
      <trkpt lat="46.71794" lon="5.97018">
        <ele>611.7</ele>
        <time>2021-02-15T14:26:34Z</time>
      </trkpt>
      <trkpt lat="46.71799" lon="5.97018">
        <ele>611.5</ele>
        <time>2021-02-15T14:26:38Z</time>
      </trkpt>
      <trkpt lat="46.71804" lon="5.97017">
        <ele>611.4</ele>
        <time>2021-02-15T14:26:42Z</time>
      </trkpt>
      <trkpt lat="46.71809" lon="5.97018">
        <ele>611.2</ele>
        <time>2021-02-15T14:26:47Z</time>
      </trkpt>
      <trkpt lat="46.71815" lon="5.97019">
        <ele>610.9</ele>
        <time>2021-02-15T14:26:52Z</time>
      </trkpt>
      <trkpt lat="46.71819" lon="5.97018">
        <ele>610.7</ele>
        <time>2021-02-15T14:26:56Z</time>
      </trkpt>
      <trkpt lat="46.71824" lon="5.97018">
        <ele>610.5</ele>
        <time>2021-02-15T14:27:00Z</time>
      </trkpt>
      <trkpt lat="46.71829" lon="5.9702">
        <ele>610.3</ele>
        <time>2021-02-15T14:27:04Z</time>
      </trkpt>
      <trkpt lat="46.71834" lon="5.97021">
        <ele>610.2</ele>
        <time>2021-02-15T14:27:08Z</time>
      </trkpt>
      <trkpt lat="46.71839" lon="5.97024">
        <ele>610.2</ele>
        <time>2021-02-15T14:27:13Z</time>
      </trkpt>
      <trkpt lat="46.71844" lon="5.97027">
        <ele>610.2</ele>
        <time>2021-02-15T14:27:18Z</time>
      </trkpt>
      <trkpt lat="46.71848" lon="5.97032">
        <ele>610.2</ele>
        <time>2021-02-15T14:27:23Z</time>
      </trkpt>
      <trkpt lat="46.71852" lon="5.97036">
        <ele>610.3</ele>
        <time>2021-02-15T14:27:27Z</time>
      </trkpt>
      <trkpt lat="46.71855" lon="5.97042">
        <ele>610.8</ele>
        <time>2021-02-15T14:27:32Z</time>
      </trkpt>
      <trkpt lat="46.71859" lon="5.97047">
        <ele>611.1</ele>
        <time>2021-02-15T14:27:36Z</time>
      </trkpt>
      <trkpt lat="46.71864" lon="5.97052">
        <ele>611.1</ele>
        <time>2021-02-15T14:27:40Z</time>
      </trkpt>
      <trkpt lat="46.71868" lon="5.97055">
        <ele>611.1</ele>
        <time>2021-02-15T14:27:44Z</time>
      </trkpt>
      <trkpt lat="46.71873" lon="5.97058">
        <ele>611.1</ele>
        <time>2021-02-15T14:27:48Z</time>
      </trkpt>
      <trkpt lat="46.71877" lon="5.97061">
        <ele>611</ele>
        <time>2021-02-15T14:27:52Z</time>
      </trkpt>
      <trkpt lat="46.71882" lon="5.97063">
        <ele>611.2</ele>
        <time>2021-02-15T14:27:56Z</time>
      </trkpt>
      <trkpt lat="46.71886" lon="5.97065">
        <ele>611.3</ele>
        <time>2021-02-15T14:28:00Z</time>
      </trkpt>
      <trkpt lat="46.7189" lon="5.97067">
        <ele>611.5</ele>
        <time>2021-02-15T14:28:04Z</time>
      </trkpt>
      <trkpt lat="46.71895" lon="5.9707">
        <ele>611.6</ele>
        <time>2021-02-15T14:28:08Z</time>
      </trkpt>
      <trkpt lat="46.719" lon="5.97072">
        <ele>611.4</ele>
        <time>2021-02-15T14:28:12Z</time>
      </trkpt>
      <trkpt lat="46.71904" lon="5.97074">
        <ele>611.2</ele>
        <time>2021-02-15T14:28:16Z</time>
      </trkpt>
      <trkpt lat="46.71909" lon="5.97077">
        <ele>610.9</ele>
        <time>2021-02-15T14:28:21Z</time>
      </trkpt>
      <trkpt lat="46.71914" lon="5.9708">
        <ele>610.9</ele>
        <time>2021-02-15T14:28:25Z</time>
      </trkpt>
      <trkpt lat="46.71918" lon="5.97082">
        <ele>611</ele>
        <time>2021-02-15T14:28:29Z</time>
      </trkpt>
      <trkpt lat="46.71922" lon="5.97084">
        <ele>611</ele>
        <time>2021-02-15T14:28:33Z</time>
      </trkpt>
      <trkpt lat="46.71927" lon="5.97085">
        <ele>610.9</ele>
        <time>2021-02-15T14:28:37Z</time>
      </trkpt>
      <trkpt lat="46.71932" lon="5.97087">
        <ele>611</ele>
        <time>2021-02-15T14:28:41Z</time>
      </trkpt>
      <trkpt lat="46.71937" lon="5.9709">
        <ele>611.3</ele>
        <time>2021-02-15T14:28:45Z</time>
      </trkpt>
      <trkpt lat="46.71941" lon="5.97092">
        <ele>611.4</ele>
        <time>2021-02-15T14:28:49Z</time>
      </trkpt>
      <trkpt lat="46.71946" lon="5.97093">
        <ele>611.4</ele>
        <time>2021-02-15T14:28:53Z</time>
      </trkpt>
      <trkpt lat="46.71952" lon="5.97093">
        <ele>611.2</ele>
        <time>2021-02-15T14:28:57Z</time>
      </trkpt>
      <trkpt lat="46.71956" lon="5.97095">
        <ele>610.9</ele>
        <time>2021-02-15T14:29:01Z</time>
      </trkpt>
      <trkpt lat="46.71962" lon="5.97096">
        <ele>610.6</ele>
        <time>2021-02-15T14:29:06Z</time>
      </trkpt>
      <trkpt lat="46.71966" lon="5.97097">
        <ele>610.5</ele>
        <time>2021-02-15T14:29:10Z</time>
      </trkpt>
      <trkpt lat="46.71972" lon="5.97098">
        <ele>610.8</ele>
        <time>2021-02-15T14:29:15Z</time>
      </trkpt>
      <trkpt lat="46.71977" lon="5.97099">
        <ele>611.3</ele>
        <time>2021-02-15T14:29:20Z</time>
      </trkpt>
      <trkpt lat="46.71982" lon="5.971">
        <ele>611.7</ele>
        <time>2021-02-15T14:29:24Z</time>
      </trkpt>
      <trkpt lat="46.71987" lon="5.97101">
        <ele>612</ele>
        <time>2021-02-15T14:29:28Z</time>
      </trkpt>
      <trkpt lat="46.71992" lon="5.97103">
        <ele>612.1</ele>
        <time>2021-02-15T14:29:32Z</time>
      </trkpt>
      <trkpt lat="46.71997" lon="5.97104">
        <ele>611.7</ele>
        <time>2021-02-15T14:29:36Z</time>
      </trkpt>
      <trkpt lat="46.72002" lon="5.97106">
        <ele>611.4</ele>
        <time>2021-02-15T14:29:40Z</time>
      </trkpt>
      <trkpt lat="46.72006" lon="5.97108">
        <ele>610.8</ele>
        <time>2021-02-15T14:29:46Z</time>
      </trkpt>
      <trkpt lat="46.72011" lon="5.97107">
        <ele>609.6</ele>
        <time>2021-02-15T14:30:31Z</time>
      </trkpt>
      <trkpt lat="46.72016" lon="5.97108">
        <ele>609.5</ele>
        <time>2021-02-15T14:30:36Z</time>
      </trkpt>
      <trkpt lat="46.72021" lon="5.97108">
        <ele>609.3</ele>
        <time>2021-02-15T14:30:41Z</time>
      </trkpt>
      <trkpt lat="46.72027" lon="5.9711">
        <ele>609</ele>
        <time>2021-02-15T14:30:46Z</time>
      </trkpt>
      <trkpt lat="46.72031" lon="5.97112">
        <ele>608.6</ele>
        <time>2021-02-15T14:30:50Z</time>
      </trkpt>
      <trkpt lat="46.72036" lon="5.97114">
        <ele>608.1</ele>
        <time>2021-02-15T14:30:54Z</time>
      </trkpt>
      <trkpt lat="46.7204" lon="5.97115">
        <ele>607.5</ele>
        <time>2021-02-15T14:30:58Z</time>
      </trkpt>
      <trkpt lat="46.72045" lon="5.97116">
        <ele>607</ele>
        <time>2021-02-15T14:31:02Z</time>
      </trkpt>
      <trkpt lat="46.7205" lon="5.97117">
        <ele>606.8</ele>
        <time>2021-02-15T14:31:07Z</time>
      </trkpt>
      <trkpt lat="46.72056" lon="5.97118">
        <ele>606.7</ele>
        <time>2021-02-15T14:31:12Z</time>
      </trkpt>
      <trkpt lat="46.7206" lon="5.9712">
        <ele>606.8</ele>
        <time>2021-02-15T14:31:16Z</time>
      </trkpt>
      <trkpt lat="46.72065" lon="5.97121">
        <ele>607</ele>
        <time>2021-02-15T14:31:20Z</time>
      </trkpt>
      <trkpt lat="46.7207" lon="5.97122">
        <ele>607</ele>
        <time>2021-02-15T14:31:24Z</time>
      </trkpt>
      <trkpt lat="46.72075" lon="5.97123">
        <ele>607.2</ele>
        <time>2021-02-15T14:31:28Z</time>
      </trkpt>
      <trkpt lat="46.7208" lon="5.97124">
        <ele>607.4</ele>
        <time>2021-02-15T14:31:33Z</time>
      </trkpt>
      <trkpt lat="46.72086" lon="5.97126">
        <ele>607.7</ele>
        <time>2021-02-15T14:31:38Z</time>
      </trkpt>
      <trkpt lat="46.7209" lon="5.97128">
        <ele>607.7</ele>
        <time>2021-02-15T14:31:42Z</time>
      </trkpt>
      <trkpt lat="46.72095" lon="5.97129">
        <ele>607.4</ele>
        <time>2021-02-15T14:31:46Z</time>
      </trkpt>
      <trkpt lat="46.721" lon="5.97131">
        <ele>607.1</ele>
        <time>2021-02-15T14:31:51Z</time>
      </trkpt>
      <trkpt lat="46.72104" lon="5.97135">
        <ele>607.1</ele>
        <time>2021-02-15T14:31:56Z</time>
      </trkpt>
      <trkpt lat="46.72109" lon="5.97138">
        <ele>607.1</ele>
        <time>2021-02-15T14:32:00Z</time>
      </trkpt>
      <trkpt lat="46.72113" lon="5.97142">
        <ele>607.3</ele>
        <time>2021-02-15T14:32:04Z</time>
      </trkpt>
      <trkpt lat="46.72118" lon="5.97146">
        <ele>607.4</ele>
        <time>2021-02-15T14:32:08Z</time>
      </trkpt>
      <trkpt lat="46.72121" lon="5.97149">
        <ele>607.7</ele>
        <time>2021-02-15T14:32:12Z</time>
      </trkpt>
      <trkpt lat="46.72126" lon="5.97152">
        <ele>607.9</ele>
        <time>2021-02-15T14:32:16Z</time>
      </trkpt>
      <trkpt lat="46.72131" lon="5.97157">
        <ele>607.9</ele>
        <time>2021-02-15T14:32:21Z</time>
      </trkpt>
      <trkpt lat="46.72135" lon="5.9716">
        <ele>608</ele>
        <time>2021-02-15T14:32:25Z</time>
      </trkpt>
      <trkpt lat="46.72139" lon="5.97163">
        <ele>608.2</ele>
        <time>2021-02-15T14:32:29Z</time>
      </trkpt>
      <trkpt lat="46.72143" lon="5.97167">
        <ele>608.2</ele>
        <time>2021-02-15T14:32:33Z</time>
      </trkpt>
      <trkpt lat="46.72147" lon="5.97171">
        <ele>608.1</ele>
        <time>2021-02-15T14:32:37Z</time>
      </trkpt>
      <trkpt lat="46.72151" lon="5.97175">
        <ele>607.2</ele>
        <time>2021-02-15T14:32:44Z</time>
      </trkpt>
      <trkpt lat="46.72155" lon="5.97179">
        <ele>606.2</ele>
        <time>2021-02-15T14:32:49Z</time>
      </trkpt>
      <trkpt lat="46.7216" lon="5.97182">
        <ele>605</ele>
        <time>2021-02-15T14:32:55Z</time>
      </trkpt>
      <trkpt lat="46.72162" lon="5.97189">
        <ele>604.8</ele>
        <time>2021-02-15T14:33:47Z</time>
      </trkpt>
      <trkpt lat="46.72165" lon="5.97194">
        <ele>604.9</ele>
        <time>2021-02-15T14:33:52Z</time>
      </trkpt>
      <trkpt lat="46.72168" lon="5.972">
        <ele>604.9</ele>
        <time>2021-02-15T14:33:56Z</time>
      </trkpt>
      <trkpt lat="46.72171" lon="5.97206">
        <ele>605</ele>
        <time>2021-02-15T14:34:01Z</time>
      </trkpt>
      <trkpt lat="46.72175" lon="5.97212">
        <ele>604.9</ele>
        <time>2021-02-15T14:34:06Z</time>
      </trkpt>
      <trkpt lat="46.72178" lon="5.97218">
        <ele>604.8</ele>
        <time>2021-02-15T14:34:11Z</time>
      </trkpt>
      <trkpt lat="46.72181" lon="5.97225">
        <ele>604.6</ele>
        <time>2021-02-15T14:34:16Z</time>
      </trkpt>
      <trkpt lat="46.72185" lon="5.97231">
        <ele>604.3</ele>
        <time>2021-02-15T14:34:21Z</time>
      </trkpt>
      <trkpt lat="46.72188" lon="5.97237">
        <ele>604.9</ele>
        <time>2021-02-15T14:34:26Z</time>
      </trkpt>
      <trkpt lat="46.72191" lon="5.97242">
        <ele>605.2</ele>
        <time>2021-02-15T14:34:30Z</time>
      </trkpt>
      <trkpt lat="46.72194" lon="5.97248">
        <ele>604.9</ele>
        <time>2021-02-15T14:34:35Z</time>
      </trkpt>
      <trkpt lat="46.72198" lon="5.97254">
        <ele>604.3</ele>
        <time>2021-02-15T14:34:40Z</time>
      </trkpt>
      <trkpt lat="46.72201" lon="5.97258">
        <ele>604.1</ele>
        <time>2021-02-15T14:34:44Z</time>
      </trkpt>
      <trkpt lat="46.72204" lon="5.97264">
        <ele>603.9</ele>
        <time>2021-02-15T14:34:49Z</time>
      </trkpt>
      <trkpt lat="46.72207" lon="5.97269">
        <ele>604.1</ele>
        <time>2021-02-15T14:35:47Z</time>
      </trkpt>
      <trkpt lat="46.72211" lon="5.97273">
        <ele>603.8</ele>
        <time>2021-02-15T14:35:55Z</time>
      </trkpt>
      <trkpt lat="46.72215" lon="5.97278">
        <ele>604.2</ele>
        <time>2021-02-15T14:36:00Z</time>
      </trkpt>
      <trkpt lat="46.72217" lon="5.97285">
        <ele>605.2</ele>
        <time>2021-02-15T14:36:05Z</time>
      </trkpt>
      <trkpt lat="46.72221" lon="5.97288">
        <ele>607.7</ele>
        <time>2021-02-15T14:36:12Z</time>
      </trkpt>
      <trkpt lat="46.72228" lon="5.97296">
        <ele>608.5</ele>
        <time>2021-02-15T14:36:19Z</time>
      </trkpt>
      <trkpt lat="46.72233" lon="5.97299">
        <ele>608</ele>
        <time>2021-02-15T14:36:22Z</time>
      </trkpt>
      <trkpt lat="46.72239" lon="5.97304">
        <ele>608.7</ele>
        <time>2021-02-15T14:36:26Z</time>
      </trkpt>
      <trkpt lat="46.72243" lon="5.97308">
        <ele>608.2</ele>
        <time>2021-02-15T14:36:29Z</time>
      </trkpt>
      <trkpt lat="46.72248" lon="5.97311">
        <ele>610.1</ele>
        <time>2021-02-15T14:36:32Z</time>
      </trkpt>
      <trkpt lat="46.72252" lon="5.97314">
        <ele>612</ele>
        <time>2021-02-15T14:36:36Z</time>
      </trkpt>
      <trkpt lat="46.72256" lon="5.97319">
        <ele>612.9</ele>
        <time>2021-02-15T14:36:41Z</time>
      </trkpt>
      <trkpt lat="46.7226" lon="5.97323">
        <ele>613.1</ele>
        <time>2021-02-15T14:36:45Z</time>
      </trkpt>
      <trkpt lat="46.72264" lon="5.97328">
        <ele>613.3</ele>
        <time>2021-02-15T14:36:50Z</time>
      </trkpt>
      <trkpt lat="46.72268" lon="5.97333">
        <ele>613.7</ele>
        <time>2021-02-15T14:36:54Z</time>
      </trkpt>
      <trkpt lat="46.72271" lon="5.97339">
        <ele>614.1</ele>
        <time>2021-02-15T14:36:58Z</time>
      </trkpt>
      <trkpt lat="46.72274" lon="5.97344">
        <ele>614.3</ele>
        <time>2021-02-15T14:37:02Z</time>
      </trkpt>
      <trkpt lat="46.72278" lon="5.97349">
        <ele>614.4</ele>
        <time>2021-02-15T14:37:06Z</time>
      </trkpt>
      <trkpt lat="46.72281" lon="5.97354">
        <ele>614.3</ele>
        <time>2021-02-15T14:37:10Z</time>
      </trkpt>
      <trkpt lat="46.72284" lon="5.97359">
        <ele>613.9</ele>
        <time>2021-02-15T14:37:14Z</time>
      </trkpt>
      <trkpt lat="46.72288" lon="5.97363">
        <ele>613.4</ele>
        <time>2021-02-15T14:37:18Z</time>
      </trkpt>
      <trkpt lat="46.72291" lon="5.97369">
        <ele>612.8</ele>
        <time>2021-02-15T14:37:23Z</time>
      </trkpt>
      <trkpt lat="46.72295" lon="5.97375">
        <ele>612.2</ele>
        <time>2021-02-15T14:37:28Z</time>
      </trkpt>
      <trkpt lat="46.72298" lon="5.9738">
        <ele>612</ele>
        <time>2021-02-15T14:37:32Z</time>
      </trkpt>
      <trkpt lat="46.72302" lon="5.97386">
        <ele>611.8</ele>
        <time>2021-02-15T14:37:37Z</time>
      </trkpt>
      <trkpt lat="46.72307" lon="5.9739">
        <ele>611.8</ele>
        <time>2021-02-15T14:37:42Z</time>
      </trkpt>
      <trkpt lat="46.72311" lon="5.97396">
        <ele>611.7</ele>
        <time>2021-02-15T14:37:47Z</time>
      </trkpt>
      <trkpt lat="46.72314" lon="5.974">
        <ele>611.3</ele>
        <time>2021-02-15T14:37:51Z</time>
      </trkpt>
      <trkpt lat="46.72318" lon="5.97405">
        <ele>610.8</ele>
        <time>2021-02-15T14:37:55Z</time>
      </trkpt>
      <trkpt lat="46.72322" lon="5.97409">
        <ele>610.5</ele>
        <time>2021-02-15T14:37:59Z</time>
      </trkpt>
      <trkpt lat="46.72325" lon="5.97414">
        <ele>610.2</ele>
        <time>2021-02-15T14:38:04Z</time>
      </trkpt>
      <trkpt lat="46.72329" lon="5.97419">
        <ele>610</ele>
        <time>2021-02-15T14:38:08Z</time>
      </trkpt>
      <trkpt lat="46.72333" lon="5.97423">
        <ele>609.8</ele>
        <time>2021-02-15T14:38:12Z</time>
      </trkpt>
      <trkpt lat="46.72337" lon="5.97428">
        <ele>609.4</ele>
        <time>2021-02-15T14:38:16Z</time>
      </trkpt>
      <trkpt lat="46.72341" lon="5.97431">
        <ele>609.1</ele>
        <time>2021-02-15T14:38:20Z</time>
      </trkpt>
      <trkpt lat="46.72345" lon="5.97436">
        <ele>608.6</ele>
        <time>2021-02-15T14:38:25Z</time>
      </trkpt>
      <trkpt lat="46.7235" lon="5.9744">
        <ele>608</ele>
        <time>2021-02-15T14:38:30Z</time>
      </trkpt>
      <trkpt lat="46.72355" lon="5.97443">
        <ele>607.3</ele>
        <time>2021-02-15T14:38:34Z</time>
      </trkpt>
      <trkpt lat="46.72359" lon="5.97446">
        <ele>606.8</ele>
        <time>2021-02-15T14:38:38Z</time>
      </trkpt>
      <trkpt lat="46.72363" lon="5.97451">
        <ele>606.2</ele>
        <time>2021-02-15T14:38:43Z</time>
      </trkpt>
      <trkpt lat="46.72368" lon="5.97454">
        <ele>605.8</ele>
        <time>2021-02-15T14:38:50Z</time>
      </trkpt>
      <trkpt lat="46.72372" lon="5.97457">
        <ele>605.5</ele>
        <time>2021-02-15T14:38:58Z</time>
      </trkpt>
      <trkpt lat="46.72376" lon="5.97461">
        <ele>605.9</ele>
        <time>2021-02-15T14:39:42Z</time>
      </trkpt>
      <trkpt lat="46.7238" lon="5.97464">
        <ele>605.9</ele>
        <time>2021-02-15T14:39:47Z</time>
      </trkpt>
      <trkpt lat="46.72385" lon="5.97466">
        <ele>605.9</ele>
        <time>2021-02-15T14:39:52Z</time>
      </trkpt>
      <trkpt lat="46.72391" lon="5.97468">
        <ele>606.7</ele>
        <time>2021-02-15T14:40:05Z</time>
      </trkpt>
      <trkpt lat="46.72395" lon="5.97471">
        <ele>606.9</ele>
        <time>2021-02-15T14:40:09Z</time>
      </trkpt>
      <trkpt lat="46.72399" lon="5.97474">
        <ele>607.1</ele>
        <time>2021-02-15T14:40:13Z</time>
      </trkpt>
      <trkpt lat="46.72404" lon="5.97476">
        <ele>607.3</ele>
        <time>2021-02-15T14:40:17Z</time>
      </trkpt>
      <trkpt lat="46.7241" lon="5.97479">
        <ele>606.9</ele>
        <time>2021-02-15T14:40:22Z</time>
      </trkpt>
      <trkpt lat="46.72414" lon="5.97482">
        <ele>606.4</ele>
        <time>2021-02-15T14:40:26Z</time>
      </trkpt>
      <trkpt lat="46.72418" lon="5.97487">
        <ele>606.1</ele>
        <time>2021-02-15T14:40:31Z</time>
      </trkpt>
      <trkpt lat="46.72422" lon="5.97491">
        <ele>606.4</ele>
        <time>2021-02-15T14:40:36Z</time>
      </trkpt>
      <trkpt lat="46.72426" lon="5.97495">
        <ele>607</ele>
        <time>2021-02-15T14:40:40Z</time>
      </trkpt>
      <trkpt lat="46.72429" lon="5.97501">
        <ele>607.7</ele>
        <time>2021-02-15T14:40:46Z</time>
      </trkpt>
      <trkpt lat="46.72431" lon="5.97509">
        <ele>607.2</ele>
        <time>2021-02-15T14:40:51Z</time>
      </trkpt>
      <trkpt lat="46.72434" lon="5.97515">
        <ele>607.2</ele>
        <time>2021-02-15T14:40:56Z</time>
      </trkpt>
      <trkpt lat="46.72437" lon="5.9752">
        <ele>606.6</ele>
        <time>2021-02-15T14:41:02Z</time>
      </trkpt>
      <trkpt lat="46.72441" lon="5.97525">
        <ele>606.9</ele>
        <time>2021-02-15T14:41:06Z</time>
      </trkpt>
      <trkpt lat="46.72444" lon="5.97529">
        <ele>608.1</ele>
        <time>2021-02-15T14:41:10Z</time>
      </trkpt>
      <trkpt lat="46.72449" lon="5.97534">
        <ele>609.3</ele>
        <time>2021-02-15T14:41:14Z</time>
      </trkpt>
      <trkpt lat="46.72452" lon="5.97539">
        <ele>610</ele>
        <time>2021-02-15T14:41:17Z</time>
      </trkpt>
      <trkpt lat="46.72456" lon="5.97544">
        <ele>610.8</ele>
        <time>2021-02-15T14:41:21Z</time>
      </trkpt>
      <trkpt lat="46.7246" lon="5.97547">
        <ele>611.6</ele>
        <time>2021-02-15T14:41:25Z</time>
      </trkpt>
      <trkpt lat="46.72464" lon="5.97551">
        <ele>612.3</ele>
        <time>2021-02-15T14:41:29Z</time>
      </trkpt>
      <trkpt lat="46.72468" lon="5.97555">
        <ele>613</ele>
        <time>2021-02-15T14:41:34Z</time>
      </trkpt>
      <trkpt lat="46.72473" lon="5.9756">
        <ele>613.4</ele>
        <time>2021-02-15T14:41:39Z</time>
      </trkpt>
      <trkpt lat="46.72476" lon="5.97565">
        <ele>613.8</ele>
        <time>2021-02-15T14:41:44Z</time>
      </trkpt>
      <trkpt lat="46.7248" lon="5.9757">
        <ele>614</ele>
        <time>2021-02-15T14:41:49Z</time>
      </trkpt>
      <trkpt lat="46.72484" lon="5.97574">
        <ele>614</ele>
        <time>2021-02-15T14:41:53Z</time>
      </trkpt>
      <trkpt lat="46.72488" lon="5.97579">
        <ele>613.7</ele>
        <time>2021-02-15T14:42:04Z</time>
      </trkpt>
      <trkpt lat="46.72492" lon="5.97583">
        <ele>613.9</ele>
        <time>2021-02-15T14:42:08Z</time>
      </trkpt>
      <trkpt lat="46.72496" lon="5.97588">
        <ele>613.7</ele>
        <time>2021-02-15T14:42:13Z</time>
      </trkpt>
      <trkpt lat="46.72501" lon="5.97593">
        <ele>613.5</ele>
        <time>2021-02-15T14:42:18Z</time>
      </trkpt>
      <trkpt lat="46.72505" lon="5.97597">
        <ele>613.5</ele>
        <time>2021-02-15T14:42:22Z</time>
      </trkpt>
      <trkpt lat="46.72509" lon="5.97602">
        <ele>612</ele>
        <time>2021-02-15T14:42:43Z</time>
      </trkpt>
      <trkpt lat="46.72513" lon="5.97606">
        <ele>612.2</ele>
        <time>2021-02-15T14:42:48Z</time>
      </trkpt>
      <trkpt lat="46.72518" lon="5.9761">
        <ele>612.1</ele>
        <time>2021-02-15T14:42:53Z</time>
      </trkpt>
      <trkpt lat="46.72521" lon="5.97614">
        <ele>612.1</ele>
        <time>2021-02-15T14:42:57Z</time>
      </trkpt>
      <trkpt lat="46.72526" lon="5.97618">
        <ele>612</ele>
        <time>2021-02-15T14:43:01Z</time>
      </trkpt>
      <trkpt lat="46.7253" lon="5.97622">
        <ele>611.6</ele>
        <time>2021-02-15T14:43:05Z</time>
      </trkpt>
      <trkpt lat="46.72533" lon="5.97626">
        <ele>611.2</ele>
        <time>2021-02-15T14:43:09Z</time>
      </trkpt>
      <trkpt lat="46.72537" lon="5.97631">
        <ele>611.2</ele>
        <time>2021-02-15T14:43:13Z</time>
      </trkpt>
      <trkpt lat="46.72541" lon="5.97636">
        <ele>611.3</ele>
        <time>2021-02-15T14:43:18Z</time>
      </trkpt>
      <trkpt lat="46.72544" lon="5.9764">
        <ele>611.6</ele>
        <time>2021-02-15T14:43:22Z</time>
      </trkpt>
      <trkpt lat="46.72548" lon="5.97644">
        <ele>611.9</ele>
        <time>2021-02-15T14:43:26Z</time>
      </trkpt>
      <trkpt lat="46.72552" lon="5.97649">
        <ele>612.2</ele>
        <time>2021-02-15T14:43:30Z</time>
      </trkpt>
      <trkpt lat="46.72556" lon="5.97654">
        <ele>612.1</ele>
        <time>2021-02-15T14:43:34Z</time>
      </trkpt>
      <trkpt lat="46.7256" lon="5.97659">
        <ele>611.8</ele>
        <time>2021-02-15T14:43:39Z</time>
      </trkpt>
      <trkpt lat="46.72564" lon="5.97662">
        <ele>611.5</ele>
        <time>2021-02-15T14:44:03Z</time>
      </trkpt>
      <trkpt lat="46.72568" lon="5.97666">
        <ele>611.6</ele>
        <time>2021-02-15T14:44:08Z</time>
      </trkpt>
      <trkpt lat="46.72572" lon="5.97671">
        <ele>611.9</ele>
        <time>2021-02-15T14:44:13Z</time>
      </trkpt>
      <trkpt lat="46.72576" lon="5.97677">
        <ele>612.2</ele>
        <time>2021-02-15T14:44:18Z</time>
      </trkpt>
      <trkpt lat="46.72581" lon="5.97681">
        <ele>612.2</ele>
        <time>2021-02-15T14:44:23Z</time>
      </trkpt>
      <trkpt lat="46.72585" lon="5.97685">
        <ele>612.3</ele>
        <time>2021-02-15T14:44:27Z</time>
      </trkpt>
      <trkpt lat="46.72588" lon="5.97689">
        <ele>612.3</ele>
        <time>2021-02-15T14:44:31Z</time>
      </trkpt>
      <trkpt lat="46.72593" lon="5.97694">
        <ele>612.3</ele>
        <time>2021-02-15T14:44:36Z</time>
      </trkpt>
      <trkpt lat="46.72597" lon="5.97698">
        <ele>612.3</ele>
        <time>2021-02-15T14:44:41Z</time>
      </trkpt>
      <trkpt lat="46.72601" lon="5.97702">
        <ele>612.3</ele>
        <time>2021-02-15T14:44:45Z</time>
      </trkpt>
      <trkpt lat="46.72606" lon="5.97707">
        <ele>612.3</ele>
        <time>2021-02-15T14:44:50Z</time>
      </trkpt>
      <trkpt lat="46.7261" lon="5.97712">
        <ele>612.2</ele>
        <time>2021-02-15T14:44:55Z</time>
      </trkpt>
      <trkpt lat="46.72614" lon="5.97716">
        <ele>612.1</ele>
        <time>2021-02-15T14:44:59Z</time>
      </trkpt>
      <trkpt lat="46.72617" lon="5.97721">
        <ele>612.2</ele>
        <time>2021-02-15T14:45:04Z</time>
      </trkpt>
      <trkpt lat="46.72621" lon="5.97725">
        <ele>612.3</ele>
        <time>2021-02-15T14:45:08Z</time>
      </trkpt>
      <trkpt lat="46.72624" lon="5.9773">
        <ele>612.2</ele>
        <time>2021-02-15T14:45:12Z</time>
      </trkpt>
      <trkpt lat="46.72627" lon="5.97734">
        <ele>612.2</ele>
        <time>2021-02-15T14:45:16Z</time>
      </trkpt>
      <trkpt lat="46.72632" lon="5.97738">
        <ele>612.1</ele>
        <time>2021-02-15T14:45:20Z</time>
      </trkpt>
      <trkpt lat="46.72636" lon="5.97741">
        <ele>612</ele>
        <time>2021-02-15T14:45:24Z</time>
      </trkpt>
      <trkpt lat="46.7264" lon="5.97745">
        <ele>612.2</ele>
        <time>2021-02-15T14:45:28Z</time>
      </trkpt>
      <trkpt lat="46.72644" lon="5.97749">
        <ele>612.4</ele>
        <time>2021-02-15T14:45:32Z</time>
      </trkpt>
      <trkpt lat="46.72648" lon="5.97754">
        <ele>612.3</ele>
        <time>2021-02-15T14:45:38Z</time>
      </trkpt>
      <trkpt lat="46.72652" lon="5.97758">
        <ele>612.4</ele>
        <time>2021-02-15T14:45:43Z</time>
      </trkpt>
      <trkpt lat="46.72656" lon="5.9776">
        <ele>612.2</ele>
        <time>2021-02-15T14:45:47Z</time>
      </trkpt>
      <trkpt lat="46.72661" lon="5.97763">
        <ele>611.7</ele>
        <time>2021-02-15T14:45:51Z</time>
      </trkpt>
      <trkpt lat="46.72665" lon="5.97765">
        <ele>611.4</ele>
        <time>2021-02-15T14:45:55Z</time>
      </trkpt>
      <trkpt lat="46.7267" lon="5.97766">
        <ele>611</ele>
        <time>2021-02-15T14:45:59Z</time>
      </trkpt>
      <trkpt lat="46.72674" lon="5.97767">
        <ele>610.8</ele>
        <time>2021-02-15T14:46:03Z</time>
      </trkpt>
      <trkpt lat="46.72679" lon="5.97768">
        <ele>610.5</ele>
        <time>2021-02-15T14:46:07Z</time>
      </trkpt>
      <trkpt lat="46.72684" lon="5.97769">
        <ele>610.3</ele>
        <time>2021-02-15T14:46:11Z</time>
      </trkpt>
      <trkpt lat="46.72689" lon="5.97769">
        <ele>609.9</ele>
        <time>2021-02-15T14:46:16Z</time>
      </trkpt>
      <trkpt lat="46.72694" lon="5.9777">
        <ele>610</ele>
        <time>2021-02-15T14:46:20Z</time>
      </trkpt>
      <trkpt lat="46.72699" lon="5.97771">
        <ele>610.4</ele>
        <time>2021-02-15T14:46:24Z</time>
      </trkpt>
      <trkpt lat="46.72704" lon="5.97773">
        <ele>610.9</ele>
        <time>2021-02-15T14:46:28Z</time>
      </trkpt>
      <trkpt lat="46.72709" lon="5.97776">
        <ele>611.4</ele>
        <time>2021-02-15T14:46:32Z</time>
      </trkpt>
      <trkpt lat="46.72713" lon="5.97779">
        <ele>612.4</ele>
        <time>2021-02-15T14:46:39Z</time>
      </trkpt>
      <trkpt lat="46.72718" lon="5.97782">
        <ele>612.8</ele>
        <time>2021-02-15T14:46:44Z</time>
      </trkpt>
      <trkpt lat="46.72722" lon="5.97786">
        <ele>613.3</ele>
        <time>2021-02-15T14:46:48Z</time>
      </trkpt>
      <trkpt lat="46.72727" lon="5.9779">
        <ele>613.4</ele>
        <time>2021-02-15T14:46:52Z</time>
      </trkpt>
      <trkpt lat="46.72732" lon="5.97795">
        <ele>613.3</ele>
        <time>2021-02-15T14:46:56Z</time>
      </trkpt>
      <trkpt lat="46.72735" lon="5.978">
        <ele>613.5</ele>
        <time>2021-02-15T14:47:00Z</time>
      </trkpt>
      <trkpt lat="46.72739" lon="5.97805">
        <ele>613.7</ele>
        <time>2021-02-15T14:47:04Z</time>
      </trkpt>
      <trkpt lat="46.72742" lon="5.9781">
        <ele>614.1</ele>
        <time>2021-02-15T14:47:08Z</time>
      </trkpt>
      <trkpt lat="46.72744" lon="5.97815">
        <ele>614.3</ele>
        <time>2021-02-15T14:47:12Z</time>
      </trkpt>
      <trkpt lat="46.72747" lon="5.97821">
        <ele>614.1</ele>
        <time>2021-02-15T14:47:16Z</time>
      </trkpt>
      <trkpt lat="46.72749" lon="5.97826">
        <ele>614.3</ele>
        <time>2021-02-15T14:47:20Z</time>
      </trkpt>
      <trkpt lat="46.72752" lon="5.97833">
        <ele>614.2</ele>
        <time>2021-02-15T14:47:24Z</time>
      </trkpt>
      <trkpt lat="46.72755" lon="5.97839">
        <ele>614.2</ele>
        <time>2021-02-15T14:47:28Z</time>
      </trkpt>
      <trkpt lat="46.72757" lon="5.97846">
        <ele>614.2</ele>
        <time>2021-02-15T14:47:33Z</time>
      </trkpt>
      <trkpt lat="46.72759" lon="5.97851">
        <ele>614.1</ele>
        <time>2021-02-15T14:47:37Z</time>
      </trkpt>
      <trkpt lat="46.72762" lon="5.97858">
        <ele>614</ele>
        <time>2021-02-15T14:47:41Z</time>
      </trkpt>
      <trkpt lat="46.72764" lon="5.97864">
        <ele>614</ele>
        <time>2021-02-15T14:47:45Z</time>
      </trkpt>
      <trkpt lat="46.72767" lon="5.9787">
        <ele>614.1</ele>
        <time>2021-02-15T14:47:49Z</time>
      </trkpt>
      <trkpt lat="46.7277" lon="5.97876">
        <ele>614.1</ele>
        <time>2021-02-15T14:47:53Z</time>
      </trkpt>
      <trkpt lat="46.72773" lon="5.97882">
        <ele>614.2</ele>
        <time>2021-02-15T14:47:57Z</time>
      </trkpt>
      <trkpt lat="46.72776" lon="5.97887">
        <ele>614.3</ele>
        <time>2021-02-15T14:48:01Z</time>
      </trkpt>
      <trkpt lat="46.7278" lon="5.97893">
        <ele>614</ele>
        <time>2021-02-15T14:48:06Z</time>
      </trkpt>
      <trkpt lat="46.72783" lon="5.97897">
        <ele>613.9</ele>
        <time>2021-02-15T14:48:10Z</time>
      </trkpt>
      <trkpt lat="46.72787" lon="5.97901">
        <ele>613.7</ele>
        <time>2021-02-15T14:48:14Z</time>
      </trkpt>
      <trkpt lat="46.72791" lon="5.97906">
        <ele>613.7</ele>
        <time>2021-02-15T14:48:19Z</time>
      </trkpt>
      <trkpt lat="46.72796" lon="5.97909">
        <ele>613.8</ele>
        <time>2021-02-15T14:48:23Z</time>
      </trkpt>
      <trkpt lat="46.728" lon="5.97913">
        <ele>614</ele>
        <time>2021-02-15T14:48:28Z</time>
      </trkpt>
      <trkpt lat="46.72804" lon="5.97916">
        <ele>614.2</ele>
        <time>2021-02-15T14:48:32Z</time>
      </trkpt>
      <trkpt lat="46.72808" lon="5.9792">
        <ele>614.6</ele>
        <time>2021-02-15T14:48:37Z</time>
      </trkpt>
      <trkpt lat="46.72812" lon="5.97923">
        <ele>614.8</ele>
        <time>2021-02-15T14:48:41Z</time>
      </trkpt>
      <trkpt lat="46.72817" lon="5.97926">
        <ele>614.9</ele>
        <time>2021-02-15T14:48:45Z</time>
      </trkpt>
      <trkpt lat="46.72822" lon="5.97931">
        <ele>614.8</ele>
        <time>2021-02-15T14:48:50Z</time>
      </trkpt>
      <trkpt lat="46.72826" lon="5.97934">
        <ele>614.7</ele>
        <time>2021-02-15T14:48:54Z</time>
      </trkpt>
      <trkpt lat="46.7283" lon="5.97937">
        <ele>614.4</ele>
        <time>2021-02-15T14:48:58Z</time>
      </trkpt>
      <trkpt lat="46.72834" lon="5.97941">
        <ele>613.9</ele>
        <time>2021-02-15T14:49:02Z</time>
      </trkpt>
      <trkpt lat="46.72838" lon="5.97944">
        <ele>613.4</ele>
        <time>2021-02-15T14:49:06Z</time>
      </trkpt>
      <trkpt lat="46.72842" lon="5.97949">
        <ele>612.9</ele>
        <time>2021-02-15T14:49:11Z</time>
      </trkpt>
      <trkpt lat="46.72847" lon="5.97954">
        <ele>612.3</ele>
        <time>2021-02-15T14:49:16Z</time>
      </trkpt>
      <trkpt lat="46.72851" lon="5.97958">
        <ele>611.9</ele>
        <time>2021-02-15T14:49:21Z</time>
      </trkpt>
      <trkpt lat="46.72856" lon="5.97962">
        <ele>611.6</ele>
        <time>2021-02-15T14:49:25Z</time>
      </trkpt>
      <trkpt lat="46.7286" lon="5.97967">
        <ele>611.5</ele>
        <time>2021-02-15T14:49:29Z</time>
      </trkpt>
      <trkpt lat="46.72863" lon="5.97971">
        <ele>611.6</ele>
        <time>2021-02-15T14:49:33Z</time>
      </trkpt>
      <trkpt lat="46.72867" lon="5.97977">
        <ele>611.7</ele>
        <time>2021-02-15T14:49:37Z</time>
      </trkpt>
      <trkpt lat="46.72871" lon="5.97981">
        <ele>611.7</ele>
        <time>2021-02-15T14:49:41Z</time>
      </trkpt>
      <trkpt lat="46.72875" lon="5.97985">
        <ele>611.8</ele>
        <time>2021-02-15T14:49:45Z</time>
      </trkpt>
      <trkpt lat="46.72879" lon="5.97991">
        <ele>611.8</ele>
        <time>2021-02-15T14:49:50Z</time>
      </trkpt>
      <trkpt lat="46.72883" lon="5.97995">
        <ele>611.8</ele>
        <time>2021-02-15T14:49:54Z</time>
      </trkpt>
      <trkpt lat="46.72887" lon="5.98">
        <ele>612</ele>
        <time>2021-02-15T14:49:58Z</time>
      </trkpt>
      <trkpt lat="46.7289" lon="5.98004">
        <ele>612.1</ele>
        <time>2021-02-15T14:50:02Z</time>
      </trkpt>
      <trkpt lat="46.72894" lon="5.98009">
        <ele>612.1</ele>
        <time>2021-02-15T14:50:06Z</time>
      </trkpt>
      <trkpt lat="46.72898" lon="5.98014">
        <ele>611.9</ele>
        <time>2021-02-15T14:50:10Z</time>
      </trkpt>
      <trkpt lat="46.72902" lon="5.98017">
        <ele>611.6</ele>
        <time>2021-02-15T14:50:14Z</time>
      </trkpt>
      <trkpt lat="46.72906" lon="5.9802">
        <ele>611.2</ele>
        <time>2021-02-15T14:50:18Z</time>
      </trkpt>
      <trkpt lat="46.7291" lon="5.98025">
        <ele>610.7</ele>
        <time>2021-02-15T14:50:23Z</time>
      </trkpt>
      <trkpt lat="46.72915" lon="5.98028">
        <ele>610.3</ele>
        <time>2021-02-15T14:50:28Z</time>
      </trkpt>
      <trkpt lat="46.7292" lon="5.98031">
        <ele>609.9</ele>
        <time>2021-02-15T14:50:32Z</time>
      </trkpt>
      <trkpt lat="46.72925" lon="5.98034">
        <ele>609.9</ele>
        <time>2021-02-15T14:50:37Z</time>
      </trkpt>
      <trkpt lat="46.7293" lon="5.98037">
        <ele>610.1</ele>
        <time>2021-02-15T14:50:42Z</time>
      </trkpt>
      <trkpt lat="46.72934" lon="5.9804">
        <ele>610.3</ele>
        <time>2021-02-15T14:50:46Z</time>
      </trkpt>
      <trkpt lat="46.72939" lon="5.98043">
        <ele>610.4</ele>
        <time>2021-02-15T14:50:50Z</time>
      </trkpt>
      <trkpt lat="46.72944" lon="5.98045">
        <ele>610.6</ele>
        <time>2021-02-15T14:50:54Z</time>
      </trkpt>
      <trkpt lat="46.72948" lon="5.98048">
        <ele>610.7</ele>
        <time>2021-02-15T14:50:58Z</time>
      </trkpt>
      <trkpt lat="46.72954" lon="5.9805">
        <ele>610.7</ele>
        <time>2021-02-15T14:51:02Z</time>
      </trkpt>
      <trkpt lat="46.72959" lon="5.98053">
        <ele>610.7</ele>
        <time>2021-02-15T14:51:06Z</time>
      </trkpt>
      <trkpt lat="46.72963" lon="5.98055">
        <ele>610.9</ele>
        <time>2021-02-15T14:51:10Z</time>
      </trkpt>
      <trkpt lat="46.72968" lon="5.98058">
        <ele>611.1</ele>
        <time>2021-02-15T14:51:14Z</time>
      </trkpt>
      <trkpt lat="46.72972" lon="5.98062">
        <ele>611.5</ele>
        <time>2021-02-15T14:51:18Z</time>
      </trkpt>
      <trkpt lat="46.72976" lon="5.98066">
        <ele>611.8</ele>
        <time>2021-02-15T14:51:22Z</time>
      </trkpt>
      <trkpt lat="46.72981" lon="5.98069">
        <ele>611.9</ele>
        <time>2021-02-15T14:51:26Z</time>
      </trkpt>
      <trkpt lat="46.72985" lon="5.98072">
        <ele>611.8</ele>
        <time>2021-02-15T14:51:30Z</time>
      </trkpt>
      <trkpt lat="46.72989" lon="5.98075">
        <ele>612.1</ele>
        <time>2021-02-15T14:51:34Z</time>
      </trkpt>
      <trkpt lat="46.72994" lon="5.98078">
        <ele>612.2</ele>
        <time>2021-02-15T14:51:40Z</time>
      </trkpt>
      <trkpt lat="46.72998" lon="5.98081">
        <ele>611.1</ele>
        <time>2021-02-15T14:51:50Z</time>
      </trkpt>
      <trkpt lat="46.73002" lon="5.98084">
        <ele>610.3</ele>
        <time>2021-02-15T14:52:18Z</time>
      </trkpt>
      <trkpt lat="46.73007" lon="5.98086">
        <ele>610.9</ele>
        <time>2021-02-15T14:52:24Z</time>
      </trkpt>
      <trkpt lat="46.73011" lon="5.98089">
        <ele>611</ele>
        <time>2021-02-15T14:52:28Z</time>
      </trkpt>
      <trkpt lat="46.73017" lon="5.9809">
        <ele>610.5</ele>
        <time>2021-02-15T14:52:33Z</time>
      </trkpt>
      <trkpt lat="46.73023" lon="5.98091">
        <ele>610.6</ele>
        <time>2021-02-15T14:52:36Z</time>
      </trkpt>
      <trkpt lat="46.73027" lon="5.98093">
        <ele>610.9</ele>
        <time>2021-02-15T14:52:39Z</time>
      </trkpt>
      <trkpt lat="46.73031" lon="5.98097">
        <ele>612.3</ele>
        <time>2021-02-15T14:52:43Z</time>
      </trkpt>
      <trkpt lat="46.73036" lon="5.98101">
        <ele>612.2</ele>
        <time>2021-02-15T14:52:48Z</time>
      </trkpt>
      <trkpt lat="46.7304" lon="5.98105">
        <ele>609.4</ele>
        <time>2021-02-15T14:52:54Z</time>
      </trkpt>
      <trkpt lat="46.73045" lon="5.98107">
        <ele>607.4</ele>
        <time>2021-02-15T14:52:59Z</time>
      </trkpt>
      <trkpt lat="46.73049" lon="5.98109">
        <ele>607</ele>
        <time>2021-02-15T14:53:03Z</time>
      </trkpt>
      <trkpt lat="46.73053" lon="5.98112">
        <ele>606.8</ele>
        <time>2021-02-15T14:53:08Z</time>
      </trkpt>
      <trkpt lat="46.73058" lon="5.98115">
        <ele>606.9</ele>
        <time>2021-02-15T14:53:12Z</time>
      </trkpt>
      <trkpt lat="46.73063" lon="5.98117">
        <ele>607.4</ele>
        <time>2021-02-15T14:53:16Z</time>
      </trkpt>
      <trkpt lat="46.73068" lon="5.9812">
        <ele>608.1</ele>
        <time>2021-02-15T14:53:20Z</time>
      </trkpt>
      <trkpt lat="46.73072" lon="5.98123">
        <ele>608.7</ele>
        <time>2021-02-15T14:53:24Z</time>
      </trkpt>
      <trkpt lat="46.73077" lon="5.98127">
        <ele>609.1</ele>
        <time>2021-02-15T14:53:28Z</time>
      </trkpt>
      <trkpt lat="46.73081" lon="5.9813">
        <ele>609.6</ele>
        <time>2021-02-15T14:53:32Z</time>
      </trkpt>
      <trkpt lat="46.73086" lon="5.98133">
        <ele>610.3</ele>
        <time>2021-02-15T14:53:36Z</time>
      </trkpt>
      <trkpt lat="46.73091" lon="5.98138">
        <ele>611.2</ele>
        <time>2021-02-15T14:53:40Z</time>
      </trkpt>
      <trkpt lat="46.73095" lon="5.98142">
        <ele>612</ele>
        <time>2021-02-15T14:53:44Z</time>
      </trkpt>
      <trkpt lat="46.73099" lon="5.98146">
        <ele>612.6</ele>
        <time>2021-02-15T14:53:48Z</time>
      </trkpt>
      <trkpt lat="46.73102" lon="5.9815">
        <ele>612.7</ele>
        <time>2021-02-15T14:53:52Z</time>
      </trkpt>
      <trkpt lat="46.73105" lon="5.98156">
        <ele>612.7</ele>
        <time>2021-02-15T14:53:57Z</time>
      </trkpt>
      <trkpt lat="46.73109" lon="5.98162">
        <ele>612.2</ele>
        <time>2021-02-15T14:54:02Z</time>
      </trkpt>
      <trkpt lat="46.73112" lon="5.98168">
        <ele>611.4</ele>
        <time>2021-02-15T14:54:06Z</time>
      </trkpt>
      <trkpt lat="46.73115" lon="5.98173">
        <ele>610.9</ele>
        <time>2021-02-15T14:54:10Z</time>
      </trkpt>
      <trkpt lat="46.73119" lon="5.98178">
        <ele>610.4</ele>
        <time>2021-02-15T14:54:15Z</time>
      </trkpt>
      <trkpt lat="46.73123" lon="5.98183">
        <ele>609.9</ele>
        <time>2021-02-15T14:54:20Z</time>
      </trkpt>
      <trkpt lat="46.73125" lon="5.98191">
        <ele>609.8</ele>
        <time>2021-02-15T14:54:25Z</time>
      </trkpt>
      <trkpt lat="46.73127" lon="5.98197">
        <ele>609.8</ele>
        <time>2021-02-15T14:54:29Z</time>
      </trkpt>
      <trkpt lat="46.7313" lon="5.98202">
        <ele>609.8</ele>
        <time>2021-02-15T14:54:33Z</time>
      </trkpt>
      <trkpt lat="46.73133" lon="5.98207">
        <ele>610</ele>
        <time>2021-02-15T14:54:38Z</time>
      </trkpt>
      <trkpt lat="46.73134" lon="5.98214">
        <ele>611</ele>
        <time>2021-02-15T14:54:50Z</time>
      </trkpt>
      <trkpt lat="46.73137" lon="5.98219">
        <ele>611.4</ele>
        <time>2021-02-15T14:54:55Z</time>
      </trkpt>
      <trkpt lat="46.73141" lon="5.98223">
        <ele>611.6</ele>
        <time>2021-02-15T14:55:00Z</time>
      </trkpt>
      <trkpt lat="46.73146" lon="5.98228">
        <ele>611.7</ele>
        <time>2021-02-15T14:55:05Z</time>
      </trkpt>
      <trkpt lat="46.73149" lon="5.98233">
        <ele>611.7</ele>
        <time>2021-02-15T14:55:09Z</time>
      </trkpt>
      <trkpt lat="46.73153" lon="5.98238">
        <ele>611.5</ele>
        <time>2021-02-15T14:55:14Z</time>
      </trkpt>
      <trkpt lat="46.73157" lon="5.98243">
        <ele>611.4</ele>
        <time>2021-02-15T14:55:18Z</time>
      </trkpt>
      <trkpt lat="46.73161" lon="5.98248">
        <ele>611.1</ele>
        <time>2021-02-15T14:55:22Z</time>
      </trkpt>
      <trkpt lat="46.73164" lon="5.98252">
        <ele>611.1</ele>
        <time>2021-02-15T14:55:26Z</time>
      </trkpt>
      <trkpt lat="46.73167" lon="5.98257">
        <ele>611.5</ele>
        <time>2021-02-15T14:55:30Z</time>
      </trkpt>
      <trkpt lat="46.73171" lon="5.98262">
        <ele>612.4</ele>
        <time>2021-02-15T14:55:35Z</time>
      </trkpt>
      <trkpt lat="46.73174" lon="5.98266">
        <ele>613.1</ele>
        <time>2021-02-15T14:55:40Z</time>
      </trkpt>
      <trkpt lat="46.73178" lon="5.9827">
        <ele>613</ele>
        <time>2021-02-15T14:55:45Z</time>
      </trkpt>
      <trkpt lat="46.73184" lon="5.98271">
        <ele>613.3</ele>
        <time>2021-02-15T14:55:50Z</time>
      </trkpt>
      <trkpt lat="46.73188" lon="5.98272">
        <ele>612.4</ele>
        <time>2021-02-15T14:55:55Z</time>
      </trkpt>
      <trkpt lat="46.73193" lon="5.98274">
        <ele>610.7</ele>
        <time>2021-02-15T14:56:00Z</time>
      </trkpt>
      <trkpt lat="46.73198" lon="5.98278">
        <ele>609.5</ele>
        <time>2021-02-15T14:56:06Z</time>
      </trkpt>
      <trkpt lat="46.73202" lon="5.98281">
        <ele>609.3</ele>
        <time>2021-02-15T14:56:10Z</time>
      </trkpt>
      <trkpt lat="46.73207" lon="5.98286">
        <ele>609.4</ele>
        <time>2021-02-15T14:56:14Z</time>
      </trkpt>
      <trkpt lat="46.73211" lon="5.9829">
        <ele>609.5</ele>
        <time>2021-02-15T14:56:18Z</time>
      </trkpt>
      <trkpt lat="46.73213" lon="5.98296">
        <ele>609.9</ele>
        <time>2021-02-15T14:56:22Z</time>
      </trkpt>
      <trkpt lat="46.73216" lon="5.98301">
        <ele>610.7</ele>
        <time>2021-02-15T14:56:26Z</time>
      </trkpt>
      <trkpt lat="46.73219" lon="5.98306">
        <ele>611.3</ele>
        <time>2021-02-15T14:56:30Z</time>
      </trkpt>
      <trkpt lat="46.73223" lon="5.98311">
        <ele>611.9</ele>
        <time>2021-02-15T14:56:35Z</time>
      </trkpt>
      <trkpt lat="46.73228" lon="5.98312">
        <ele>612</ele>
        <time>2021-02-15T14:56:41Z</time>
      </trkpt>
      <trkpt lat="46.73233" lon="5.9831">
        <ele>611.9</ele>
        <time>2021-02-15T14:56:47Z</time>
      </trkpt>
      <trkpt lat="46.73237" lon="5.98314">
        <ele>612.4</ele>
        <time>2021-02-15T14:56:56Z</time>
      </trkpt>
      <trkpt lat="46.73241" lon="5.98317">
        <ele>610.7</ele>
        <time>2021-02-15T14:57:03Z</time>
      </trkpt>
      <trkpt lat="46.73244" lon="5.98323">
        <ele>610.2</ele>
        <time>2021-02-15T14:57:13Z</time>
      </trkpt>
      <trkpt lat="46.73243" lon="5.98316">
        <ele>610.7</ele>
        <time>2021-02-15T14:57:25Z</time>
      </trkpt>
      <trkpt lat="46.73244" lon="5.9831">
        <ele>611.4</ele>
        <time>2021-02-15T14:57:29Z</time>
      </trkpt>
      <trkpt lat="46.73247" lon="5.98304">
        <ele>611.9</ele>
        <time>2021-02-15T14:57:33Z</time>
      </trkpt>
      <trkpt lat="46.7325" lon="5.98298">
        <ele>612</ele>
        <time>2021-02-15T14:57:37Z</time>
      </trkpt>
      <trkpt lat="46.73251" lon="5.98292">
        <ele>611.7</ele>
        <time>2021-02-15T14:57:41Z</time>
      </trkpt>
      <trkpt lat="46.73253" lon="5.98285">
        <ele>611.1</ele>
        <time>2021-02-15T14:57:45Z</time>
      </trkpt>
      <trkpt lat="46.73255" lon="5.98279">
        <ele>610.2</ele>
        <time>2021-02-15T14:57:49Z</time>
      </trkpt>
      <trkpt lat="46.73258" lon="5.98273">
        <ele>609.5</ele>
        <time>2021-02-15T14:57:53Z</time>
      </trkpt>
      <trkpt lat="46.73261" lon="5.98268">
        <ele>609</ele>
        <time>2021-02-15T14:57:57Z</time>
      </trkpt>
      <trkpt lat="46.73264" lon="5.98262">
        <ele>608.5</ele>
        <time>2021-02-15T14:58:02Z</time>
      </trkpt>
      <trkpt lat="46.73268" lon="5.98256">
        <ele>608.1</ele>
        <time>2021-02-15T14:58:07Z</time>
      </trkpt>
      <trkpt lat="46.73272" lon="5.9825">
        <ele>608.1</ele>
        <time>2021-02-15T14:58:12Z</time>
      </trkpt>
      <trkpt lat="46.73274" lon="5.98244">
        <ele>608.3</ele>
        <time>2021-02-15T14:58:16Z</time>
      </trkpt>
      <trkpt lat="46.73277" lon="5.98239">
        <ele>608.5</ele>
        <time>2021-02-15T14:58:20Z</time>
      </trkpt>
      <trkpt lat="46.73281" lon="5.98234">
        <ele>609.1</ele>
        <time>2021-02-15T14:58:24Z</time>
      </trkpt>
      <trkpt lat="46.73285" lon="5.98229">
        <ele>609.2</ele>
        <time>2021-02-15T14:58:28Z</time>
      </trkpt>
      <trkpt lat="46.73289" lon="5.98223">
        <ele>609.2</ele>
        <time>2021-02-15T14:58:33Z</time>
      </trkpt>
      <trkpt lat="46.73291" lon="5.98218">
        <ele>609</ele>
        <time>2021-02-15T14:58:37Z</time>
      </trkpt>
      <trkpt lat="46.73294" lon="5.98211">
        <ele>608.4</ele>
        <time>2021-02-15T14:58:42Z</time>
      </trkpt>
      <trkpt lat="46.73296" lon="5.98204">
        <ele>608.4</ele>
        <time>2021-02-15T14:58:46Z</time>
      </trkpt>
      <trkpt lat="46.733" lon="5.982">
        <ele>608.1</ele>
        <time>2021-02-15T14:58:51Z</time>
      </trkpt>
      <trkpt lat="46.73304" lon="5.98195">
        <ele>606.8</ele>
        <time>2021-02-15T14:58:57Z</time>
      </trkpt>
      <trkpt lat="46.73308" lon="5.98191">
        <ele>605.8</ele>
        <time>2021-02-15T14:59:01Z</time>
      </trkpt>
      <trkpt lat="46.73312" lon="5.98188">
        <ele>604.6</ele>
        <time>2021-02-15T14:59:05Z</time>
      </trkpt>
      <trkpt lat="46.73316" lon="5.98182">
        <ele>603.5</ele>
        <time>2021-02-15T14:59:09Z</time>
      </trkpt>
      <trkpt lat="46.73316" lon="5.98173">
        <ele>603.3</ele>
        <time>2021-02-15T14:59:11Z</time>
      </trkpt>
      <trkpt lat="46.73317" lon="5.98166">
        <ele>602.7</ele>
        <time>2021-02-15T14:59:14Z</time>
      </trkpt>
      <trkpt lat="46.73319" lon="5.9816">
        <ele>602.5</ele>
        <time>2021-02-15T14:59:17Z</time>
      </trkpt>
      <trkpt lat="46.73323" lon="5.98155">
        <ele>602.4</ele>
        <time>2021-02-15T14:59:21Z</time>
      </trkpt>
      <trkpt lat="46.73325" lon="5.98148">
        <ele>602.6</ele>
        <time>2021-02-15T14:59:26Z</time>
      </trkpt>
      <trkpt lat="46.73328" lon="5.98142">
        <ele>603.5</ele>
        <time>2021-02-15T14:59:31Z</time>
      </trkpt>
      <trkpt lat="46.7333" lon="5.98136">
        <ele>604.2</ele>
        <time>2021-02-15T14:59:35Z</time>
      </trkpt>
      <trkpt lat="46.73332" lon="5.9813">
        <ele>604.9</ele>
        <time>2021-02-15T14:59:39Z</time>
      </trkpt>
      <trkpt lat="46.73334" lon="5.98123">
        <ele>605.4</ele>
        <time>2021-02-15T14:59:43Z</time>
      </trkpt>
      <trkpt lat="46.73335" lon="5.98116">
        <ele>605.7</ele>
        <time>2021-02-15T14:59:49Z</time>
      </trkpt>
      <trkpt lat="46.73337" lon="5.9811">
        <ele>605.6</ele>
        <time>2021-02-15T14:59:54Z</time>
      </trkpt>
      <trkpt lat="46.73339" lon="5.98104">
        <ele>605.4</ele>
        <time>2021-02-15T14:59:58Z</time>
      </trkpt>
      <trkpt lat="46.73341" lon="5.98097">
        <ele>605.1</ele>
        <time>2021-02-15T15:00:02Z</time>
      </trkpt>
      <trkpt lat="46.73343" lon="5.98091">
        <ele>605</ele>
        <time>2021-02-15T15:00:06Z</time>
      </trkpt>
      <trkpt lat="46.73346" lon="5.98085">
        <ele>605</ele>
        <time>2021-02-15T15:00:11Z</time>
      </trkpt>
      <trkpt lat="46.73348" lon="5.98077">
        <ele>604.7</ele>
        <time>2021-02-15T15:00:16Z</time>
      </trkpt>
      <trkpt lat="46.73349" lon="5.9807">
        <ele>604.5</ele>
        <time>2021-02-15T15:00:20Z</time>
      </trkpt>
      <trkpt lat="46.73351" lon="5.98063">
        <ele>604.3</ele>
        <time>2021-02-15T15:00:24Z</time>
      </trkpt>
      <trkpt lat="46.73354" lon="5.98057">
        <ele>604</ele>
        <time>2021-02-15T15:00:28Z</time>
      </trkpt>
      <trkpt lat="46.73357" lon="5.98051">
        <ele>603.6</ele>
        <time>2021-02-15T15:00:32Z</time>
      </trkpt>
      <trkpt lat="46.73359" lon="5.98044">
        <ele>603.4</ele>
        <time>2021-02-15T15:00:36Z</time>
      </trkpt>
      <trkpt lat="46.73361" lon="5.98038">
        <ele>603.2</ele>
        <time>2021-02-15T15:00:40Z</time>
      </trkpt>
      <trkpt lat="46.73363" lon="5.98031">
        <ele>602.9</ele>
        <time>2021-02-15T15:00:44Z</time>
      </trkpt>
      <trkpt lat="46.73365" lon="5.98024">
        <ele>602.6</ele>
        <time>2021-02-15T15:00:49Z</time>
      </trkpt>
      <trkpt lat="46.73367" lon="5.98017">
        <ele>602.1</ele>
        <time>2021-02-15T15:00:53Z</time>
      </trkpt>
      <trkpt lat="46.73368" lon="5.98009">
        <ele>601.9</ele>
        <time>2021-02-15T15:00:57Z</time>
      </trkpt>
      <trkpt lat="46.73369" lon="5.98002">
        <ele>602.1</ele>
        <time>2021-02-15T15:01:01Z</time>
      </trkpt>
      <trkpt lat="46.73371" lon="5.97996">
        <ele>602.6</ele>
        <time>2021-02-15T15:01:05Z</time>
      </trkpt>
      <trkpt lat="46.73372" lon="5.97989">
        <ele>603.2</ele>
        <time>2021-02-15T15:01:09Z</time>
      </trkpt>
      <trkpt lat="46.73374" lon="5.97982">
        <ele>603.9</ele>
        <time>2021-02-15T15:01:13Z</time>
      </trkpt>
      <trkpt lat="46.73375" lon="5.97975">
        <ele>604.4</ele>
        <time>2021-02-15T15:01:18Z</time>
      </trkpt>
      <trkpt lat="46.73379" lon="5.97971">
        <ele>607.5</ele>
        <time>2021-02-15T15:01:35Z</time>
      </trkpt>
      <trkpt lat="46.73381" lon="5.97963">
        <ele>608.2</ele>
        <time>2021-02-15T15:01:40Z</time>
      </trkpt>
      <trkpt lat="46.73383" lon="5.97957">
        <ele>608.8</ele>
        <time>2021-02-15T15:01:44Z</time>
      </trkpt>
      <trkpt lat="46.73384" lon="5.97951">
        <ele>609.1</ele>
        <time>2021-02-15T15:01:48Z</time>
      </trkpt>
      <trkpt lat="46.73385" lon="5.97943">
        <ele>609.2</ele>
        <time>2021-02-15T15:01:52Z</time>
      </trkpt>
      <trkpt lat="46.73386" lon="5.97935">
        <ele>609.2</ele>
        <time>2021-02-15T15:01:57Z</time>
      </trkpt>
      <trkpt lat="46.73386" lon="5.97928">
        <ele>609.3</ele>
        <time>2021-02-15T15:02:01Z</time>
      </trkpt>
      <trkpt lat="46.73388" lon="5.97921">
        <ele>609.3</ele>
        <time>2021-02-15T15:02:05Z</time>
      </trkpt>
      <trkpt lat="46.7339" lon="5.97914">
        <ele>609.3</ele>
        <time>2021-02-15T15:02:10Z</time>
      </trkpt>
      <trkpt lat="46.73392" lon="5.97907">
        <ele>609.2</ele>
        <time>2021-02-15T15:02:14Z</time>
      </trkpt>
      <trkpt lat="46.73394" lon="5.97902">
        <ele>609.4</ele>
        <time>2021-02-15T15:02:18Z</time>
      </trkpt>
      <trkpt lat="46.73397" lon="5.97896">
        <ele>610.1</ele>
        <time>2021-02-15T15:02:22Z</time>
      </trkpt>
      <trkpt lat="46.73399" lon="5.9789">
        <ele>610.7</ele>
        <time>2021-02-15T15:02:27Z</time>
      </trkpt>
      <trkpt lat="46.734" lon="5.97883">
        <ele>611.3</ele>
        <time>2021-02-15T15:02:32Z</time>
      </trkpt>
      <trkpt lat="46.73401" lon="5.97875">
        <ele>611.9</ele>
        <time>2021-02-15T15:02:36Z</time>
      </trkpt>
      <trkpt lat="46.73403" lon="5.97869">
        <ele>612.2</ele>
        <time>2021-02-15T15:02:44Z</time>
      </trkpt>
      <trkpt lat="46.73405" lon="5.97863">
        <ele>612.6</ele>
        <time>2021-02-15T15:02:48Z</time>
      </trkpt>
      <trkpt lat="46.73408" lon="5.97857">
        <ele>612.9</ele>
        <time>2021-02-15T15:02:52Z</time>
      </trkpt>
      <trkpt lat="46.7341" lon="5.97851">
        <ele>613.2</ele>
        <time>2021-02-15T15:02:56Z</time>
      </trkpt>
      <trkpt lat="46.7341" lon="5.97844">
        <ele>613.2</ele>
        <time>2021-02-15T15:03:00Z</time>
      </trkpt>
      <trkpt lat="46.7341" lon="5.97836">
        <ele>613.4</ele>
        <time>2021-02-15T15:03:04Z</time>
      </trkpt>
      <trkpt lat="46.7341" lon="5.97829">
        <ele>613.6</ele>
        <time>2021-02-15T15:03:08Z</time>
      </trkpt>
      <trkpt lat="46.73409" lon="5.97821">
        <ele>613.9</ele>
        <time>2021-02-15T15:03:12Z</time>
      </trkpt>
      <trkpt lat="46.73408" lon="5.97815">
        <ele>614.5</ele>
        <time>2021-02-15T15:03:16Z</time>
      </trkpt>
      <trkpt lat="46.73407" lon="5.97808">
        <ele>614.9</ele>
        <time>2021-02-15T15:03:20Z</time>
      </trkpt>
      <trkpt lat="46.73405" lon="5.97801">
        <ele>615.5</ele>
        <time>2021-02-15T15:03:24Z</time>
      </trkpt>
      <trkpt lat="46.73403" lon="5.97795">
        <ele>616</ele>
        <time>2021-02-15T15:03:28Z</time>
      </trkpt>
      <trkpt lat="46.73401" lon="5.97787">
        <ele>616.1</ele>
        <time>2021-02-15T15:03:33Z</time>
      </trkpt>
      <trkpt lat="46.73399" lon="5.97781">
        <ele>615.5</ele>
        <time>2021-02-15T15:03:37Z</time>
      </trkpt>
      <trkpt lat="46.73396" lon="5.97774">
        <ele>615.1</ele>
        <time>2021-02-15T15:03:41Z</time>
      </trkpt>
      <trkpt lat="46.73392" lon="5.97769">
        <ele>614.8</ele>
        <time>2021-02-15T15:03:45Z</time>
      </trkpt>
      <trkpt lat="46.7339" lon="5.97762">
        <ele>614.4</ele>
        <time>2021-02-15T15:03:50Z</time>
      </trkpt>
      <trkpt lat="46.73387" lon="5.97755">
        <ele>614.1</ele>
        <time>2021-02-15T15:03:54Z</time>
      </trkpt>
      <trkpt lat="46.73385" lon="5.97749">
        <ele>613.6</ele>
        <time>2021-02-15T15:03:59Z</time>
      </trkpt>
      <trkpt lat="46.73382" lon="5.97743">
        <ele>613.3</ele>
        <time>2021-02-15T15:04:04Z</time>
      </trkpt>
      <trkpt lat="46.73379" lon="5.97738">
        <ele>613.2</ele>
        <time>2021-02-15T15:04:09Z</time>
      </trkpt>
      <trkpt lat="46.73376" lon="5.97732">
        <ele>613</ele>
        <time>2021-02-15T15:04:15Z</time>
      </trkpt>
      <trkpt lat="46.73372" lon="5.97726">
        <ele>612.7</ele>
        <time>2021-02-15T15:04:19Z</time>
      </trkpt>
      <trkpt lat="46.73369" lon="5.97721">
        <ele>612.2</ele>
        <time>2021-02-15T15:04:23Z</time>
      </trkpt>
      <trkpt lat="46.73365" lon="5.97716">
        <ele>611.6</ele>
        <time>2021-02-15T15:04:27Z</time>
      </trkpt>
      <trkpt lat="46.73361" lon="5.97711">
        <ele>611</ele>
        <time>2021-02-15T15:04:31Z</time>
      </trkpt>
      <trkpt lat="46.73358" lon="5.97706">
        <ele>610.7</ele>
        <time>2021-02-15T15:04:35Z</time>
      </trkpt>
      <trkpt lat="46.73355" lon="5.977">
        <ele>610.6</ele>
        <time>2021-02-15T15:04:39Z</time>
      </trkpt>
      <trkpt lat="46.73351" lon="5.97696">
        <ele>610.5</ele>
        <time>2021-02-15T15:04:42Z</time>
      </trkpt>
      <trkpt lat="46.73347" lon="5.97691">
        <ele>610.4</ele>
        <time>2021-02-15T15:04:46Z</time>
      </trkpt>
      <trkpt lat="46.73345" lon="5.97684">
        <ele>610.3</ele>
        <time>2021-02-15T15:04:51Z</time>
      </trkpt>
      <trkpt lat="46.73343" lon="5.97678">
        <ele>610.2</ele>
        <time>2021-02-15T15:04:55Z</time>
      </trkpt>
      <trkpt lat="46.73341" lon="5.97671">
        <ele>610</ele>
        <time>2021-02-15T15:04:59Z</time>
      </trkpt>
      <trkpt lat="46.73338" lon="5.97665">
        <ele>609.9</ele>
        <time>2021-02-15T15:05:03Z</time>
      </trkpt>
      <trkpt lat="46.73336" lon="5.97657">
        <ele>609.2</ele>
        <time>2021-02-15T15:05:23Z</time>
      </trkpt>
      <trkpt lat="46.73334" lon="5.9765">
        <ele>608.1</ele>
        <time>2021-02-15T15:05:28Z</time>
      </trkpt>
      <trkpt lat="46.73331" lon="5.97644">
        <ele>607.4</ele>
        <time>2021-02-15T15:05:32Z</time>
      </trkpt>
      <trkpt lat="46.73329" lon="5.97638">
        <ele>606.9</ele>
        <time>2021-02-15T15:05:35Z</time>
      </trkpt>
      <trkpt lat="46.73325" lon="5.97632">
        <ele>606.4</ele>
        <time>2021-02-15T15:05:39Z</time>
      </trkpt>
      <trkpt lat="46.73322" lon="5.97627">
        <ele>605.8</ele>
        <time>2021-02-15T15:05:43Z</time>
      </trkpt>
      <trkpt lat="46.73321" lon="5.97619">
        <ele>604.8</ele>
        <time>2021-02-15T15:05:48Z</time>
      </trkpt>
      <trkpt lat="46.7332" lon="5.97612">
        <ele>603.7</ele>
        <time>2021-02-15T15:05:53Z</time>
      </trkpt>
      <trkpt lat="46.73319" lon="5.97605">
        <ele>603.1</ele>
        <time>2021-02-15T15:05:57Z</time>
      </trkpt>
      <trkpt lat="46.73318" lon="5.97597">
        <ele>602.9</ele>
        <time>2021-02-15T15:06:01Z</time>
      </trkpt>
      <trkpt lat="46.73317" lon="5.9759">
        <ele>602.8</ele>
        <time>2021-02-15T15:06:05Z</time>
      </trkpt>
      <trkpt lat="46.73316" lon="5.97583">
        <ele>602.7</ele>
        <time>2021-02-15T15:06:10Z</time>
      </trkpt>
      <trkpt lat="46.73315" lon="5.97576">
        <ele>603.3</ele>
        <time>2021-02-15T15:06:29Z</time>
      </trkpt>
      <trkpt lat="46.73315" lon="5.97569">
        <ele>603.5</ele>
        <time>2021-02-15T15:06:33Z</time>
      </trkpt>
      <trkpt lat="46.73315" lon="5.97562">
        <ele>603.7</ele>
        <time>2021-02-15T15:06:37Z</time>
      </trkpt>
      <trkpt lat="46.73315" lon="5.97554">
        <ele>604.2</ele>
        <time>2021-02-15T15:06:42Z</time>
      </trkpt>
      <trkpt lat="46.73315" lon="5.97547">
        <ele>604.7</ele>
        <time>2021-02-15T15:06:47Z</time>
      </trkpt>
      <trkpt lat="46.73315" lon="5.97539">
        <ele>605.2</ele>
        <time>2021-02-15T15:06:52Z</time>
      </trkpt>
      <trkpt lat="46.73314" lon="5.97532">
        <ele>605.8</ele>
        <time>2021-02-15T15:06:56Z</time>
      </trkpt>
      <trkpt lat="46.73313" lon="5.97525">
        <ele>606.1</ele>
        <time>2021-02-15T15:07:00Z</time>
      </trkpt>
      <trkpt lat="46.73312" lon="5.97518">
        <ele>606.1</ele>
        <time>2021-02-15T15:07:04Z</time>
      </trkpt>
      <trkpt lat="46.73311" lon="5.9751">
        <ele>605.8</ele>
        <time>2021-02-15T15:07:08Z</time>
      </trkpt>
      <trkpt lat="46.7331" lon="5.97503">
        <ele>605.3</ele>
        <time>2021-02-15T15:07:12Z</time>
      </trkpt>
      <trkpt lat="46.73309" lon="5.97497">
        <ele>604.8</ele>
        <time>2021-02-15T15:07:16Z</time>
      </trkpt>
      <trkpt lat="46.73309" lon="5.9749">
        <ele>604.3</ele>
        <time>2021-02-15T15:07:20Z</time>
      </trkpt>
      <trkpt lat="46.73308" lon="5.97482">
        <ele>603.7</ele>
        <time>2021-02-15T15:07:25Z</time>
      </trkpt>
      <trkpt lat="46.73307" lon="5.97474">
        <ele>603.5</ele>
        <time>2021-02-15T15:07:30Z</time>
      </trkpt>
      <trkpt lat="46.73307" lon="5.97466">
        <ele>603.4</ele>
        <time>2021-02-15T15:07:35Z</time>
      </trkpt>
      <trkpt lat="46.73306" lon="5.97459">
        <ele>603.1</ele>
        <time>2021-02-15T15:07:39Z</time>
      </trkpt>
      <trkpt lat="46.73305" lon="5.97451">
        <ele>603</ele>
        <time>2021-02-15T15:07:44Z</time>
      </trkpt>
      <trkpt lat="46.73304" lon="5.97444">
        <ele>603.1</ele>
        <time>2021-02-15T15:07:48Z</time>
      </trkpt>
      <trkpt lat="46.73304" lon="5.97436">
        <ele>603.2</ele>
        <time>2021-02-15T15:07:53Z</time>
      </trkpt>
      <trkpt lat="46.73304" lon="5.97429">
        <ele>603.2</ele>
        <time>2021-02-15T15:07:58Z</time>
      </trkpt>
      <trkpt lat="46.73304" lon="5.97422">
        <ele>603.4</ele>
        <time>2021-02-15T15:08:02Z</time>
      </trkpt>
      <trkpt lat="46.73303" lon="5.97415">
        <ele>603.8</ele>
        <time>2021-02-15T15:08:06Z</time>
      </trkpt>
      <trkpt lat="46.73303" lon="5.97407">
        <ele>604.5</ele>
        <time>2021-02-15T15:08:11Z</time>
      </trkpt>
      <trkpt lat="46.73304" lon="5.97399">
        <ele>604.8</ele>
        <time>2021-02-15T15:08:16Z</time>
      </trkpt>
      <trkpt lat="46.73304" lon="5.97392">
        <ele>604.4</ele>
        <time>2021-02-15T15:08:20Z</time>
      </trkpt>
      <trkpt lat="46.73303" lon="5.97385">
        <ele>603.7</ele>
        <time>2021-02-15T15:08:24Z</time>
      </trkpt>
      <trkpt lat="46.73303" lon="5.97378">
        <ele>602.9</ele>
        <time>2021-02-15T15:08:28Z</time>
      </trkpt>
      <trkpt lat="46.73303" lon="5.9737">
        <ele>602.3</ele>
        <time>2021-02-15T15:08:32Z</time>
      </trkpt>
      <trkpt lat="46.73304" lon="5.97363">
        <ele>601.9</ele>
        <time>2021-02-15T15:08:36Z</time>
      </trkpt>
      <trkpt lat="46.73305" lon="5.97357">
        <ele>601.4</ele>
        <time>2021-02-15T15:08:40Z</time>
      </trkpt>
      <trkpt lat="46.73307" lon="5.97349">
        <ele>601.1</ele>
        <time>2021-02-15T15:08:45Z</time>
      </trkpt>
      <trkpt lat="46.73308" lon="5.97343">
        <ele>601.3</ele>
        <time>2021-02-15T15:08:49Z</time>
      </trkpt>
      <trkpt lat="46.73309" lon="5.97335">
        <ele>601.7</ele>
        <time>2021-02-15T15:08:54Z</time>
      </trkpt>
      <trkpt lat="46.7331" lon="5.97328">
        <ele>601.9</ele>
        <time>2021-02-15T15:08:59Z</time>
      </trkpt>
      <trkpt lat="46.73311" lon="5.9732">
        <ele>602</ele>
        <time>2021-02-15T15:09:04Z</time>
      </trkpt>
      <trkpt lat="46.73312" lon="5.97313">
        <ele>602.1</ele>
        <time>2021-02-15T15:09:08Z</time>
      </trkpt>
      <trkpt lat="46.73313" lon="5.97307">
        <ele>602.2</ele>
        <time>2021-02-15T15:09:12Z</time>
      </trkpt>
      <trkpt lat="46.73314" lon="5.97299">
        <ele>602.4</ele>
        <time>2021-02-15T15:09:17Z</time>
      </trkpt>
      <trkpt lat="46.73315" lon="5.97291">
        <ele>602.2</ele>
        <time>2021-02-15T15:09:22Z</time>
      </trkpt>
      <trkpt lat="46.73316" lon="5.97284">
        <ele>602.1</ele>
        <time>2021-02-15T15:09:27Z</time>
      </trkpt>
      <trkpt lat="46.73314" lon="5.97277">
        <ele>605.2</ele>
        <time>2021-02-15T15:10:12Z</time>
      </trkpt>
      <trkpt lat="46.73316" lon="5.97272">
        <ele>601.7</ele>
        <time>2021-02-15T15:10:56Z</time>
      </trkpt>
      <trkpt lat="46.73315" lon="5.97265">
        <ele>601.1</ele>
        <time>2021-02-15T15:11:05Z</time>
      </trkpt>
      <trkpt lat="46.73316" lon="5.97258">
        <ele>600.7</ele>
        <time>2021-02-15T15:11:11Z</time>
      </trkpt>
      <trkpt lat="46.73318" lon="5.97251">
        <ele>600.7</ele>
        <time>2021-02-15T15:11:16Z</time>
      </trkpt>
      <trkpt lat="46.7332" lon="5.97245">
        <ele>600.6</ele>
        <time>2021-02-15T15:11:20Z</time>
      </trkpt>
      <trkpt lat="46.73321" lon="5.97238">
        <ele>600.3</ele>
        <time>2021-02-15T15:11:26Z</time>
      </trkpt>
      <trkpt lat="46.73323" lon="5.9723">
        <ele>600.3</ele>
        <time>2021-02-15T15:11:31Z</time>
      </trkpt>
      <trkpt lat="46.73326" lon="5.97225">
        <ele>600.5</ele>
        <time>2021-02-15T15:11:35Z</time>
      </trkpt>
      <trkpt lat="46.73327" lon="5.97218">
        <ele>600.5</ele>
        <time>2021-02-15T15:11:40Z</time>
      </trkpt>
      <trkpt lat="46.73327" lon="5.97211">
        <ele>600.5</ele>
        <time>2021-02-15T15:11:44Z</time>
      </trkpt>
      <trkpt lat="46.73327" lon="5.97203">
        <ele>600.8</ele>
        <time>2021-02-15T15:11:49Z</time>
      </trkpt>
      <trkpt lat="46.73328" lon="5.97196">
        <ele>600.2</ele>
        <time>2021-02-15T15:11:54Z</time>
      </trkpt>
      <trkpt lat="46.73328" lon="5.9719">
        <ele>600.3</ele>
        <time>2021-02-15T15:11:57Z</time>
      </trkpt>
      <trkpt lat="46.73327" lon="5.97182">
        <ele>600.2</ele>
        <time>2021-02-15T15:12:01Z</time>
      </trkpt>
      <trkpt lat="46.73328" lon="5.97174">
        <ele>600.2</ele>
        <time>2021-02-15T15:12:05Z</time>
      </trkpt>
      <trkpt lat="46.73328" lon="5.97166">
        <ele>600.7</ele>
        <time>2021-02-15T15:12:10Z</time>
      </trkpt>
      <trkpt lat="46.7333" lon="5.97158">
        <ele>601.6</ele>
        <time>2021-02-15T15:12:15Z</time>
      </trkpt>
      <trkpt lat="46.7333" lon="5.97151">
        <ele>602.1</ele>
        <time>2021-02-15T15:12:19Z</time>
      </trkpt>
      <trkpt lat="46.73331" lon="5.97143">
        <ele>602.1</ele>
        <time>2021-02-15T15:12:24Z</time>
      </trkpt>
      <trkpt lat="46.73333" lon="5.97136">
        <ele>602.4</ele>
        <time>2021-02-15T15:12:29Z</time>
      </trkpt>
      <trkpt lat="46.73336" lon="5.9713">
        <ele>602.7</ele>
        <time>2021-02-15T15:12:33Z</time>
      </trkpt>
      <trkpt lat="46.73339" lon="5.97124">
        <ele>603.2</ele>
        <time>2021-02-15T15:12:37Z</time>
      </trkpt>
      <trkpt lat="46.73342" lon="5.9712">
        <ele>603.8</ele>
        <time>2021-02-15T15:12:41Z</time>
      </trkpt>
      <trkpt lat="46.73346" lon="5.97115">
        <ele>604.6</ele>
        <time>2021-02-15T15:12:45Z</time>
      </trkpt>
      <trkpt lat="46.7335" lon="5.9711">
        <ele>606.3</ele>
        <time>2021-02-15T15:12:50Z</time>
      </trkpt>
      <trkpt lat="46.73355" lon="5.97108">
        <ele>607.9</ele>
        <time>2021-02-15T15:12:56Z</time>
      </trkpt>
      <trkpt lat="46.7336" lon="5.97107">
        <ele>607.5</ele>
        <time>2021-02-15T15:13:03Z</time>
      </trkpt>
      <trkpt lat="46.73364" lon="5.97103">
        <ele>606.5</ele>
        <time>2021-02-15T15:13:12Z</time>
      </trkpt>
      <trkpt lat="46.73367" lon="5.97098">
        <ele>606.4</ele>
        <time>2021-02-15T15:13:20Z</time>
      </trkpt>
      <trkpt lat="46.73366" lon="5.97091">
        <ele>607.6</ele>
        <time>2021-02-15T15:13:26Z</time>
      </trkpt>
      <trkpt lat="46.73365" lon="5.97084">
        <ele>609.1</ele>
        <time>2021-02-15T15:13:39Z</time>
      </trkpt>
      <trkpt lat="46.73363" lon="5.97077">
        <ele>609.4</ele>
        <time>2021-02-15T15:13:44Z</time>
      </trkpt>
      <trkpt lat="46.73361" lon="5.97071">
        <ele>609.4</ele>
        <time>2021-02-15T15:13:48Z</time>
      </trkpt>
      <trkpt lat="46.73358" lon="5.97065">
        <ele>609.3</ele>
        <time>2021-02-15T15:13:52Z</time>
      </trkpt>
      <trkpt lat="46.73355" lon="5.97059">
        <ele>609.4</ele>
        <time>2021-02-15T15:13:56Z</time>
      </trkpt>
      <trkpt lat="46.73353" lon="5.97052">
        <ele>609.1</ele>
        <time>2021-02-15T15:14:02Z</time>
      </trkpt>
      <trkpt lat="46.73351" lon="5.97045">
        <ele>608.4</ele>
        <time>2021-02-15T15:14:08Z</time>
      </trkpt>
      <trkpt lat="46.7335" lon="5.97038">
        <ele>607.8</ele>
        <time>2021-02-15T15:14:12Z</time>
      </trkpt>
      <trkpt lat="46.73348" lon="5.97031">
        <ele>607.3</ele>
        <time>2021-02-15T15:14:16Z</time>
      </trkpt>
      <trkpt lat="46.73346" lon="5.97024">
        <ele>606.8</ele>
        <time>2021-02-15T15:14:20Z</time>
      </trkpt>
      <trkpt lat="46.73344" lon="5.97016">
        <ele>606.4</ele>
        <time>2021-02-15T15:14:24Z</time>
      </trkpt>
      <trkpt lat="46.73343" lon="5.97009">
        <ele>606.2</ele>
        <time>2021-02-15T15:14:28Z</time>
      </trkpt>
      <trkpt lat="46.73342" lon="5.97002">
        <ele>606.1</ele>
        <time>2021-02-15T15:14:33Z</time>
      </trkpt>
      <trkpt lat="46.73341" lon="5.96996">
        <ele>606.1</ele>
        <time>2021-02-15T15:14:37Z</time>
      </trkpt>
      <trkpt lat="46.73339" lon="5.96989">
        <ele>606</ele>
        <time>2021-02-15T15:14:41Z</time>
      </trkpt>
      <trkpt lat="46.73337" lon="5.96982">
        <ele>605.9</ele>
        <time>2021-02-15T15:14:46Z</time>
      </trkpt>
      <trkpt lat="46.73335" lon="5.96975">
        <ele>606.5</ele>
        <time>2021-02-15T15:14:52Z</time>
      </trkpt>
      <trkpt lat="46.73333" lon="5.96969">
        <ele>607</ele>
        <time>2021-02-15T15:14:57Z</time>
      </trkpt>
      <trkpt lat="46.7333" lon="5.96963">
        <ele>607.3</ele>
        <time>2021-02-15T15:15:01Z</time>
      </trkpt>
      <trkpt lat="46.73328" lon="5.96957">
        <ele>607.3</ele>
        <time>2021-02-15T15:15:05Z</time>
      </trkpt>
      <trkpt lat="46.73328" lon="5.9695">
        <ele>607.8</ele>
        <time>2021-02-15T15:15:09Z</time>
      </trkpt>
      <trkpt lat="46.73327" lon="5.96943">
        <ele>608.6</ele>
        <time>2021-02-15T15:15:13Z</time>
      </trkpt>
      <trkpt lat="46.73326" lon="5.96936">
        <ele>609.3</ele>
        <time>2021-02-15T15:15:17Z</time>
      </trkpt>
      <trkpt lat="46.73324" lon="5.96929">
        <ele>609.9</ele>
        <time>2021-02-15T15:15:21Z</time>
      </trkpt>
      <trkpt lat="46.73323" lon="5.96922">
        <ele>610.3</ele>
        <time>2021-02-15T15:15:25Z</time>
      </trkpt>
      <trkpt lat="46.73322" lon="5.96916">
        <ele>610.4</ele>
        <time>2021-02-15T15:15:29Z</time>
      </trkpt>
      <trkpt lat="46.73321" lon="5.96909">
        <ele>610.4</ele>
        <time>2021-02-15T15:15:33Z</time>
      </trkpt>
      <trkpt lat="46.7332" lon="5.96901">
        <ele>610.3</ele>
        <time>2021-02-15T15:15:39Z</time>
      </trkpt>
      <trkpt lat="46.73321" lon="5.96894">
        <ele>610</ele>
        <time>2021-02-15T15:15:46Z</time>
      </trkpt>
      <trkpt lat="46.73319" lon="5.96888">
        <ele>610.2</ele>
        <time>2021-02-15T15:15:53Z</time>
      </trkpt>
      <trkpt lat="46.73318" lon="5.9688">
        <ele>610.2</ele>
        <time>2021-02-15T15:15:58Z</time>
      </trkpt>
      <trkpt lat="46.73318" lon="5.96872">
        <ele>610.3</ele>
        <time>2021-02-15T15:16:04Z</time>
      </trkpt>
      <trkpt lat="46.73319" lon="5.96866">
        <ele>610.2</ele>
        <time>2021-02-15T15:16:09Z</time>
      </trkpt>
      <trkpt lat="46.73319" lon="5.96859">
        <ele>610.1</ele>
        <time>2021-02-15T15:16:19Z</time>
      </trkpt>
      <trkpt lat="46.73315" lon="5.9686">
        <ele>609</ele>
        <time>2021-02-15T15:16:51Z</time>
      </trkpt>
      <trkpt lat="46.7331" lon="5.96859">
        <ele>607.5</ele>
        <time>2021-02-15T15:16:56Z</time>
      </trkpt>
      <trkpt lat="46.73307" lon="5.96855">
        <ele>606.7</ele>
        <time>2021-02-15T15:17:01Z</time>
      </trkpt>
      <trkpt lat="46.73304" lon="5.96849">
        <ele>605.9</ele>
        <time>2021-02-15T15:17:05Z</time>
      </trkpt>
      <trkpt lat="46.73304" lon="5.96841">
        <ele>604.9</ele>
        <time>2021-02-15T15:17:10Z</time>
      </trkpt>
      <trkpt lat="46.73304" lon="5.96834">
        <ele>604</ele>
        <time>2021-02-15T15:17:14Z</time>
      </trkpt>
      <trkpt lat="46.73303" lon="5.96826">
        <ele>602</ele>
        <time>2021-02-15T15:17:19Z</time>
      </trkpt>
      <trkpt lat="46.73303" lon="5.9682">
        <ele>600.1</ele>
        <time>2021-02-15T15:17:23Z</time>
      </trkpt>
      <trkpt lat="46.73302" lon="5.96813">
        <ele>598.2</ele>
        <time>2021-02-15T15:17:27Z</time>
      </trkpt>
      <trkpt lat="46.733" lon="5.96807">
        <ele>596.6</ele>
        <time>2021-02-15T15:17:31Z</time>
      </trkpt>
      <trkpt lat="46.73298" lon="5.968">
        <ele>594.7</ele>
        <time>2021-02-15T15:17:36Z</time>
      </trkpt>
      <trkpt lat="46.73296" lon="5.96793">
        <ele>593.5</ele>
        <time>2021-02-15T15:17:40Z</time>
      </trkpt>
      <trkpt lat="46.73295" lon="5.96787">
        <ele>592.3</ele>
        <time>2021-02-15T15:17:44Z</time>
      </trkpt>
      <trkpt lat="46.73295" lon="5.9678">
        <ele>591.2</ele>
        <time>2021-02-15T15:17:48Z</time>
      </trkpt>
      <trkpt lat="46.73294" lon="5.96773">
        <ele>590.2</ele>
        <time>2021-02-15T15:17:53Z</time>
      </trkpt>
      <trkpt lat="46.73291" lon="5.96768">
        <ele>589.7</ele>
        <time>2021-02-15T15:18:08Z</time>
      </trkpt>
      <trkpt lat="46.73287" lon="5.96765">
        <ele>590.2</ele>
        <time>2021-02-15T15:18:13Z</time>
      </trkpt>
      <trkpt lat="46.73284" lon="5.96759">
        <ele>590.9</ele>
        <time>2021-02-15T15:18:19Z</time>
      </trkpt>
      <trkpt lat="46.73282" lon="5.96752">
        <ele>591.6</ele>
        <time>2021-02-15T15:18:24Z</time>
      </trkpt>
      <trkpt lat="46.73281" lon="5.96746">
        <ele>592.8</ele>
        <time>2021-02-15T15:18:29Z</time>
      </trkpt>
      <trkpt lat="46.73279" lon="5.96739">
        <ele>593.1</ele>
        <time>2021-02-15T15:18:33Z</time>
      </trkpt>
      <trkpt lat="46.73278" lon="5.96733">
        <ele>593.2</ele>
        <time>2021-02-15T15:18:37Z</time>
      </trkpt>
      <trkpt lat="46.73275" lon="5.96726">
        <ele>593.5</ele>
        <time>2021-02-15T15:18:41Z</time>
      </trkpt>
      <trkpt lat="46.73273" lon="5.9672">
        <ele>593.9</ele>
        <time>2021-02-15T15:18:45Z</time>
      </trkpt>
      <trkpt lat="46.73269" lon="5.96714">
        <ele>594.5</ele>
        <time>2021-02-15T15:18:50Z</time>
      </trkpt>
      <trkpt lat="46.73267" lon="5.96706">
        <ele>595</ele>
        <time>2021-02-15T15:18:55Z</time>
      </trkpt>
      <trkpt lat="46.73265" lon="5.96699">
        <ele>595.7</ele>
        <time>2021-02-15T15:19:00Z</time>
      </trkpt>
      <trkpt lat="46.73263" lon="5.96692">
        <ele>596.9</ele>
        <time>2021-02-15T15:19:05Z</time>
      </trkpt>
      <trkpt lat="46.73261" lon="5.96685">
        <ele>598.2</ele>
        <time>2021-02-15T15:19:10Z</time>
      </trkpt>
      <trkpt lat="46.73259" lon="5.96679">
        <ele>599.5</ele>
        <time>2021-02-15T15:19:15Z</time>
      </trkpt>
      <trkpt lat="46.73256" lon="5.96673">
        <ele>600.8</ele>
        <time>2021-02-15T15:19:20Z</time>
      </trkpt>
      <trkpt lat="46.73254" lon="5.96667">
        <ele>601.7</ele>
        <time>2021-02-15T15:19:24Z</time>
      </trkpt>
      <trkpt lat="46.73251" lon="5.9666">
        <ele>602.8</ele>
        <time>2021-02-15T15:19:29Z</time>
      </trkpt>
      <trkpt lat="46.73247" lon="5.96655">
        <ele>603.6</ele>
        <time>2021-02-15T15:19:36Z</time>
      </trkpt>
      <trkpt lat="46.73243" lon="5.96651">
        <ele>604</ele>
        <time>2021-02-15T15:19:42Z</time>
      </trkpt>
      <trkpt lat="46.73239" lon="5.96647">
        <ele>604.4</ele>
        <time>2021-02-15T15:19:47Z</time>
      </trkpt>
      <trkpt lat="46.73234" lon="5.96644">
        <ele>604.8</ele>
        <time>2021-02-15T15:19:53Z</time>
      </trkpt>
      <trkpt lat="46.73229" lon="5.96643">
        <ele>605</ele>
        <time>2021-02-15T15:19:57Z</time>
      </trkpt>
      <trkpt lat="46.73224" lon="5.9664">
        <ele>605.4</ele>
        <time>2021-02-15T15:20:02Z</time>
      </trkpt>
      <trkpt lat="46.73219" lon="5.96636">
        <ele>605.6</ele>
        <time>2021-02-15T15:20:06Z</time>
      </trkpt>
      <trkpt lat="46.73215" lon="5.96632">
        <ele>605.9</ele>
        <time>2021-02-15T15:20:11Z</time>
      </trkpt>
      <trkpt lat="46.73211" lon="5.96631">
        <ele>606.3</ele>
        <time>2021-02-15T15:20:16Z</time>
      </trkpt>
      <trkpt lat="46.73206" lon="5.96628">
        <ele>607.1</ele>
        <time>2021-02-15T15:20:22Z</time>
      </trkpt>
      <trkpt lat="46.73202" lon="5.96623">
        <ele>606.3</ele>
        <time>2021-02-15T15:20:28Z</time>
      </trkpt>
      <trkpt lat="46.73199" lon="5.96617">
        <ele>604.4</ele>
        <time>2021-02-15T15:20:33Z</time>
      </trkpt>
      <trkpt lat="46.73194" lon="5.96613">
        <ele>602.3</ele>
        <time>2021-02-15T15:20:38Z</time>
      </trkpt>
      <trkpt lat="46.7319" lon="5.96609">
        <ele>599.9</ele>
        <time>2021-02-15T15:20:43Z</time>
      </trkpt>
      <trkpt lat="46.73186" lon="5.96604">
        <ele>597.3</ele>
        <time>2021-02-15T15:20:48Z</time>
      </trkpt>
      <trkpt lat="46.73183" lon="5.96599">
        <ele>594.9</ele>
        <time>2021-02-15T15:20:53Z</time>
      </trkpt>
      <trkpt lat="46.7318" lon="5.96593">
        <ele>593.1</ele>
        <time>2021-02-15T15:20:58Z</time>
      </trkpt>
      <trkpt lat="46.73175" lon="5.96591">
        <ele>593.5</ele>
        <time>2021-02-15T15:21:03Z</time>
      </trkpt>
      <trkpt lat="46.73169" lon="5.96603">
        <ele>601.5</ele>
        <time>2021-02-15T15:21:05Z</time>
      </trkpt>
      <trkpt lat="46.73166" lon="5.9661">
        <ele>606.5</ele>
        <time>2021-02-15T15:21:08Z</time>
      </trkpt>
      <trkpt lat="46.73161" lon="5.96612">
        <ele>618.1</ele>
        <time>2021-02-15T15:21:33Z</time>
      </trkpt>
      <trkpt lat="46.73165" lon="5.96608">
        <ele>623.9</ele>
        <time>2021-02-15T15:22:01Z</time>
      </trkpt>
      <trkpt lat="46.73163" lon="5.96602">
        <ele>622.1</ele>
        <time>2021-02-15T15:22:45Z</time>
      </trkpt>
      <trkpt lat="46.73158" lon="5.966">
        <ele>620.6</ele>
        <time>2021-02-15T15:22:53Z</time>
      </trkpt>
      <trkpt lat="46.73154" lon="5.96595">
        <ele>619.4</ele>
        <time>2021-02-15T15:23:00Z</time>
      </trkpt>
      <trkpt lat="46.73151" lon="5.9659">
        <ele>618.5</ele>
        <time>2021-02-15T15:23:05Z</time>
      </trkpt>
      <trkpt lat="46.73147" lon="5.96586">
        <ele>617.7</ele>
        <time>2021-02-15T15:23:10Z</time>
      </trkpt>
      <trkpt lat="46.73142" lon="5.96586">
        <ele>617</ele>
        <time>2021-02-15T15:23:15Z</time>
      </trkpt>
      <trkpt lat="46.73138" lon="5.96588">
        <ele>616.4</ele>
        <time>2021-02-15T15:23:19Z</time>
      </trkpt>
      <trkpt lat="46.73134" lon="5.96586">
        <ele>615.6</ele>
        <time>2021-02-15T15:23:24Z</time>
      </trkpt>
      <trkpt lat="46.73129" lon="5.96582">
        <ele>614.7</ele>
        <time>2021-02-15T15:23:32Z</time>
      </trkpt>
      <trkpt lat="46.73124" lon="5.9658">
        <ele>614.4</ele>
        <time>2021-02-15T15:23:38Z</time>
      </trkpt>
      <trkpt lat="46.7312" lon="5.96577">
        <ele>614.2</ele>
        <time>2021-02-15T15:23:44Z</time>
      </trkpt>
      <trkpt lat="46.73116" lon="5.96572">
        <ele>614.1</ele>
        <time>2021-02-15T15:23:48Z</time>
      </trkpt>
      <trkpt lat="46.73112" lon="5.96567">
        <ele>614.1</ele>
        <time>2021-02-15T15:23:52Z</time>
      </trkpt>
      <trkpt lat="46.73108" lon="5.96564">
        <ele>614.1</ele>
        <time>2021-02-15T15:23:57Z</time>
      </trkpt>
      <trkpt lat="46.73104" lon="5.96561">
        <ele>614.1</ele>
        <time>2021-02-15T15:24:03Z</time>
      </trkpt>
      <trkpt lat="46.73101" lon="5.96555">
        <ele>613.6</ele>
        <time>2021-02-15T15:24:09Z</time>
      </trkpt>
      <trkpt lat="46.73098" lon="5.96551">
        <ele>613.1</ele>
        <time>2021-02-15T15:24:15Z</time>
      </trkpt>
      <trkpt lat="46.73093" lon="5.96551">
        <ele>612.7</ele>
        <time>2021-02-15T15:24:22Z</time>
      </trkpt>
      <trkpt lat="46.73088" lon="5.96551">
        <ele>612.8</ele>
        <time>2021-02-15T15:24:27Z</time>
      </trkpt>
      <trkpt lat="46.73083" lon="5.96549">
        <ele>614.1</ele>
        <time>2021-02-15T15:24:33Z</time>
      </trkpt>
      <trkpt lat="46.73079" lon="5.96548">
        <ele>616</ele>
        <time>2021-02-15T15:24:42Z</time>
      </trkpt>
      <trkpt lat="46.73074" lon="5.96548">
        <ele>616.4</ele>
        <time>2021-02-15T15:24:51Z</time>
      </trkpt>
      <trkpt lat="46.73069" lon="5.96547">
        <ele>616.3</ele>
        <time>2021-02-15T15:24:58Z</time>
      </trkpt>
      <trkpt lat="46.73064" lon="5.96546">
        <ele>616.2</ele>
        <time>2021-02-15T15:25:03Z</time>
      </trkpt>
      <trkpt lat="46.7306" lon="5.96543">
        <ele>616.1</ele>
        <time>2021-02-15T15:25:08Z</time>
      </trkpt>
      <trkpt lat="46.73057" lon="5.96549">
        <ele>624.2</ele>
        <time>2021-02-15T15:25:37Z</time>
      </trkpt>
      <trkpt lat="46.73052" lon="5.96548">
        <ele>635.3</ele>
        <time>2021-02-15T15:25:48Z</time>
      </trkpt>
      <trkpt lat="46.73047" lon="5.96547">
        <ele>636.4</ele>
        <time>2021-02-15T15:25:52Z</time>
      </trkpt>
      <trkpt lat="46.73042" lon="5.96545">
        <ele>636.5</ele>
        <time>2021-02-15T15:25:58Z</time>
      </trkpt>
      <trkpt lat="46.73037" lon="5.96545">
        <ele>635.8</ele>
        <time>2021-02-15T15:26:04Z</time>
      </trkpt>
      <trkpt lat="46.73033" lon="5.96543">
        <ele>635.3</ele>
        <time>2021-02-15T15:26:09Z</time>
      </trkpt>
      <trkpt lat="46.73028" lon="5.96542">
        <ele>635.1</ele>
        <time>2021-02-15T15:26:14Z</time>
      </trkpt>
      <trkpt lat="46.73023" lon="5.96541">
        <ele>635.8</ele>
        <time>2021-02-15T15:26:19Z</time>
      </trkpt>
      <trkpt lat="46.73018" lon="5.96541">
        <ele>636.7</ele>
        <time>2021-02-15T15:26:25Z</time>
      </trkpt>
      <trkpt lat="46.73013" lon="5.96543">
        <ele>637.7</ele>
        <time>2021-02-15T15:26:30Z</time>
      </trkpt>
      <trkpt lat="46.73008" lon="5.96543">
        <ele>638.6</ele>
        <time>2021-02-15T15:26:35Z</time>
      </trkpt>
      <trkpt lat="46.73004" lon="5.9654">
        <ele>639.4</ele>
        <time>2021-02-15T15:26:40Z</time>
      </trkpt>
      <trkpt lat="46.72998" lon="5.96538">
        <ele>640.2</ele>
        <time>2021-02-15T15:26:45Z</time>
      </trkpt>
      <trkpt lat="46.72994" lon="5.96537">
        <ele>640.9</ele>
        <time>2021-02-15T15:26:49Z</time>
      </trkpt>
      <trkpt lat="46.72989" lon="5.96535">
        <ele>641.5</ele>
        <time>2021-02-15T15:26:54Z</time>
      </trkpt>
      <trkpt lat="46.72985" lon="5.96533">
        <ele>641.8</ele>
        <time>2021-02-15T15:26:59Z</time>
      </trkpt>
      <trkpt lat="46.7298" lon="5.96531">
        <ele>642</ele>
        <time>2021-02-15T15:27:05Z</time>
      </trkpt>
      <trkpt lat="46.72976" lon="5.96527">
        <ele>642.1</ele>
        <time>2021-02-15T15:27:10Z</time>
      </trkpt>
      <trkpt lat="46.72972" lon="5.96525">
        <ele>642.3</ele>
        <time>2021-02-15T15:27:15Z</time>
      </trkpt>
      <trkpt lat="46.72967" lon="5.96523">
        <ele>642.2</ele>
        <time>2021-02-15T15:27:21Z</time>
      </trkpt>
      <trkpt lat="46.72963" lon="5.96523">
        <ele>642</ele>
        <time>2021-02-15T15:27:30Z</time>
      </trkpt>
      <trkpt lat="46.72959" lon="5.96519">
        <ele>640.4</ele>
        <time>2021-02-15T15:27:53Z</time>
      </trkpt>
      <trkpt lat="46.72955" lon="5.96514">
        <ele>638.2</ele>
        <time>2021-02-15T15:28:17Z</time>
      </trkpt>
      <trkpt lat="46.72951" lon="5.9651">
        <ele>637.9</ele>
        <time>2021-02-15T15:28:23Z</time>
      </trkpt>
      <trkpt lat="46.72946" lon="5.96509">
        <ele>637.9</ele>
        <time>2021-02-15T15:28:28Z</time>
      </trkpt>
      <trkpt lat="46.72942" lon="5.96506">
        <ele>638</ele>
        <time>2021-02-15T15:28:32Z</time>
      </trkpt>
      <trkpt lat="46.72938" lon="5.96503">
        <ele>638.3</ele>
        <time>2021-02-15T15:28:38Z</time>
      </trkpt>
      <trkpt lat="46.72933" lon="5.96499">
        <ele>638.4</ele>
        <time>2021-02-15T15:28:43Z</time>
      </trkpt>
      <trkpt lat="46.72929" lon="5.96498">
        <ele>638.6</ele>
        <time>2021-02-15T15:28:49Z</time>
      </trkpt>
      <trkpt lat="46.72924" lon="5.965">
        <ele>638.8</ele>
        <time>2021-02-15T15:28:56Z</time>
      </trkpt>
      <trkpt lat="46.72919" lon="5.96498">
        <ele>639.2</ele>
        <time>2021-02-15T15:29:01Z</time>
      </trkpt>
      <trkpt lat="46.72914" lon="5.96494">
        <ele>639.6</ele>
        <time>2021-02-15T15:29:06Z</time>
      </trkpt>
      <trkpt lat="46.72909" lon="5.96491">
        <ele>640.1</ele>
        <time>2021-02-15T15:29:11Z</time>
      </trkpt>
      <trkpt lat="46.72904" lon="5.96488">
        <ele>640.4</ele>
        <time>2021-02-15T15:29:17Z</time>
      </trkpt>
      <trkpt lat="46.729" lon="5.96485">
        <ele>640.6</ele>
        <time>2021-02-15T15:29:22Z</time>
      </trkpt>
      <trkpt lat="46.72897" lon="5.96479">
        <ele>641.4</ele>
        <time>2021-02-15T15:29:28Z</time>
      </trkpt>
      <trkpt lat="46.72893" lon="5.96474">
        <ele>642.5</ele>
        <time>2021-02-15T15:29:34Z</time>
      </trkpt>
      <trkpt lat="46.72889" lon="5.96472">
        <ele>643.8</ele>
        <time>2021-02-15T15:29:40Z</time>
      </trkpt>
      <trkpt lat="46.72884" lon="5.96472">
        <ele>646</ele>
        <time>2021-02-15T15:30:02Z</time>
      </trkpt>
      <trkpt lat="46.72879" lon="5.9647">
        <ele>646.5</ele>
        <time>2021-02-15T15:30:08Z</time>
      </trkpt>
      <trkpt lat="46.72875" lon="5.96467">
        <ele>647.4</ele>
        <time>2021-02-15T15:30:14Z</time>
      </trkpt>
      <trkpt lat="46.7287" lon="5.96465">
        <ele>648.7</ele>
        <time>2021-02-15T15:31:03Z</time>
      </trkpt>
      <trkpt lat="46.72866" lon="5.96461">
        <ele>649</ele>
        <time>2021-02-15T15:31:22Z</time>
      </trkpt>
      <trkpt lat="46.72862" lon="5.96457">
        <ele>648.7</ele>
        <time>2021-02-15T15:31:27Z</time>
      </trkpt>
      <trkpt lat="46.72859" lon="5.96452">
        <ele>648.3</ele>
        <time>2021-02-15T15:31:32Z</time>
      </trkpt>
      <trkpt lat="46.72856" lon="5.96447">
        <ele>648.1</ele>
        <time>2021-02-15T15:31:37Z</time>
      </trkpt>
      <trkpt lat="46.72852" lon="5.96442">
        <ele>647.9</ele>
        <time>2021-02-15T15:31:42Z</time>
      </trkpt>
      <trkpt lat="46.7285" lon="5.96435">
        <ele>647.7</ele>
        <time>2021-02-15T15:31:46Z</time>
      </trkpt>
      <trkpt lat="46.72848" lon="5.96429">
        <ele>647.4</ele>
        <time>2021-02-15T15:31:51Z</time>
      </trkpt>
      <trkpt lat="46.72846" lon="5.96423">
        <ele>647</ele>
        <time>2021-02-15T15:31:57Z</time>
      </trkpt>
      <trkpt lat="46.72843" lon="5.96418">
        <ele>647</ele>
        <time>2021-02-15T15:32:02Z</time>
      </trkpt>
      <trkpt lat="46.72839" lon="5.96414">
        <ele>646.9</ele>
        <time>2021-02-15T15:32:06Z</time>
      </trkpt>
      <trkpt lat="46.72836" lon="5.96408">
        <ele>647.2</ele>
        <time>2021-02-15T15:32:11Z</time>
      </trkpt>
      <trkpt lat="46.72833" lon="5.96403">
        <ele>647.7</ele>
        <time>2021-02-15T15:32:17Z</time>
      </trkpt>
      <trkpt lat="46.72829" lon="5.96398">
        <ele>647.9</ele>
        <time>2021-02-15T15:32:23Z</time>
      </trkpt>
      <trkpt lat="46.72825" lon="5.96394">
        <ele>648.7</ele>
        <time>2021-02-15T15:32:29Z</time>
      </trkpt>
      <trkpt lat="46.72822" lon="5.96389">
        <ele>649.1</ele>
        <time>2021-02-15T15:32:35Z</time>
      </trkpt>
      <trkpt lat="46.72818" lon="5.96385">
        <ele>649.3</ele>
        <time>2021-02-15T15:32:39Z</time>
      </trkpt>
      <trkpt lat="46.72814" lon="5.9638">
        <ele>649.5</ele>
        <time>2021-02-15T15:32:43Z</time>
      </trkpt>
      <trkpt lat="46.72809" lon="5.96376">
        <ele>649.6</ele>
        <time>2021-02-15T15:32:47Z</time>
      </trkpt>
      <trkpt lat="46.72806" lon="5.96372">
        <ele>649.5</ele>
        <time>2021-02-15T15:32:55Z</time>
      </trkpt>
      <trkpt lat="46.72804" lon="5.96365">
        <ele>650.4</ele>
        <time>2021-02-15T15:33:29Z</time>
      </trkpt>
      <trkpt lat="46.72799" lon="5.96363">
        <ele>650.7</ele>
        <time>2021-02-15T15:33:34Z</time>
      </trkpt>
      <trkpt lat="46.72794" lon="5.96364">
        <ele>651.1</ele>
        <time>2021-02-15T15:33:40Z</time>
      </trkpt>
      <trkpt lat="46.7279" lon="5.96367">
        <ele>650.9</ele>
        <time>2021-02-15T15:33:47Z</time>
      </trkpt>
      <trkpt lat="46.72786" lon="5.96369">
        <ele>649</ele>
        <time>2021-02-15T15:33:53Z</time>
      </trkpt>
      <trkpt lat="46.7278" lon="5.96369">
        <ele>648.9</ele>
        <time>2021-02-15T15:33:59Z</time>
      </trkpt>
      <trkpt lat="46.72776" lon="5.96367">
        <ele>650.9</ele>
        <time>2021-02-15T15:34:05Z</time>
      </trkpt>
      <trkpt lat="46.72771" lon="5.96367">
        <ele>652.2</ele>
        <time>2021-02-15T15:34:10Z</time>
      </trkpt>
      <trkpt lat="46.72766" lon="5.96367">
        <ele>653.8</ele>
        <time>2021-02-15T15:34:14Z</time>
      </trkpt>
      <trkpt lat="46.72762" lon="5.96365">
        <ele>655.9</ele>
        <time>2021-02-15T15:34:18Z</time>
      </trkpt>
      <trkpt lat="46.72757" lon="5.96362">
        <ele>658.2</ele>
        <time>2021-02-15T15:34:22Z</time>
      </trkpt>
      <trkpt lat="46.72752" lon="5.96357">
        <ele>660.1</ele>
        <time>2021-02-15T15:34:26Z</time>
      </trkpt>
      <trkpt lat="46.72749" lon="5.96351">
        <ele>660.7</ele>
        <time>2021-02-15T15:34:30Z</time>
      </trkpt>
      <trkpt lat="46.72746" lon="5.96345">
        <ele>660.3</ele>
        <time>2021-02-15T15:34:35Z</time>
      </trkpt>
      <trkpt lat="46.72743" lon="5.96339">
        <ele>660.9</ele>
        <time>2021-02-15T15:34:41Z</time>
      </trkpt>
      <trkpt lat="46.72738" lon="5.96336">
        <ele>660.6</ele>
        <time>2021-02-15T15:34:47Z</time>
      </trkpt>
      <trkpt lat="46.72734" lon="5.96334">
        <ele>660.4</ele>
        <time>2021-02-15T15:34:53Z</time>
      </trkpt>
      <trkpt lat="46.72729" lon="5.96333">
        <ele>660.3</ele>
        <time>2021-02-15T15:34:59Z</time>
      </trkpt>
      <trkpt lat="46.72724" lon="5.9633">
        <ele>660.1</ele>
        <time>2021-02-15T15:35:05Z</time>
      </trkpt>
      <trkpt lat="46.7272" lon="5.96327">
        <ele>659.8</ele>
        <time>2021-02-15T15:35:10Z</time>
      </trkpt>
      <trkpt lat="46.72716" lon="5.96323">
        <ele>659.1</ele>
        <time>2021-02-15T15:35:15Z</time>
      </trkpt>
      <trkpt lat="46.72711" lon="5.96319">
        <ele>658.1</ele>
        <time>2021-02-15T15:35:20Z</time>
      </trkpt>
      <trkpt lat="46.72707" lon="5.96315">
        <ele>656.7</ele>
        <time>2021-02-15T15:35:25Z</time>
      </trkpt>
      <trkpt lat="46.72703" lon="5.96312">
        <ele>655.4</ele>
        <time>2021-02-15T15:35:29Z</time>
      </trkpt>
      <trkpt lat="46.72699" lon="5.96308">
        <ele>653.7</ele>
        <time>2021-02-15T15:35:33Z</time>
      </trkpt>
      <trkpt lat="46.72695" lon="5.96304">
        <ele>652</ele>
        <time>2021-02-15T15:35:37Z</time>
      </trkpt>
      <trkpt lat="46.72692" lon="5.96299">
        <ele>650.2</ele>
        <time>2021-02-15T15:35:42Z</time>
      </trkpt>
      <trkpt lat="46.72688" lon="5.96294">
        <ele>648.5</ele>
        <time>2021-02-15T15:35:46Z</time>
      </trkpt>
      <trkpt lat="46.72685" lon="5.96288">
        <ele>646.4</ele>
        <time>2021-02-15T15:35:51Z</time>
      </trkpt>
      <trkpt lat="46.72683" lon="5.96282">
        <ele>644.4</ele>
        <time>2021-02-15T15:35:57Z</time>
      </trkpt>
      <trkpt lat="46.72682" lon="5.96275">
        <ele>643</ele>
        <time>2021-02-15T15:36:02Z</time>
      </trkpt>
      <trkpt lat="46.72678" lon="5.9627">
        <ele>641.5</ele>
        <time>2021-02-15T15:36:08Z</time>
      </trkpt>
      <trkpt lat="46.72675" lon="5.96264">
        <ele>640.4</ele>
        <time>2021-02-15T15:36:13Z</time>
      </trkpt>
      <trkpt lat="46.72672" lon="5.96259">
        <ele>639.6</ele>
        <time>2021-02-15T15:36:17Z</time>
      </trkpt>
      <trkpt lat="46.72668" lon="5.96255">
        <ele>638.5</ele>
        <time>2021-02-15T15:36:23Z</time>
      </trkpt>
      <trkpt lat="46.72665" lon="5.9625">
        <ele>638</ele>
        <time>2021-02-15T15:36:28Z</time>
      </trkpt>
      <trkpt lat="46.7266" lon="5.96245">
        <ele>637.8</ele>
        <time>2021-02-15T15:36:33Z</time>
      </trkpt>
      <trkpt lat="46.72657" lon="5.96241">
        <ele>637.3</ele>
        <time>2021-02-15T15:36:38Z</time>
      </trkpt>
      <trkpt lat="46.72653" lon="5.96235">
        <ele>636.6</ele>
        <time>2021-02-15T15:36:44Z</time>
      </trkpt>
      <trkpt lat="46.7265" lon="5.9623">
        <ele>635.9</ele>
        <time>2021-02-15T15:36:48Z</time>
      </trkpt>
      <trkpt lat="46.72647" lon="5.96225">
        <ele>635.1</ele>
        <time>2021-02-15T15:36:52Z</time>
      </trkpt>
      <trkpt lat="46.72643" lon="5.96219">
        <ele>634.3</ele>
        <time>2021-02-15T15:36:56Z</time>
      </trkpt>
      <trkpt lat="46.7264" lon="5.96215">
        <ele>633.6</ele>
        <time>2021-02-15T15:37:01Z</time>
      </trkpt>
      <trkpt lat="46.72635" lon="5.9621">
        <ele>633</ele>
        <time>2021-02-15T15:37:06Z</time>
      </trkpt>
      <trkpt lat="46.72631" lon="5.96204">
        <ele>632.5</ele>
        <time>2021-02-15T15:37:10Z</time>
      </trkpt>
      <trkpt lat="46.72628" lon="5.96198">
        <ele>632</ele>
        <time>2021-02-15T15:37:15Z</time>
      </trkpt>
      <trkpt lat="46.72625" lon="5.96192">
        <ele>631.3</ele>
        <time>2021-02-15T15:37:19Z</time>
      </trkpt>
      <trkpt lat="46.72621" lon="5.96188">
        <ele>630.6</ele>
        <time>2021-02-15T15:37:23Z</time>
      </trkpt>
      <trkpt lat="46.72619" lon="5.96182">
        <ele>629.5</ele>
        <time>2021-02-15T15:37:28Z</time>
      </trkpt>
      <trkpt lat="46.72615" lon="5.96177">
        <ele>628.7</ele>
        <time>2021-02-15T15:37:32Z</time>
      </trkpt>
      <trkpt lat="46.72612" lon="5.96172">
        <ele>628</ele>
        <time>2021-02-15T15:37:36Z</time>
      </trkpt>
      <trkpt lat="46.72608" lon="5.96166">
        <ele>627.2</ele>
        <time>2021-02-15T15:37:41Z</time>
      </trkpt>
      <trkpt lat="46.72605" lon="5.9616">
        <ele>626.3</ele>
        <time>2021-02-15T15:37:46Z</time>
      </trkpt>
      <trkpt lat="46.72603" lon="5.96154">
        <ele>625.2</ele>
        <time>2021-02-15T15:37:51Z</time>
      </trkpt>
      <trkpt lat="46.72599" lon="5.96148">
        <ele>624.2</ele>
        <time>2021-02-15T15:37:57Z</time>
      </trkpt>
      <trkpt lat="46.72596" lon="5.96142">
        <ele>623.5</ele>
        <time>2021-02-15T15:38:01Z</time>
      </trkpt>
      <trkpt lat="46.72592" lon="5.96136">
        <ele>623</ele>
        <time>2021-02-15T15:38:05Z</time>
      </trkpt>
      <trkpt lat="46.72589" lon="5.96131">
        <ele>622.4</ele>
        <time>2021-02-15T15:38:13Z</time>
      </trkpt>
      <trkpt lat="46.72587" lon="5.96124">
        <ele>622.4</ele>
        <time>2021-02-15T15:38:18Z</time>
      </trkpt>
      <trkpt lat="46.72585" lon="5.96118">
        <ele>622.5</ele>
        <time>2021-02-15T15:38:22Z</time>
      </trkpt>
      <trkpt lat="46.72583" lon="5.96112">
        <ele>622.7</ele>
        <time>2021-02-15T15:38:26Z</time>
      </trkpt>
      <trkpt lat="46.7258" lon="5.96105">
        <ele>623</ele>
        <time>2021-02-15T15:38:31Z</time>
      </trkpt>
      <trkpt lat="46.72578" lon="5.96097">
        <ele>623.4</ele>
        <time>2021-02-15T15:38:36Z</time>
      </trkpt>
      <trkpt lat="46.72575" lon="5.96091">
        <ele>623.7</ele>
        <time>2021-02-15T15:38:41Z</time>
      </trkpt>
      <trkpt lat="46.72571" lon="5.96085">
        <ele>623.5</ele>
        <time>2021-02-15T15:38:46Z</time>
      </trkpt>
      <trkpt lat="46.72569" lon="5.9608">
        <ele>623.3</ele>
        <time>2021-02-15T15:38:51Z</time>
      </trkpt>
      <trkpt lat="46.72566" lon="5.96074">
        <ele>623.2</ele>
        <time>2021-02-15T15:38:56Z</time>
      </trkpt>
      <trkpt lat="46.72564" lon="5.96067">
        <ele>623.4</ele>
        <time>2021-02-15T15:39:01Z</time>
      </trkpt>
      <trkpt lat="46.72561" lon="5.96061">
        <ele>623.5</ele>
        <time>2021-02-15T15:39:05Z</time>
      </trkpt>
      <trkpt lat="46.72558" lon="5.96054">
        <ele>623.6</ele>
        <time>2021-02-15T15:39:09Z</time>
      </trkpt>
      <trkpt lat="46.72556" lon="5.96048">
        <ele>623.5</ele>
        <time>2021-02-15T15:39:13Z</time>
      </trkpt>
      <trkpt lat="46.72554" lon="5.96041">
        <ele>623.4</ele>
        <time>2021-02-15T15:39:18Z</time>
      </trkpt>
      <trkpt lat="46.72555" lon="5.96034">
        <ele>623.5</ele>
        <time>2021-02-15T15:39:27Z</time>
      </trkpt>
      <trkpt lat="46.72552" lon="5.96027">
        <ele>625.5</ele>
        <time>2021-02-15T15:40:00Z</time>
      </trkpt>
      <trkpt lat="46.72553" lon="5.96021">
        <ele>625.2</ele>
        <time>2021-02-15T15:40:07Z</time>
      </trkpt>
      <trkpt lat="46.72557" lon="5.96015">
        <ele>624.9</ele>
        <time>2021-02-15T15:40:13Z</time>
      </trkpt>
      <trkpt lat="46.7256" lon="5.96009">
        <ele>623.6</ele>
        <time>2021-02-15T15:40:21Z</time>
      </trkpt>
      <trkpt lat="46.72565" lon="5.96007">
        <ele>621.4</ele>
        <time>2021-02-15T15:40:25Z</time>
      </trkpt>
      <trkpt lat="46.7257" lon="5.96008">
        <ele>619.6</ele>
        <time>2021-02-15T15:40:28Z</time>
      </trkpt>
      <trkpt lat="46.72574" lon="5.96001">
        <ele>610.3</ele>
        <time>2021-02-15T15:40:41Z</time>
      </trkpt>
      <trkpt lat="46.72578" lon="5.95997">
        <ele>607.2</ele>
        <time>2021-02-15T15:40:46Z</time>
      </trkpt>
      <trkpt lat="46.72582" lon="5.95992">
        <ele>610.2</ele>
        <time>2021-02-15T15:40:49Z</time>
      </trkpt>
      <trkpt lat="46.72587" lon="5.95989">
        <ele>613.5</ele>
        <time>2021-02-15T15:40:51Z</time>
      </trkpt>
      <trkpt lat="46.72591" lon="5.95986">
        <ele>619.5</ele>
        <time>2021-02-15T15:40:55Z</time>
      </trkpt>
      <trkpt lat="46.72595" lon="5.95986">
        <ele>622.8</ele>
        <time>2021-02-15T15:41:21Z</time>
      </trkpt>
      <trkpt lat="46.726" lon="5.95986">
        <ele>621.4</ele>
        <time>2021-02-15T15:41:26Z</time>
      </trkpt>
      <trkpt lat="46.72605" lon="5.95986">
        <ele>619.2</ele>
        <time>2021-02-15T15:41:32Z</time>
      </trkpt>
      <trkpt lat="46.7261" lon="5.95988">
        <ele>616.9</ele>
        <time>2021-02-15T15:41:39Z</time>
      </trkpt>
      <trkpt lat="46.72614" lon="5.95985">
        <ele>616.4</ele>
        <time>2021-02-15T15:41:43Z</time>
      </trkpt>
      <trkpt lat="46.7262" lon="5.95981">
        <ele>615.7</ele>
        <time>2021-02-15T15:41:47Z</time>
      </trkpt>
      <trkpt lat="46.72625" lon="5.95979">
        <ele>615.7</ele>
        <time>2021-02-15T15:41:50Z</time>
      </trkpt>
      <trkpt lat="46.7263" lon="5.95978">
        <ele>615.8</ele>
        <time>2021-02-15T15:41:55Z</time>
      </trkpt>
      <trkpt lat="46.72633" lon="5.95973">
        <ele>616.7</ele>
        <time>2021-02-15T15:42:04Z</time>
      </trkpt>
      <trkpt lat="46.72637" lon="5.9597">
        <ele>617.4</ele>
        <time>2021-02-15T15:42:12Z</time>
      </trkpt>
      <trkpt lat="46.72644" lon="5.95971">
        <ele>617.7</ele>
        <time>2021-02-15T15:42:17Z</time>
      </trkpt>
      <trkpt lat="46.72649" lon="5.95973">
        <ele>617.8</ele>
        <time>2021-02-15T15:42:21Z</time>
      </trkpt>
      <trkpt lat="46.72655" lon="5.95976">
        <ele>617.5</ele>
        <time>2021-02-15T15:42:24Z</time>
      </trkpt>
      <trkpt lat="46.72659" lon="5.95981">
        <ele>616.5</ele>
        <time>2021-02-15T15:42:27Z</time>
      </trkpt>
      <trkpt lat="46.72663" lon="5.95986">
        <ele>613.4</ele>
        <time>2021-02-15T15:42:32Z</time>
      </trkpt>
      <trkpt lat="46.72666" lon="5.95991">
        <ele>610.5</ele>
        <time>2021-02-15T15:42:35Z</time>
      </trkpt>
      <trkpt lat="46.72671" lon="5.95992">
        <ele>604.8</ele>
        <time>2021-02-15T15:42:42Z</time>
      </trkpt>
      <trkpt lat="46.72676" lon="5.9599">
        <ele>601.6</ele>
        <time>2021-02-15T15:42:49Z</time>
      </trkpt>
      <trkpt lat="46.72682" lon="5.95992">
        <ele>597.9</ele>
        <time>2021-02-15T15:42:54Z</time>
      </trkpt>
      <trkpt lat="46.72687" lon="5.95993">
        <ele>595.5</ele>
        <time>2021-02-15T15:42:57Z</time>
      </trkpt>
      <trkpt lat="46.72692" lon="5.95992">
        <ele>593.8</ele>
        <time>2021-02-15T15:43:00Z</time>
      </trkpt>
      <trkpt lat="46.72696" lon="5.95993">
        <ele>589.7</ele>
        <time>2021-02-15T15:43:06Z</time>
      </trkpt>
      <trkpt lat="46.72701" lon="5.9599">
        <ele>587.3</ele>
        <time>2021-02-15T15:43:13Z</time>
      </trkpt>
      <trkpt lat="46.72705" lon="5.95986">
        <ele>589.5</ele>
        <time>2021-02-15T15:43:16Z</time>
      </trkpt>
      <trkpt lat="46.72709" lon="5.95981">
        <ele>593.3</ele>
        <time>2021-02-15T15:43:20Z</time>
      </trkpt>
      <trkpt lat="46.72713" lon="5.95976">
        <ele>597.1</ele>
        <time>2021-02-15T15:43:24Z</time>
      </trkpt>
      <trkpt lat="46.72717" lon="5.95974">
        <ele>600.9</ele>
        <time>2021-02-15T15:43:29Z</time>
      </trkpt>
      <trkpt lat="46.72722" lon="5.95973">
        <ele>602.9</ele>
        <time>2021-02-15T15:43:34Z</time>
      </trkpt>
      <trkpt lat="46.72727" lon="5.95972">
        <ele>604.4</ele>
        <time>2021-02-15T15:43:42Z</time>
      </trkpt>
      <trkpt lat="46.72732" lon="5.95972">
        <ele>605.6</ele>
        <time>2021-02-15T15:43:48Z</time>
      </trkpt>
      <trkpt lat="46.72737" lon="5.95974">
        <ele>606.2</ele>
        <time>2021-02-15T15:43:53Z</time>
      </trkpt>
      <trkpt lat="46.72741" lon="5.95977">
        <ele>606.7</ele>
        <time>2021-02-15T15:43:58Z</time>
      </trkpt>
      <trkpt lat="46.72746" lon="5.95979">
        <ele>606.6</ele>
        <time>2021-02-15T15:44:06Z</time>
      </trkpt>
      <trkpt lat="46.7275" lon="5.95981">
        <ele>605.4</ele>
        <time>2021-02-15T15:44:12Z</time>
      </trkpt>
      <trkpt lat="46.72755" lon="5.95985">
        <ele>603.7</ele>
        <time>2021-02-15T15:44:21Z</time>
      </trkpt>
      <trkpt lat="46.72759" lon="5.95988">
        <ele>602</ele>
        <time>2021-02-15T15:44:26Z</time>
      </trkpt>
      <trkpt lat="46.72764" lon="5.9599">
        <ele>599.7</ele>
        <time>2021-02-15T15:44:32Z</time>
      </trkpt>
      <trkpt lat="46.72769" lon="5.9599">
        <ele>598.1</ele>
        <time>2021-02-15T15:44:36Z</time>
      </trkpt>
      <trkpt lat="46.72774" lon="5.95989">
        <ele>596.4</ele>
        <time>2021-02-15T15:44:41Z</time>
      </trkpt>
      <trkpt lat="46.72779" lon="5.95989">
        <ele>594.5</ele>
        <time>2021-02-15T15:44:46Z</time>
      </trkpt>
      <trkpt lat="46.72784" lon="5.95985">
        <ele>592.4</ele>
        <time>2021-02-15T15:44:51Z</time>
      </trkpt>
      <trkpt lat="46.72789" lon="5.95982">
        <ele>590.3</ele>
        <time>2021-02-15T15:44:56Z</time>
      </trkpt>
      <trkpt lat="46.72794" lon="5.95983">
        <ele>588.3</ele>
        <time>2021-02-15T15:45:00Z</time>
      </trkpt>
      <trkpt lat="46.72798" lon="5.95986">
        <ele>586.3</ele>
        <time>2021-02-15T15:45:04Z</time>
      </trkpt>
      <trkpt lat="46.72803" lon="5.95989">
        <ele>584.2</ele>
        <time>2021-02-15T15:45:08Z</time>
      </trkpt>
      <trkpt lat="46.72807" lon="5.95992">
        <ele>582</ele>
        <time>2021-02-15T15:45:13Z</time>
      </trkpt>
      <trkpt lat="46.72811" lon="5.95996">
        <ele>580.3</ele>
        <time>2021-02-15T15:45:18Z</time>
      </trkpt>
      <trkpt lat="46.72816" lon="5.96001">
        <ele>578.5</ele>
        <time>2021-02-15T15:45:24Z</time>
      </trkpt>
      <trkpt lat="46.72821" lon="5.96002">
        <ele>577.7</ele>
        <time>2021-02-15T15:45:28Z</time>
      </trkpt>
      <trkpt lat="46.72825" lon="5.96005">
        <ele>577.2</ele>
        <time>2021-02-15T15:45:32Z</time>
      </trkpt>
      <trkpt lat="46.7283" lon="5.96009">
        <ele>576.8</ele>
        <time>2021-02-15T15:45:36Z</time>
      </trkpt>
      <trkpt lat="46.72834" lon="5.96014">
        <ele>576.9</ele>
        <time>2021-02-15T15:45:41Z</time>
      </trkpt>
      <trkpt lat="46.72835" lon="5.9602">
        <ele>578.4</ele>
        <time>2021-02-15T15:46:32Z</time>
      </trkpt>
    </trkseg>
  </trk>
</gpx>